[[{"header":{"parameterUnit":"m.s-1","parameterCategory":1,"la1":31.0,"la2":29.5877,"lo1":-88.7671,"lo2":-86.6584,"dy":0.0162,"dx":0.0185,"nx":115,"ny":88,"refTime":"2024-08-06T00:00:00:Z","depth":0,"parameterNumber":2,"parameterNumberName":"U-component_of_WINDS"},"data":[0.0,0.0,0.0,0.0,0.0,0.0,0.0,0.0,0.0,0.0,0.0,0.0,0.0,0.0,0.0,0.0,0.0,0.0,0.0,0.0,0.0,0.0,0.0,0.0,0.0,0.0,0.0,0.0,0.0,0.0,0.0,0.0,0.0,0.0,0.0,0.0,0.0,0.0,0.0,0.0,0.0,0.0,0.0,0.0,0.0,0.0,0.0,0.0,0.0,0.0,0.0,0.0,0.0,0.0,0.0,0.0,0.0,0.0,0.0,0.0,0.0,0.0,0.0,0.0,0.0,0.0,0.0,0.0,0.0,0.0,0.0,0.0,0.0,0.0,0.0,0.0,0.0,0.0,0.0,0.0,0.0,0.0,0.0,0.0,0.0,0.0,0.0,0.0,0.0,0.0,0.0,0.0,0.0,0.0,0.0,0.0,0.0,0.0,0.0,0.0,0.0,0.0,0.0,0.0,0.0,0.0,0.0,0.0,0.0,0.0,0.0,0.0,0.0,0.0,0.0,0.0,0.0,0.0,0.0,0.0,0.0,0.0,0.0,0.0,0.0,0.0,0.0,0.0,0.0,0.0,0.0,0.0,0.0,0.0,0.0,0.0,0.0,0.0,0.0,0.0,0.0,0.0,0.0,0.0,0.0,0.0,0.0,0.0,0.0,0.0,0.0,0.0,0.0,0.0,0.0,0.0,0.0,0.0,0.0,0.0,0.0,0.0,0.0,0.0,0.0,0.0,0.0,0.0,0.0,0.0,0.0,0.0,0.0,0.0,0.0,0.0,0.0,0.0,0.0,0.0,0.0,0.0,0.0,0.0,0.0,0.0,0.0,0.0,0.0,0.0,0.0,0.0,0.0,0.0,0.0,0.0,0.0,0.0,0.0,0.0,0.0,0.0,0.0,0.0,0.0,0.0,0.0,0.0,0.0,0.0,0.0,0.0,0.0,0.0,0.0,0.0,0.0,0.0,0.0,0.0,0.0,0.0,0.0,0.0,0.0,0.0,0.0,0.0,0.0,0.0,0.0,0.0,0.0,0.0,0.0,0.0,0.0,0.0,0.0,0.0,0.0,0.0,0.0,0.0,0.0,0.0,0.0,0.0,0.0,0.0,0.0,0.0,0.0,0.0,0.0,0.0,0.0,0.0,0.0,0.0,0.0,0.0,0.0,0.0,0.0,0.0,0.0,0.0,0.0,0.0,0.0,0.0,0.0,0.0,0.0,0.0,0.0,0.0,0.0,0.0,0.0,0.0,0.0,0.0,0.0,0.0,0.0,0.0,0.0,0.0,0.0,0.0,0.0,0.0,0.0,0.0,0.0,0.0,0.0,0.0,0.0,0.0,0.0,0.0,0.0,0.0,0.0,0.0,0.0,0.0,0.0,0.0,0.0,0.0,0.0,0.0,0.0,0.0,0.0,0.0,0.0,0.0,0.0,0.0,0.0,0.0,0.0,0.0,0.0,0.0,0.0,0.0,0.0,0.0,0.0,0.0,0.0,0.0,0.0,0.0,0.0,0.0,0.0,0.0,0.0,0.0,0.0,0.0,0.0,0.0,0.0,0.0,0.0,0.0,0.0,0.0,0.0,0.0,0.0,0.0,0.0,0.0,0.0,0.0,0.0,0.0,0.0,0.0,0.0,0.0,0.0,0.0,0.0,0.0,0.0,0.0,0.0,0.0,0.0,0.0,0.0,0.0,0.0,0.0,0.0,0.0,0.0,0.0,0.0,0.0,0.0,0.0,0.0,0.0,0.0,0.0,0.0,0.0,0.0,0.0,0.0,0.0,0.0,0.0,0.0,0.0,0.0,0.0,0.0,0.0,0.0,0.0,0.0,0.0,0.0,0.0,0.0,0.0,0.0,0.0,0.0,0.0,0.0,0.0,0.0,0.0,0.0,0.0,0.0,0.0,0.0,0.0,0.0,0.0,0.0,0.0,0.0,0.0,0.0,0.0,0.0,0.0,0.0,0.0,0.0,0.0,0.0,0.0,0.0,0.0,0.0,0.0,0.0,0.0,0.0,0.0,0.0,0.0,0.0,0.0,0.0,0.0,0.0,0.0,0.0,0.0,0.0,0.0,0.0,0.0,0.0,0.0,0.0,0.0,0.0,0.0,0.0,0.0,0.0,0.0,0.0,0.0,0.0,0.0,0.0,0.0,0.0,0.0,0.0,0.0,0.0,0.0,0.0,0.0,0.0,0.0,0.0,0.0,0.0,0.0,0.0,0.0,0.0,0.0,0.0,0.0,0.0,0.0,0.0,0.0,0.0,0.0,0.0,0.0,0.0,0.0,0.0,0.0,0.0,0.0,0.0,0.0,0.0,0.0,0.0,0.0,0.0,0.0,0.0,0.0,0.0,0.0,0.0,0.0,0.0,0.0,0.0,0.0,0.0,0.0,0.0,0.0,0.0,0.0,0.0,0.0,0.0,0.0,0.0,0.0,0.0,0.0,0.0,0.0,0.0,0.0,0.0,0.0,0.0,0.0,0.0,0.0,0.0,0.0,0.0,0.0,0.0,0.0,0.0,0.0,0.0,0.0,0.0,0.0,0.0,0.0,0.0,0.0,0.0,0.0,0.0,0.0,0.0,0.0,0.0,0.0,0.0,0.0,0.0,0.0,0.0,0.0,0.0,0.0,0.0,0.0,0.0,0.0,0.0,0.0,0.0,0.0,0.0,0.0,0.0,0.0,0.0,0.0,0.0,0.0,0.0,0.0,0.0,0.0,0.0,0.0,0.0,0.0,0.0,0.0,0.0,0.0,0.0,0.0,0.0,0.0,0.0,0.0,0.0,0.0,0.0,0.0,0.0,0.0,0.0,0.0,0.0,0.0,0.0,0.0,0.0,0.0,0.0,0.0,0.0,0.0,0.0,0.0,0.0,0.0,0.0,0.0,0.0,0.0,0.0,0.0,0.0,0.0,0.0,0.0,0.0,0.0,0.0,0.0,0.0,0.0,0.0,0.0,0.0,0.0,0.0,0.0,0.0,0.0,0.0,0.0,0.0,0.0,0.0,0.0,0.0,0.0,0.0,0.0,0.0,0.0,0.0,0.0,0.0,0.0,0.0,0.0,0.0,0.0,0.0,0.0,0.0,0.0,0.0,0.0,0.0,0.0,0.0,0.0,0.0,0.0,0.0,0.0,0.0,0.0,0.0,0.0,0.0,0.0,0.0,0.0,0.0,0.0,0.0,0.0,0.0,0.0,0.0,0.0,0.0,0.0,0.0,0.0,0.0,0.0,0.0,0.0,0.0,0.0,0.0,0.0,0.0,0.0,0.0,0.0,0.0,0.0,0.0,0.0,0.0,0.0,0.0,0.0,0.0,0.0,0.0,0.0,0.0,0.0,0.0,0.0,0.0,0.0,0.0,0.0,0.0,0.0,0.0,0.0,0.0,0.0,0.0,0.0,0.0,0.0,0.0,0.0,0.0,0.0,0.0,0.0,0.0,0.0,0.0,0.0,0.0,0.0,0.0,0.0,0.0,0.0,0.0,0.0,0.0,0.0,0.0,0.0,0.0,0.0,0.0,0.0,0.0,0.0,0.0,0.0,0.0,0.0,0.0,0.0,0.0,0.0,0.0,0.0,0.0,0.0,0.0,0.0,0.0,0.0,0.0,0.0,0.0,0.0,0.0,0.0,0.0,0.0,0.0,0.0,0.0,0.0,0.0,0.0,0.0,0.0,0.0,0.0,0.0,0.0,0.0,0.0,0.0,0.0,0.0,0.0,0.0,0.0,0.0,0.0,0.0,0.0,0.0,0.0,0.0,0.0,0.0,0.0,0.0,0.0,0.0,0.0,0.0,0.0,0.0,0.0,0.0,0.0,0.0,0.0,0.0,0.0,0.0,0.0,0.0,0.0,0.0,0.0,0.0,0.0,0.0,0.0,0.0,0.0,0.0,0.0,0.0,0.0,0.0,0.0,0.0,0.0,0.0,0.0,0.0,0.0,0.0,0.0,0.0,0.0,0.0,0.0,0.0,0.0,0.0,0.0,0.0,0.0,0.0,0.0,0.0,0.0,0.0,0.0,0.0,0.0,0.0,0.0,0.0,0.0,0.0,0.0,0.0,0.0,0.0,0.0,0.0,0.0,0.0,0.0,0.0,0.0,0.0,0.0,0.0,0.0,0.0,0.0,0.0,0.0,0.0,0.0,0.0,0.0,0.0,0.0,0.0,0.0,0.0,0.0,0.0,0.0,0.0,0.0,0.0,0.0,0.0,0.0,0.0,0.0,0.0,0.0,0.0,0.0,0.0,0.0,0.0,0.0,0.0,0.0,0.0,0.0,2.5512,0.0,0.0,0.0,0.0,0.0,0.0,0.0,0.0,0.0,0.0,0.0,0.0,0.0,0.0,0.0,0.0,0.0,0.0,0.0,0.0,0.0,0.0,0.0,0.0,0.0,0.0,0.0,0.0,0.0,0.0,0.0,0.0,0.0,0.0,0.0,0.0,0.0,0.0,0.0,0.0,0.0,0.0,0.0,0.0,0.0,0.0,0.0,0.0,0.0,0.0,0.0,0.0,0.0,0.0,0.0,0.0,0.0,0.0,0.0,0.0,0.0,0.0,0.0,0.0,0.0,0.0,0.0,0.0,0.0,0.0,0.0,0.0,0.0,0.0,0.0,0.0,0.0,0.0,0.0,0.0,0.0,0.0,0.0,0.0,0.0,0.0,0.0,0.0,0.0,0.0,0.0,0.0,0.0,0.0,0.0,0.0,0.0,0.0,0.0,0.0,0.0,0.0,0.0,0.0,0.0,0.0,0.0,0.0,0.0,0.0,2.6514,2.6756,2.6117,2.5414,2.4675,0.0,0.0,0.0,0.0,0.0,0.0,0.0,0.0,0.0,0.0,0.0,0.0,0.0,0.0,0.0,0.0,0.0,0.0,0.0,0.0,0.0,0.0,0.0,0.0,0.0,0.0,0.0,0.0,0.0,0.0,0.0,0.0,0.0,0.0,0.0,0.0,0.0,0.0,0.0,0.0,0.0,0.0,0.0,0.0,0.0,0.0,0.0,0.0,0.0,0.0,0.0,0.0,0.0,0.0,0.0,0.0,0.0,0.0,0.0,0.0,0.0,0.0,0.0,0.0,0.0,0.0,0.0,0.0,0.0,0.0,0.0,0.0,0.0,0.0,0.0,0.0,0.0,0.0,0.0,0.0,0.0,0.0,0.0,0.0,0.0,0.0,0.0,0.0,0.0,0.0,0.0,0.0,0.0,0.0,0.0,0.0,0.0,0.0,0.0,0.0,0.0,0.0,0.0,0.0,0.0,0.0,0.0,0.0,0.0,0.0,0.0,0.0,2.6075,2.541,2.4249,0.0,0.0,0.0,0.0,0.0,0.0,0.0,0.0,0.0,0.0,0.0,0.0,0.0,0.0,0.0,0.0,0.0,0.0,0.0,0.0,0.0,0.0,0.0,0.0,0.0,0.0,0.0,0.0,0.0,0.0,0.0,0.0,0.0,0.0,0.0,0.0,0.0,0.0,0.0,0.0,0.0,0.0,0.0,0.0,0.0,0.0,0.0,0.0,0.0,0.0,0.0,0.0,0.0,0.0,0.0,0.0,0.0,0.0,0.0,0.0,0.0,0.0,0.0,0.0,0.0,0.0,0.0,0.0,0.0,0.0,0.0,0.0,0.0,0.0,0.0,0.0,0.0,0.0,0.0,0.0,0.0,0.0,0.0,0.0,0.0,0.0,0.0,0.0,0.0,0.0,0.0,0.0,0.0,0.0,0.0,0.0,0.0,0.0,0.0,0.0,0.0,0.0,0.0,0.0,0.0,0.0,0.0,0.0,0.0,0.0,2.6856,2.6487,2.7281,0.0,2.4974,0.0,0.0,0.0,0.0,0.0,0.0,0.0,0.0,0.0,0.0,0.0,0.0,0.0,0.0,0.0,0.0,0.0,0.0,0.0,0.0,0.0,0.0,0.0,0.0,0.0,0.0,0.0,0.0,0.0,0.0,0.0,0.0,0.0,0.0,0.0,0.0,0.0,0.0,0.0,0.0,0.0,0.0,0.0,0.0,0.0,0.0,0.0,0.0,0.0,0.0,0.0,0.0,0.0,0.0,0.0,0.0,0.0,0.0,0.0,0.0,0.0,0.0,0.0,0.0,0.0,0.0,0.0,0.0,0.0,0.0,0.0,0.0,0.0,0.0,0.0,0.0,0.0,0.0,0.0,0.0,0.0,0.0,0.0,0.0,0.0,0.0,0.0,0.0,0.0,0.0,0.0,0.0,0.0,0.0,0.0,0.0,0.0,0.0,0.0,0.0,0.0,0.0,0.0,0.0,0.0,0.0,0.0,0.0,0.0,0.0,2.632,2.6208,2.6203,2.557,0.0,0.0,0.0,0.0,0.0,0.0,0.0,0.0,0.0,0.0,0.0,0.0,0.0,0.0,0.0,0.0,0.0,0.0,0.0,0.0,0.0,0.0,0.0,0.0,0.0,0.0,0.0,0.0,0.0,0.0,0.0,0.0,0.0,0.0,0.0,0.0,0.0,0.0,0.0,0.0,0.0,0.0,0.0,0.0,0.0,0.0,0.0,0.0,0.0,0.0,0.0,0.0,0.0,0.0,0.0,0.0,0.0,0.0,0.0,0.0,0.0,0.0,0.0,0.0,0.0,0.0,0.0,0.0,0.0,0.0,0.0,0.0,0.0,0.0,0.0,0.0,0.0,0.0,0.0,0.0,0.0,0.0,0.0,0.0,0.0,0.0,0.0,0.0,0.0,0.0,0.0,0.0,0.0,0.0,0.0,0.0,0.0,0.0,0.0,0.0,0.0,0.0,0.0,0.0,0.0,0.0,0.0,0.0,0.0,0.0,2.511,0.0,2.6253,2.5491,2.4671,2.3818,0.0,0.0,0.0,0.0,0.0,0.0,0.0,0.0,0.0,0.0,0.0,0.0,0.0,0.0,0.0,0.0,0.0,0.0,0.0,0.0,0.0,0.0,0.0,0.0,0.0,0.0,0.0,0.0,0.0,0.0,0.0,0.0,0.0,0.0,0.0,0.0,0.0,0.0,0.0,0.0,0.0,0.0,0.0,0.0,0.0,0.0,0.0,0.0,0.0,0.0,0.0,0.0,0.0,0.0,0.0,0.0,0.0,0.0,0.0,0.0,0.0,0.0,0.0,0.0,0.0,0.0,0.0,0.0,0.0,0.0,0.0,0.0,0.0,0.0,0.0,0.0,0.0,0.0,0.0,0.0,0.0,0.0,0.0,0.0,0.0,0.0,0.0,0.0,0.0,0.0,0.0,0.0,0.0,0.0,0.0,0.0,0.0,0.0,0.0,0.0,0.0,0.0,0.0,0.0,0.0,0.0,0.0,0.0,0.0,2.4931,2.5392,2.6995,2.6129,2.4875,0.0,0.0,0.0,0.0,0.0,0.0,0.0,0.0,0.0,0.0,0.0,0.0,0.0,0.0,0.0,0.0,0.0,0.0,0.0,0.0,0.0,0.0,0.0,0.0,0.0,0.0,0.0,0.0,0.0,0.0,0.0,0.0,0.0,0.0,0.0,0.0,0.0,0.0,0.0,0.0,0.0,0.0,0.0,0.0,0.0,0.0,0.0,0.0,0.0,0.0,0.0,0.0,0.0,0.0,0.0,0.0,0.0,0.0,0.0,0.0,0.0,0.0,0.0,0.0,0.0,0.0,0.0,0.0,0.0,0.0,0.0,0.0,0.0,0.0,0.0,0.0,0.0,0.0,0.0,0.0,0.0,0.0,0.0,0.0,0.0,0.0,0.0,0.0,0.0,0.0,0.0,0.0,0.0,0.0,0.0,0.0,0.0,0.0,0.0,0.0,0.0,0.0,0.0,0.0,0.0,0.0,0.0,0.0,0.0,2.2865,2.324,2.434,2.6204,2.4716,2.3761,0.0,0.0,0.0,0.0,0.0,0.0,0.0,0.0,0.0,0.0,0.0,0.0,0.0,0.0,0.0,0.0,0.0,0.0,0.0,0.0,0.0,0.0,0.0,0.0,0.0,0.0,0.0,0.0,0.0,0.0,0.0,0.0,0.0,0.0,0.0,0.0,0.0,0.0,0.0,0.0,0.0,0.0,0.0,0.0,0.0,0.0,0.0,0.0,0.0,0.0,0.0,0.0,0.0,0.0,0.0,0.0,0.0,0.0,0.0,0.0,0.0,0.0,0.0,0.0,0.0,0.0,0.0,0.0,0.0,0.0,0.0,0.0,0.0,0.0,0.0,0.0,0.0,0.0,0.0,0.0,0.0,0.0,0.0,0.0,0.0,0.0,0.0,0.0,0.0,0.0,0.0,0.0,0.0,0.0,0.0,0.0,0.0,0.0,0.0,0.0,0.0,0.0,0.0,0.0,0.0,0.0,0.0,0.0,0.0,2.2194,0.0,2.4234,0.0,2.3871,2.2954,0.0,0.0,0.0,0.0,0.0,0.0,0.0,0.0,0.0,0.0,0.0,0.0,0.0,0.0,0.0,0.0,0.0,0.0,0.0,0.0,0.0,0.0,0.0,0.0,0.0,0.0,0.0,0.0,0.0,0.0,0.0,0.0,0.0,0.0,0.0,0.0,0.0,0.0,0.0,0.0,0.0,0.0,0.0,0.0,0.0,0.0,0.0,0.0,0.0,0.0,0.0,0.0,0.0,0.0,0.0,0.0,0.0,0.0,0.0,0.0,0.0,0.0,0.0,0.0,0.0,0.0,0.0,0.0,0.0,0.0,0.0,0.0,0.0,0.0,0.0,0.0,0.0,0.0,0.0,0.0,0.0,0.0,0.0,0.0,0.0,0.0,0.0,0.0,0.0,0.0,0.0,0.0,0.0,0.0,0.0,0.0,0.0,0.0,0.0,0.0,0.0,0.0,0.0,0.0,0.0,0.0,0.0,0.0,2.216,2.3917,2.4837,2.4792,2.412,2.3728,2.2515,0.0,0.0,0.0,0.0,0.0,0.0,0.0,0.0,0.0,0.0,0.0,0.0,0.0,0.0,0.0,0.0,0.0,0.0,0.0,0.0,0.0,0.0,0.0,0.0,0.0,0.0,0.0,0.0,0.0,0.0,0.0,0.0,0.0,0.0,0.0,0.0,0.0,0.0,0.0,0.0,0.0,0.0,0.0,0.0,0.0,0.0,0.0,0.0,0.0,0.0,0.0,0.0,0.0,0.0,0.0,0.0,0.0,0.0,0.0,0.0,0.0,0.0,0.0,0.0,0.0,0.0,0.0,0.0,0.0,0.0,0.0,0.0,0.0,0.0,0.0,0.0,0.0,0.0,0.0,0.0,0.0,0.0,0.0,0.0,0.0,0.0,0.0,0.0,0.0,0.0,0.0,0.0,0.0,0.0,0.0,0.0,0.0,0.0,0.0,0.0,0.0,0.0,0.0,0.0,0.0,0.0,0.0,0.0,0.0,2.1594,2.1841,2.2435,2.323,2.16,2.0889,0.0,0.0,0.0,0.0,0.0,0.0,0.0,0.0,0.0,0.0,0.0,0.0,0.0,0.0,0.0,0.0,0.0,0.0,0.0,0.0,0.0,0.0,0.0,0.0,0.0,0.0,0.0,0.0,0.0,0.0,0.0,0.0,0.0,0.0,0.0,0.0,0.0,0.0,0.0,0.0,0.0,0.0,0.0,0.0,0.0,0.0,0.0,0.0,0.0,0.0,0.0,0.0,0.0,0.0,0.0,0.0,0.0,0.0,0.0,0.0,0.0,0.0,0.0,0.0,0.0,0.0,0.0,0.0,0.0,0.0,0.0,0.0,0.0,0.0,0.0,0.0,0.0,0.0,0.0,0.0,0.0,0.0,0.0,0.0,0.0,0.0,0.0,0.0,0.0,0.0,0.0,0.0,0.0,0.0,0.0,0.0,0.0,0.0,0.0,0.0,0.0,0.0,0.0,0.0,0.0,0.0,0.0,0.0,0.0,2.0385,2.1355,2.2066,2.2415,2.0973,2.037,2.0784,0.0,0.0,0.0,0.0,0.0,0.0,0.0,0.0,0.0,0.0,0.0,0.0,0.0,0.0,0.0,0.0,0.0,0.0,0.0,0.0,0.0,0.0,0.0,0.0,0.0,0.0,0.0,0.0,0.0,0.0,0.0,0.0,0.0,0.0,0.0,0.0,0.0,0.0,0.0,0.0,0.0,0.0,0.0,0.0,0.0,0.0,0.0,0.0,0.0,0.0,0.0,0.0,0.0,0.0,0.0,0.0,0.0,0.0,0.0,0.0,0.0,0.0,0.0,0.0,0.0,0.0,0.0,0.0,0.0,0.0,0.0,0.0,0.0,0.0,0.0,0.0,0.0,0.0,0.0,0.0,0.0,0.0,0.0,0.0,0.0,0.0,0.0,0.0,0.0,0.0,0.0,0.0,0.0,0.0,0.0,0.0,0.0,0.0,0.0,0.0,0.0,0.0,0.0,0.0,0.0,0.0,0.0,0.0,2.0025,2.2793,2.3327,2.1545,2.1328,2.0726,0.0,0.0,0.0,0.0,0.0,0.0,0.0,0.0,0.0,0.0,0.0,0.0,0.0,0.0,0.0,0.0,0.0,0.0,0.0,0.0,0.0,0.0,0.0,0.0,0.0,0.0,0.0,0.0,0.0,0.0,0.0,0.0,0.0,0.0,0.0,0.0,0.0,0.0,0.0,0.0,0.0,0.0,0.0,0.0,0.0,0.0,0.0,0.0,0.0,0.0,0.0,0.0,0.0,0.0,0.0,0.0,0.0,0.0,0.0,0.0,0.0,0.0,0.0,0.0,0.0,0.0,0.0,0.0,0.0,0.0,0.0,0.0,0.0,0.0,0.0,0.0,0.0,0.0,0.0,0.0,0.0,0.0,0.0,0.0,0.0,0.0,0.0,0.0,0.0,0.0,0.0,0.0,0.0,0.0,0.0,0.0,0.0,0.0,0.0,0.0,0.0,0.0,0.0,0.0,0.0,0.0,0.0,0.0,0.0,2.0062,2.1068,2.1377,2.1043,1.9827,1.9456,0.0,0.0,0.0,0.0,0.0,0.0,0.0,0.0,0.0,0.0,0.0,0.0,0.0,0.0,0.0,0.0,0.0,0.0,0.0,0.0,0.0,0.0,0.0,0.0,0.0,0.0,0.0,0.0,0.0,0.0,0.0,0.0,0.0,0.0,0.0,0.0,0.0,0.0,0.0,0.0,0.0,0.0,0.0,0.0,0.0,0.0,0.0,0.0,0.0,0.0,0.0,0.0,0.0,0.0,0.0,0.0,0.0,0.0,0.0,0.0,0.0,0.0,0.0,0.0,0.0,0.0,0.0,0.0,0.0,0.0,0.0,0.0,0.0,0.0,0.0,0.0,0.0,0.0,0.0,0.0,0.0,0.0,0.0,0.0,0.0,0.0,0.0,0.0,0.0,0.0,0.0,0.0,0.0,0.0,0.0,0.0,0.0,0.0,0.0,0.0,0.0,0.0,0.0,0.0,0.0,0.0,0.0,0.0,1.932,1.9658,1.9531,1.9648,1.9994,1.9207,1.8999,0.0,0.0,0.0,0.0,0.0,0.0,0.0,0.0,0.0,0.0,0.0,0.0,0.0,0.0,0.0,0.0,0.0,0.0,0.0,0.0,0.0,0.0,0.0,0.0,0.0,0.0,0.0,0.0,0.0,0.0,0.0,0.0,0.0,0.0,0.0,0.0,0.0,0.0,0.0,0.0,0.0,0.0,0.0,0.0,0.0,0.0,0.0,0.0,0.0,0.0,0.0,0.0,0.0,0.0,0.0,0.0,0.0,0.0,0.0,0.0,0.0,0.0,0.0,0.0,0.0,0.0,0.0,0.0,0.0,0.0,0.0,0.0,0.0,0.0,0.0,0.0,0.0,0.0,0.0,0.0,0.0,0.0,0.0,0.0,0.0,0.0,0.0,0.0,0.0,0.0,0.0,0.0,0.0,0.0,0.0,0.0,0.0,0.0,0.0,0.0,0.0,0.0,0.0,0.0,0.0,0.0,0.0,0.0,1.8932,1.8815,1.8224,1.8139,1.8625,1.9056,1.8932,0.0,0.0,0.0,0.0,0.0,0.0,0.0,0.0,0.0,0.0,0.0,0.0,0.0,0.0,0.0,0.0,0.0,0.0,0.0,0.0,0.0,0.0,0.0,0.0,0.0,0.0,0.0,0.0,0.0,0.0,0.0,0.0,0.0,0.0,0.0,0.0,0.0,0.0,0.0,0.0,0.0,0.0,0.0,0.0,0.0,0.0,0.0,0.0,0.0,0.0,0.0,0.0,0.0,0.0,0.0,0.0,0.0,0.0,0.0,0.0,0.0,0.0,0.0,0.0,0.0,0.0,0.0,0.0,0.0,0.0,0.0,0.0,0.0,0.0,0.0,0.0,0.0,0.0,0.0,0.0,0.0,0.0,0.0,0.0,0.0,0.0,0.0,0.0,0.0,0.0,0.0,0.0,0.0,0.0,0.0,0.0,0.0,0.0,0.0,0.0,0.0,0.0,0.0,0.0,0.0,0.0,0.0,0.0,1.7512,1.7578,1.6989,1.6933,1.7545,1.799,1.8111,0.0,0.0,0.0,0.0,0.0,0.0,0.0,0.0,0.0,0.0,0.0,0.0,0.0,0.0,0.0,0.0,0.0,0.0,0.0,0.0,0.0,0.0,0.0,0.0,0.0,0.0,0.0,0.0,0.0,0.0,0.0,0.0,0.0,0.0,0.0,0.0,0.0,0.0,0.0,0.0,0.0,0.0,0.0,0.0,0.0,0.0,0.0,0.0,1.338,0.0,0.0,0.0,0.0,0.0,0.0,0.0,0.0,0.0,0.0,0.0,0.0,0.0,0.0,0.0,0.0,0.0,0.0,0.0,0.0,0.0,0.0,0.0,0.0,0.0,0.0,0.0,0.0,0.0,0.0,0.0,0.0,0.0,0.0,0.0,0.0,0.0,0.0,0.0,0.0,0.0,0.0,0.0,0.0,0.0,0.0,0.0,0.0,0.0,0.0,0.0,0.0,0.0,0.0,0.0,0.0,0.0,0.0,0.0,1.7115,1.68,1.6539,1.6539,1.68,1.7005,1.7306,0.0,0.0,0.0,0.0,0.0,0.0,0.0,0.0,0.0,0.0,0.0,0.0,0.0,0.0,0.0,0.0,0.0,0.0,0.0,0.0,0.0,0.0,0.0,0.0,0.0,0.0,0.0,0.0,0.0,0.0,0.0,0.0,0.0,0.0,0.0,0.0,0.0,0.0,0.0,0.0,0.0,0.0,0.0,0.0,0.0,0.0,0.0,0.0,0.0,0.0,0.0,0.0,0.0,0.0,0.0,0.0,0.0,0.0,0.0,0.0,0.0,0.0,0.0,0.0,0.0,0.0,0.0,0.0,0.0,0.0,0.0,0.0,0.0,0.0,0.0,0.0,0.0,0.0,0.0,0.0,0.0,0.0,0.0,0.0,0.0,0.0,0.0,0.0,0.0,0.0,0.0,0.0,0.0,0.0,0.0,0.0,0.0,0.0,0.0,0.0,0.0,0.0,0.0,0.0,0.0,0.0,0.0,1.702,1.6826,1.6063,1.6026,1.6026,1.6063,1.5968,1.6208,1.6819,0.0,0.0,0.0,0.0,0.0,0.0,0.0,0.0,0.0,0.0,0.0,0.0,0.0,0.0,0.0,0.0,0.0,0.0,0.0,0.0,0.0,0.0,0.0,0.0,0.0,0.0,0.0,0.0,0.0,0.0,0.0,0.0,0.0,0.0,0.0,0.0,0.0,0.0,1.4824,1.4161,0.0,0.0,0.0,0.0,0.0,0.0,0.0,0.0,1.0492,0.0,0.0,0.0,0.0,0.0,0.0,0.0,0.0,0.0,0.0,0.0,0.0,0.0,0.0,0.0,0.0,0.0,0.0,0.0,0.0,0.0,0.0,0.0,0.0,0.0,0.0,0.0,0.0,0.0,0.0,0.0,0.0,0.0,0.0,0.0,0.0,0.0,0.0,0.0,0.0,0.0,0.0,0.0,0.0,0.0,0.0,0.0,0.0,0.0,0.0,0.0,0.0,0.0,0.0,0.0,0.0,1.699,1.5825,1.515,1.4944,1.4076,1.4016,1.4904,1.4451,1.4582,1.5321,0.0,0.0,0.0,0.0,0.0,0.0,0.0,0.0,0.0,0.0,0.0,0.0,0.0,0.0,0.0,0.0,0.0,0.0,0.0,0.0,0.0,0.0,0.0,0.0,0.0,0.0,0.0,0.0,0.0,0.0,0.0,0.0,0.0,0.0,0.0,0.0,0.0,0.0,0.0,1.3348,1.2976,0.0,0.0,0.0,0.0,0.0,0.0,0.0,0.0,0.9449,0.0,0.0,0.0,0.0,0.0,0.0,0.0,0.0,0.0,0.0,0.0,0.0,0.0,0.0,0.0,0.0,0.0,0.0,0.0,0.0,0.0,0.0,0.0,0.0,0.0,0.0,0.0,0.0,0.0,0.0,0.0,0.0,0.0,0.0,0.0,0.0,0.0,0.0,0.0,0.0,0.0,0.0,0.0,0.0,0.0,0.0,0.0,0.0,0.0,0.0,0.0,0.0,0.0,0.0,0.0,1.5847,1.5048,1.4366,1.3837,1.3373,1.3373,1.3777,1.3365,1.3446,0.0,0.0,0.0,0.0,0.0,0.0,0.0,0.0,0.0,0.0,0.0,0.0,0.0,0.0,0.0,0.0,0.0,0.0,0.0,0.0,0.0,0.0,0.0,0.0,0.0,0.0,0.0,0.0,0.0,0.0,0.0,0.0,0.0,0.0,0.0,0.0,0.0,0.0,0.0,0.0,1.2011,1.149,1.0991,0.0,0.0,0.0,0.0,0.0,0.0,0.7041,0.7114,0.0,0.0,0.0,0.0,0.0,0.0,0.0,0.0,0.0,0.0,0.0,0.0,0.0,0.0,0.0,0.0,0.0,0.0,0.0,0.0,0.0,0.0,0.0,0.0,0.0,0.0,0.0,0.0,0.0,0.0,0.0,0.0,0.0,0.0,0.0,0.0,0.0,0.0,0.0,0.0,0.0,0.0,0.0,0.0,0.0,0.0,0.0,0.0,0.0,0.0,0.0,0.0,0.0,0.0,0.0,1.4687,1.4204,1.3508,1.2674,1.2696,1.2728,1.2712,1.2435,1.2569,0.0,0.0,0.0,0.0,0.0,0.0,0.0,0.0,0.0,0.0,0.0,0.0,0.0,0.0,0.0,0.0,0.0,0.0,0.0,0.0,0.0,0.0,0.0,0.0,0.0,0.0,0.0,0.0,0.0,0.0,0.0,0.0,0.0,0.0,0.0,0.0,0.0,0.0,0.0,0.0,0.0,0.9982,0.9165,0.8949,0.0,0.0,0.0,0.0,0.5935,0.5576,0.0,0.0,0.0,0.0,0.0,0.0,0.0,0.0,0.0,0.0,0.0,0.0,0.0,0.0,0.0,0.0,0.0,0.0,0.0,0.0,0.0,0.0,0.0,0.0,0.0,0.0,0.0,0.0,0.0,0.0,0.0,0.0,0.0,0.0,0.0,0.0,0.0,0.0,0.0,0.0,0.0,0.0,0.0,0.0,0.0,0.0,0.0,0.0,0.0,0.0,0.0,0.0,0.0,0.0,0.0,0.0,1.4312,1.2878,1.1882,1.1344,1.1034,1.1181,1.1734,1.1629,1.1911,0.0,0.0,0.0,0.0,0.0,0.0,0.0,0.0,0.0,0.0,0.0,0.0,0.0,0.0,0.0,0.0,0.0,0.0,0.0,0.0,0.0,0.0,0.0,0.0,0.0,0.0,0.0,0.0,0.0,0.0,0.0,0.0,0.0,0.0,0.0,0.0,0.0,0.0,0.0,0.0,0.0,0.8846,0.8093,0.6982,0.6167,0.0,0.0,0.5673,0.6159,0.6359,0.0,0.0,0.0,0.0,0.0,0.0,0.0,0.0,0.0,0.0,0.0,0.0,0.0,0.0,0.0,0.0,0.0,0.0,0.0,0.0,0.0,0.0,0.0,0.0,0.0,0.0,0.0,0.0,0.0,0.0,0.0,0.0,0.0,0.0,0.0,0.0,0.0,0.0,0.0,0.0,0.0,0.0,0.0,0.0,0.0,0.0,0.0,0.0,0.0,0.0,0.0,0.0,0.0,0.0,0.0,1.4348,1.3385,1.2243,1.1515,1.1137,1.0667,1.0607,1.1152,1.0726,1.0948,0.0,0.0,0.0,0.0,0.0,0.0,0.0,0.0,0.0,0.0,0.0,0.0,0.0,0.0,0.0,0.0,0.0,0.0,0.0,0.0,0.0,0.0,0.0,0.0,0.0,0.0,0.0,0.0,0.0,0.0,0.0,0.0,0.0,0.0,0.0,0.0,0.0,0.0,0.0,0.0,0.0,0.0,0.5532,0.5127,0.0,0.0,0.0,0.3272,0.3442,0.0,0.0,0.0,0.0,0.0,0.0,0.0,0.0,0.0,0.0,0.0,0.0,0.0,0.0,0.0,0.0,0.0,0.0,0.0,0.0,0.0,0.0,0.0,0.0,0.0,0.0,0.0,0.0,0.0,0.0,0.0,0.0,0.0,0.0,0.0,0.0,0.0,0.0,0.0,0.0,0.0,0.0,0.0,0.0,0.0,0.0,0.0,0.0,0.0,0.0,0.0,0.0,0.0,0.0,0.0,0.0,0.0,1.252,1.163,1.1019,1.0726,1.0236,1.0149,1.055,0.9995,0.0,0.0,0.0,0.0,0.0,0.0,0.0,0.0,0.0,0.0,0.0,0.0,0.0,0.0,0.0,0.0,0.0,0.0,0.0,0.0,0.0,0.0,0.0,0.0,0.0,0.0,0.0,1.0744,0.0,0.0,0.0,0.0,0.0,0.0,0.0,0.0,0.0,0.0,0.0,0.0,0.0,0.0,0.586,0.3536,0.3434,0.3142,0.0,0.0,0.1421,0.1389,0.1169,0.0938,0.0,0.0,0.0,0.0,0.0,0.0,0.0,0.0,0.0,0.0,0.0,0.0,0.0,0.0,0.0,0.0,0.0,0.0,0.0,0.0,0.0,0.0,0.0,0.0,0.0,0.0,0.0,0.0,0.0,0.0,0.0,0.0,0.0,0.0,0.0,0.0,0.0,0.0,0.0,0.0,0.0,0.0,0.0,0.0,0.0,0.0,0.0,0.0,0.0,0.0,0.0,0.0,0.0,0.0,0.0,1.204,1.0715,0.9784,0.9351,0.9302,0.9397,0.9591,0.964,1.0137,0.0,0.0,0.0,0.0,0.0,0.0,0.0,0.0,0.0,0.0,0.0,0.0,0.0,0.0,0.0,0.0,0.0,0.0,0.0,0.0,0.0,0.0,0.0,0.0,0.0,0.0,0.0,0.0,0.0,0.0,0.0,0.0,0.0,0.0,0.0,0.0,0.0,0.0,0.0,0.0,0.0,0.3884,0.303,0.204,0.1445,0.0,0.0,0.0928,0.1592,0.1388,0.1241,0.0985,0.0,0.0,0.0,0.0,0.0,0.0,0.0,0.0,0.0,0.0,0.0,0.0,0.0,0.0,0.0,0.0,0.0,0.0,0.0,0.0,0.0,0.0,0.0,0.0,0.0,0.0,0.0,0.0,0.0,0.0,0.0,0.0,0.0,0.0,0.0,0.0,0.0,0.0,0.0,0.0,0.0,0.0,0.0,0.0,0.0,0.0,0.0,0.0,0.0,0.0,0.0,0.0,0.0,1.2146,1.0672,0.9883,0.9258,0.8783,0.8354,0.8404,0.8899,0.8792,0.933,0.0,0.0,0.0,0.0,0.0,0.0,0.0,0.0,0.0,0.0,0.0,0.0,0.0,0.0,0.0,0.0,0.0,0.0,0.0,0.0,0.0,0.0,0.0,0.0,0.0,0.0,0.0,0.0,0.8841,0.869,0.841,0.0,0.0,0.0,0.0,0.0,0.0,0.0,0.0,0.0,0.0,0.2275,0.1167,0.0636,0.0,0.0,-0.0881,-0.1276,-0.1497,-0.1271,-0.119,-0.1624,-0.1641,0.0,0.0,0.0,0.0,0.0,0.0,0.0,0.0,0.0,0.0,0.0,0.0,0.0,0.0,0.0,0.0,0.0,0.0,0.0,0.0,0.0,0.0,0.0,0.0,0.0,0.0,0.0,0.0,0.0,0.0,0.0,0.0,0.0,0.0,0.0,0.0,0.0,0.0,0.0,0.0,0.0,0.0,0.0,0.0,0.0,0.0,0.0,0.0,0.0,0.0,0.0,0.0,1.1513,0.976,0.9219,0.8685,0.8201,0.7781,0.7703,0.8098,0.8287,0.8829,0.0,0.0,0.0,0.0,0.0,0.0,0.0,0.0,0.0,0.0,0.0,0.0,0.0,0.0,0.0,0.0,0.0,0.0,0.0,0.0,0.0,0.0,0.0,0.0,0.0,0.0,0.0,0.0,0.781,0.76,0.7499,0.0,0.0,0.0,0.0,0.0,0.0,0.0,0.0,0.0,0.0,0.0736,-0.0473,-0.0716,-0.1208,-0.2351,-0.2437,-0.2759,-0.3887,-0.3668,-0.3575,-0.4121,0.0,0.0,0.0,0.0,0.0,0.0,0.0,0.0,0.0,0.0,0.0,0.0,0.0,0.0,0.0,0.0,0.0,0.0,0.0,0.0,0.0,0.0,0.0,0.0,0.0,0.0,0.0,1.724,0.0,0.0,1.7282,0.0,0.0,0.0,0.0,0.0,0.0,0.0,0.0,0.0,0.0,0.0,0.0,0.0,0.0,0.0,0.0,0.0,0.0,0.0,0.0,0.0,0.0,1.1004,0.9614,0.8563,0.7846,0.7526,0.758,0.7526,0.7365,0.8263,0.888,0.9015,0.0,0.0,0.0,0.0,0.0,0.0,0.0,0.0,0.0,0.0,0.0,0.0,0.0,0.0,0.0,0.0,0.0,0.0,0.0,0.0,0.0,0.0,0.0,0.0,0.0,0.0,0.6921,0.5873,0.5289,0.0,0.0,0.0,0.0,0.0,0.0,0.0,0.0,0.0,0.0,-0.0552,-0.0887,-0.1497,-0.1883,-0.2534,-0.3557,-0.3086,-0.3248,-0.4859,-0.511,-0.5388,0.0,0.0,0.0,0.0,0.0,0.0,0.0,0.0,0.0,0.0,0.0,0.0,0.0,0.0,0.0,0.0,0.0,0.0,0.0,0.0,0.0,0.0,0.0,0.0,0.0,0.0,0.0,1.7312,1.7113,0.0,0.0,0.0,0.0,0.0,0.0,0.0,0.0,0.0,0.0,0.0,1.5531,1.593,0.0,0.0,0.0,0.0,0.0,0.0,0.0,0.0,0.0,0.0,0.0,0.0,1.0037,0.8812,0.8028,0.727,0.6554,0.65,0.6598,0.6804,0.6975,0.7529,0.8474,0.0,0.0,0.0,0.0,0.0,0.0,0.0,0.0,0.0,0.0,0.0,0.0,0.0,0.0,0.0,0.0,0.0,0.0,0.0,0.0,0.0,0.0,0.0,0.0,0.0,0.7295,0.0,0.0,0.0,0.0,0.0,0.0,0.0,0.0,0.0,0.0,0.0,-0.0,-0.0569,-0.1807,-0.2646,-0.2788,-0.3553,-0.4376,0.0,0.0,0.0,0.0,0.0,0.0,0.0,0.0,0.0,0.0,0.0,0.0,0.0,0.0,-0.9025,-0.8826,-0.8774,-0.8818,-0.9214,0.0,0.0,0.0,0.0,0.0,0.0,0.0,0.0,0.0,0.0,0.0,0.0,0.0,0.0,1.6304,0.0,1.6407,0.0,0.0,0.0,0.0,0.0,0.0,0.0,0.0,1.5,1.4734,1.4392,1.4731,1.4994,0.0,1.5013,1.5256,0.0,0.0,0.0,0.0,0.0,0.0,0.0,0.0,0.9356,0.8017,0.7357,0.6672,0.5961,0.5771,0.59,0.6273,0.6484,0.7115,0.811,0.8715,0.8882,0.0,0.0,0.0,0.0,0.0,0.0,0.0,0.0,0.0,0.0,0.0,0.0,0.0,0.0,0.0,0.0,0.0,0.0,0.0,0.0,0.0,0.0,0.0,0.591,0.0,0.0,0.0,0.0,0.0,0.0,0.0,0.0,0.0,0.008,-0.0755,-0.155,-0.1955,-0.3306,-0.4311,-0.4356,0.0,0.0,0.0,0.0,0.0,0.0,0.0,-0.8443,-0.9904,-0.9777,-0.975,-1.0213,-1.0435,-1.0733,-1.1342,0.0,0.0,-1.0631,-1.0425,-1.0575,-1.1076,-1.1663,-1.2292,-1.2721,-1.3379,-1.3937,0.0,0.0,0.0,0.0,0.0,0.0,0.0,0.0,1.4297,1.4468,0.0,1.4393,0.0,0.0,0.0,0.0,0.0,1.4496,0.0,0.0,1.3339,1.3285,1.3241,1.3655,1.3944,1.4296,1.4765,1.5002,1.49,1.4692,0.0,0.0,0.0,0.0,0.0,0.0,0.8896,0.726,0.668,0.6223,0.5793,0.5497,0.5399,0.5626,0.6809,0.7652,0.7999,0.8422,0.8722,0.8843,0.8873,0.0,0.0,0.0,0.0,0.0,0.0,0.0,0.0,0.0,0.0,0.0,0.0,0.0,0.0,0.0,0.0,0.0,0.0,0.0,0.0,0.4743,0.0,0.0,0.0,0.0,0.0,0.0,0.0,0.0,0.0,0.0,-0.1175,-0.1625,-0.2598,-0.4074,0.0,0.0,0.0,0.0,-0.6993,-0.8005,-0.7765,-0.8076,-0.9643,-0.9932,-1.0202,-1.1003,0.0,0.0,-1.2538,-1.2289,-1.2287,-1.2919,-1.3481,-1.363,-1.2619,-1.2194,-1.2057,-1.2631,-1.3647,-1.4507,-1.489,-1.5896,-1.6807,1.0884,0.0,0.0,0.0,0.0,1.4047,1.3944,1.395,1.4309,1.4337,1.4183,1.4362,0.0,0.0,0.0,0.0,0.0,0.0,1.3278,1.3223,1.29,1.2505,1.201,1.2058,1.1924,1.1614,1.1833,1.1902,1.2022,1.1819,1.2232,1.328,0.0,0.0,0.0,0.0,0.7963,0.7552,0.6821,0.6233,0.5793,0.5441,0.5354,0.5399,0.6407,0.6892,0.6904,0.7336,0.7693,0.8038,0.813,0.0,0.0,0.0,0.0,0.0,0.0,0.0,0.0,0.0,0.0,0.0,0.0,0.0,0.0,0.0,0.0,0.0,0.0,0.0,0.4088,0.3215,0.2354,0.0,0.0,0.0,0.0,0.0,0.0,0.0,0.0,0.0,-0.3945,-0.4367,-0.4752,0.0,0.0,-0.6806,-0.702,-0.7774,-0.8514,-0.9311,-0.9338,0.0,-1.0712,-1.0953,-1.1295,-1.2361,-1.3356,-1.4099,-1.4361,-1.4401,-1.4643,-1.4946,-1.5366,-1.5592,-1.546,-1.5013,-1.4741,-1.5106,-1.5591,-1.606,-1.6355,-1.7095,-1.7777,0.9217,1.1195,1.1803,1.2419,1.2853,1.2608,1.2711,1.2906,1.3165,1.3307,1.3353,1.3534,1.3181,1.2592,1.2743,0.0,0.0,0.0,1.1921,1.179,1.1482,1.1104,1.073,1.0639,1.0459,1.03,1.022,1.0353,1.0538,1.0325,1.0716,1.1721,0.0,0.0,0.9432,0.8321,0.7511,0.7203,0.6696,0.6237,0.5951,0.5619,0.5408,0.5319,0.616,0.651,0.6361,0.6842,0.7159,0.719,0.7377,0.7544,0.0,0.0,0.0,0.0,0.0,0.0,0.0,0.0,0.0,0.0,0.0,0.8609,0.8096,0.0,0.0,0.0,0.4779,0.377,0.2424,0.1936,0.0,0.0,0.0,0.0,0.0,0.0,0.0,-0.5276,-0.5328,-0.5431,-0.6127,-0.6637,-0.6838,-0.6399,-0.7339,-0.8123,-0.8209,0.0,-0.9628,-1.0019,-1.0472,-1.084,-1.1543,-1.1783,-1.235,-1.3341,-1.4023,-1.4754,-1.5153,-1.5512,-1.5699,-1.5822,-1.6233,-1.6495,-1.6608,-1.651,-1.6386,-1.6494,-1.6777,-1.7153,-1.734,-1.79,-1.8272,0.795,0.8548,0.8938,0.963,1.0431,1.0417,1.0816,1.1495,1.137,1.171,1.2417,1.2096,1.2124,1.2318,1.2081,0.0,1.1642,1.1009,1.0346,0.96,0.9539,0.9408,0.9384,0.9396,0.9515,0.9753,0.962,0.9682,0.9915,0.9661,0.941,0.9309,0.9399,0.8869,0.7792,0.7827,0.7381,0.6416,0.639,0.6354,0.6203,0.5815,0.5526,0.5352,0.6069,0.637,0.6173,0.6803,0.6892,0.6415,0.6617,0.6589,0.6298,0.0,0.0,0.0,0.0,0.0,0.0,0.0,0.0,0.0,0.0,0.0,0.0,0.0,0.0,0.0,0.2907,0.0,0.0954,0.0824,0.0,0.0,0.0,-0.1265,-0.2299,-0.3353,-0.4433,-0.5399,0.0,0.0,-0.7591,-0.84,-0.8664,-0.7775,-0.8648,-0.9437,-0.9602,-0.9941,-1.0289,-1.0376,-1.1068,-1.176,-1.2037,-1.2503,-1.3093,-1.3938,-1.4222,-1.4709,-1.5399,-1.579,-1.5872,-1.5994,-1.636,-1.6767,-1.6739,-1.7116,-1.7276,-1.7167,-1.7448,-1.7714,-1.8087,-1.8396,-1.8706,0.646,0.7087,0.6993,0.8121,0.9997,0.9797,0.9776,1.0102,1.0688,1.1224,1.1806,1.1591,1.1315,1.0997,1.0936,1.0827,1.0754,1.0432,1.0055,0.9719,0.9344,0.8931,0.8495,0.8431,0.8203,0.7871,0.7961,0.8001,0.7981,0.7855,0.7757,0.7573,0.7482,0.7518,0.7652,0.7064,0.6679,0.6424,0.6375,0.6359,0.6346,0.5998,0.5715,0.5619,0.6371,0.6397,0.5654,0.6371,0.6642,0.6213,0.6062,0.6224,0.6625,0.6564,0.0,0.0,0.0,0.0,0.0,0.0,0.0,0.0,0.0,0.6449,0.5966,0.0,0.496,0.0,0.1664,0.0698,0.0158,0.008,0.0,0.0,-0.211,-0.2895,-0.3732,-0.4572,-0.5857,-0.7906,-0.7849,-0.802,-0.9016,-0.9383,-0.9571,-0.9383,-0.9438,-0.9515,-0.9602,-1.0038,-1.0463,-1.0809,-1.1154,-1.1521,-1.2065,-1.2815,-1.3787,-1.4974,-1.5158,-1.5373,-1.5629,-1.6128,-1.6566,-1.676,-1.7246,-1.7581,-1.7735,-1.7912,-1.7983,-1.7882,-1.7807,-1.7807,-1.8272,-1.8941,-1.9523,0.56,0.6403,0.6158,0.7161,0.8836,0.8714,0.8764,0.8974,0.9567,1.0137,1.0633,1.0568,1.0594,1.0443,0.9906,0.9841,1.0056,0.9595,0.928,0.9132,0.8842,0.846,0.8135,0.7798,0.7604,0.7478,0.7242,0.7155,0.7224,0.7178,0.7004,0.6829,0.6761,0.6865,0.7073,0.6613,0.6482,0.6613,0.6482,0.6433,0.6398,0.6154,0.6094,0.6213,0.6497,0.641,0.5942,0.6528,0.6634,0.6245,0.6304,0.6358,0.6265,0.6309,0.6478,0.0,0.0,0.0,0.0,0.0,0.0,0.0,0.0,0.0,0.0,0.0,0.3467,0.1354,0.0551,-0.0163,-0.0823,-0.1008,-0.1459,-0.2459,-0.3251,-0.4058,-0.4821,-0.5625,-0.67,-0.8136,-0.8356,-0.8713,-0.9534,-0.9903,-1.0092,-1.0182,-0.9995,-0.9951,-0.9951,-1.0212,-1.0636,-1.1068,-1.1413,-1.1899,-1.2522,-1.335,-1.4259,-1.5097,-1.536,-1.5642,-1.594,-1.6348,-1.6759,-1.706,-1.7476,-1.7823,-1.7948,-1.8228,-1.8419,-1.8675,-1.88,-1.8942,-1.9098,-1.9825,-2.045,0.4991,0.6065,0.5825,0.6402,0.7422,0.7565,0.7822,0.8274,0.8439,0.8922,0.9482,0.9543,0.9809,1.0218,0.916,0.9008,0.9453,0.8748,0.8429,0.8392,0.8131,0.8037,0.8009,0.7433,0.7371,0.7664,0.7048,0.6825,0.7158,0.7048,0.6903,0.6733,0.6717,0.6619,0.6523,0.6448,0.6573,0.6819,0.6613,0.6539,0.6441,0.6476,0.6599,0.6864,0.6702,0.6587,0.6634,0.6944,0.6973,0.6546,0.6932,0.6733,0.5762,0.6285,0.6527,0.0,0.6307,0.0,0.0,0.0,0.0,0.0,0.0,0.0,0.0,0.3249,0.1574,-0.0153,-0.0489,-0.1016,-0.1865,-0.2193,-0.278,-0.3667,-0.4291,-0.4999,-0.5797,-0.6688,-0.7408,-0.7694,-0.8649,-0.9306,-0.9677,-1.003,-1.04,-1.0532,-1.0436,-1.0386,-1.0386,-1.0559,-1.0809,-1.1241,-1.1768,-1.2365,-1.3324,-1.3973,-1.4507,-1.4929,-1.5363,-1.5629,-1.613,-1.655,-1.6848,-1.716,-1.761,-1.7908,-1.7943,-1.8483,-1.8938,-1.9415,-2.0054,-2.0361,-2.0115,-2.0566,-2.1281,0.4278,0.5343,0.5092,0.5802,0.7107,0.6929,0.7613,0.8744,0.8786,0.9087,0.9558,0.9218,0.9065,0.8998,0.878,0.878,0.8856,0.8742,0.8562,0.8401,0.8061,0.7879,0.7806,0.7442,0.7229,0.7308,0.7317,0.7236,0.7023,0.7098,0.7082,0.6974,0.6974,0.6954,0.7043,0.0,0.0,0.0,0.6999,0.7177,0.6895,0.7414,0.7441,0.7114,0.7576,0.0,0.7013,0.7552,0.7705,0.7267,0.7288,0.0,0.0,0.0,0.0,0.0,0.0,0.0,0.0,0.0,0.0,0.0,0.3661,0.3266,0.2349,0.1133,-0.0,-0.1077,-0.1381,-0.1949,-0.2828,-0.3206,-0.3757,-0.4914,-0.5802,-0.6422,-0.6871,-0.7672,-0.8432,-0.8845,-0.92,-0.9595,-1.0048,-1.0334,-1.0534,-1.0641,-1.0612,-1.0656,-1.0829,-1.0733,-1.0895,-1.1499,-1.2112,-1.2807,-1.3586,-1.4014,-1.4513,-1.5167,-1.5538,-1.5818,-1.6157,-1.6812,-1.7419,-1.7639,-1.8342,-1.8895,-1.9074,-1.962,-1.9958,-2.0087,-2.0931,-2.1553,-2.1021,-2.1417,-2.1867,0.3939,0.0,0.4876,0.5642,0.0,0.6865,0.7304,0.8213,0.8059,0.8173,0.8457,0.849,0.8475,0.8254,0.8401,0.8475,0.8475,0.8621,0.8548,0.8392,0.807,0.7879,0.7662,0.7128,0.6944,0.7095,0.7057,0.7024,0.7098,0.7269,0.7261,0.709,0.709,0.7023,0.6967,0.7155,0.717,0.7015,0.725,0.7513,0.7863,0.8027,0.8006,0.7918,0.8198,0.0,0.0,0.0,0.0,0.0,0.0,0.0,0.0,0.0,0.0,0.741,0.701,0.6631,0.6161,0.5461,0.4624,0.3622,0.2676,0.1867,0.1273,0.034,-0.0791,-0.2172,-0.2303,-0.2867,-0.4109,-0.4376,-0.5003,-0.6068,-0.6776,-0.7312,-0.776,-0.8296,-0.8722,-0.9165,-0.9618,-1.0027,-1.0389,-1.0852,-1.1029,-1.092,-1.0875,-1.0916,-1.1089,-1.1079,-1.1241,-1.1929,-1.2369,-1.2979,-1.3673,-1.404,-1.4501,-1.5259,-1.5631,-1.5967,-1.6416,-1.7035,-1.7563,-1.8028,-1.8792,-1.9388,-1.9501,-2.0085,-2.0606,-2.0949,-2.179,-2.2374,-2.2201,-2.242,-2.2542,0.3889,0.4749,0.4882,0.5683,0.6819,0.6819,0.7025,0.7334,0.0,0.0,0.0,0.7753,0.7916,0.7861,0.8184,0.8346,0.8346,0.8551,0.8486,0.8318,0.815,0.7852,0.7457,0.6937,0.6801,0.696,0.6741,0.6826,0.7154,0.7374,0.7382,0.7277,0.7343,0.7317,0.7103,0.7719,0.8059,0.801,0.7855,0.8096,0.8779,0.8586,0.861,0.8829,0.87,0.8598,0.8546,0.8854,0.8827,0.8493,0.8561,0.8302,0.7749,0.8042,0.8088,0.7753,0.7642,0.7212,0.6424,0.5637,0.4784,0.3706,0.1934,0.0825,0.0759,-0.0087,-0.1249,-0.2861,-0.3042,-0.3667,-0.527,-0.5625,-0.6163,-0.7231,-0.7584,-0.7937,-0.848,-0.8568,-0.873,-0.9199,-0.9837,-1.0297,-1.0575,-1.1129,-1.1577,-1.1316,-1.1118,-1.1089,-1.1359,-1.1478,-1.1782,-1.2447,-1.2695,-1.3065,-1.3661,-1.4066,-1.4605,-1.5153,-1.5538,-1.6007,-1.6512,-1.7105,-1.7746,-1.8316,-1.9124,-1.961,-1.987,-2.0504,-2.1163,-2.1677,-2.2395,-2.3138,-2.3338,-2.3256,-2.3238,0.409,0.4688,0.5219,0.5881,0.6482,0.6482,0.6572,0.678,0.6873,0.7118,0.7482,0.7398,0.7636,0.8079,0.8318,0.8468,0.8694,0.8694,0.8468,0.8116,0.7924,0.7543,0.7064,0.696,0.6881,0.6746,0.6841,0.7001,0.7212,0.7253,0.7326,0.7507,0.7982,0.8226,0.8343,0.848,0.8947,0.9569,0.98,0.9614,0.9006,0.9694,0.9867,0.9432,0.9291,0.9232,0.9173,0.9406,0.9522,0.948,0.9319,0.9087,0.8762,0.8553,0.8462,0.8253,0.7638,0.6895,0.6033,0.5229,0.427,0.307,0.1486,0.0591,0.0604,-0.0782,-0.1758,-0.2057,-0.3045,-0.4206,-0.527,-0.6251,-0.7143,-0.812,-0.8384,-0.848,-0.8568,-0.8656,-0.8868,-0.946,-0.9722,-1.012,-1.0584,-1.1037,-1.1343,-1.118,-1.1163,-1.1283,-1.1598,-1.1958,-1.2437,-1.2944,-1.3028,-1.3294,-1.3668,-1.4103,-1.4462,-1.4969,-1.5457,-1.5858,-1.6157,-1.7103,-1.794,-1.8557,-1.9506,-2.0285,-2.0857,-2.1508,-2.1912,-2.2315,-2.2902,-2.3338,-2.3655,-2.3655,-2.3655,0.4422,0.5027,0.5359,0.5822,0.6424,0.6424,0.6597,0.6998,0.7043,0.7247,0.7487,0.7803,0.8038,0.8176,0.8543,0.8803,0.8863,0.8803,0.8614,0.8272,0.7669,0.7068,0.6658,0.664,0.666,0.6736,0.7103,0.7531,0.7933,0.8043,0.8272,0.8438,0.8477,0.8558,0.8654,0.8969,0.9243,0.9432,0.9765,0.9985,1.0102,1.009,1.017,1.0325,0.9914,0.9685,0.9867,0.9753,0.9604,0.9276,0.9076,0.8917,0.8816,0.8476,0.8354,0.8403,0.7961,0.7087,0.5848,0.454,0.3545,0.2872,0.1546,0.0583,0.0426,-0.1046,-0.2308,-0.2864,-0.3671,-0.4563,-0.5625,-0.6251,-0.6966,-0.7937,-0.8025,-0.8113,-0.8568,-0.8744,-0.9063,-0.9855,-1.0297,-1.0715,-1.1288,-1.1569,-1.1657,-1.143,-1.1092,-1.1045,-1.1526,-1.1546,-1.1903,-1.271,-1.2765,-1.2904,-1.3389,-1.3528,-1.3914,-1.4534,-1.5171,-1.5599,-1.5923,-1.6787,-1.7804,-1.8338,-1.9491,-2.0512,-2.1151,-2.1725,-2.2232,-2.2636,-2.3038,-2.3456,-2.3854,-2.4053,-2.4053,0.4888,0.5425,0.5557,0.602,0.6548,0.6679,0.7007,0.74,0.7579,0.775,0.7952,0.831,0.841,0.8396,0.8832,0.9062,0.9128,0.8997,0.8809,0.8425,0.7674,0.6998,0.6603,0.6539,0.6696,0.7003,0.7377,0.7922,0.8634,0.8774,0.9038,0.9381,0.9062,0.8938,0.9069,0.9731,0.994,0.9706,1.0053,1.0539,1.0973,1.0466,1.0575,1.1222,1.0647,1.0408,1.0697,1.0219,0.9738,0.9221,0.8918,0.8742,0.8753,0.8403,0.8244,0.838,0.8178,0.7249,0.5544,0.409,0.3084,0.2692,0.1624,0.0748,0.0085,-0.1229,-0.2511,-0.3403,-0.4028,-0.483,-0.5625,-0.6074,-0.6523,-0.7401,-0.7577,-0.7952,-0.8617,-0.889,-0.9293,-1.0001,-1.065,-1.1185,-1.1556,-1.1724,-1.1465,-1.1038,-1.0493,-1.0419,-1.1029,-1.0885,-1.1165,-1.2053,-1.2304,-1.2297,-1.2714,-1.2785,-1.3074,-1.3837,-1.4472,-1.4846,-1.5202,-1.6139,-1.7023,-1.7554,-1.8885,-2.0069,-2.0889,-2.1676,-2.2215,-2.2736,-2.3138,-2.3555,-2.4053,-2.4152,-2.4152,0.5345,0.5477,0.6079,0.6613,0.7138,0.7596,0.7857,0.8007,0.8666,0.9041,0.8985,0.8513,0.8503,0.8716,0.9034,0.9317,0.9535,0.9558,0.9171,0.8534,0.8435,0.7922,0.7202,0.7419,0.7626,0.776,0.7721,0.8225,0.8969,0.8704,0.9042,0.9991,0.9805,0.9963,1.0527,1.1288,1.1616,1.1686,1.2281,1.2077,1.1048,1.1261,1.165,1.2006,1.1935,1.1779,1.1655,1.0898,1.0395,1.0119,0.9437,0.8969,0.8912,0.8609,0.838,0.8399,0.8034,0.7019,0.5246,0.4232,0.3315,0.2356,0.1683,0.0775,-0.0259,-0.1238,-0.2065,-0.278,-0.4032,-0.483,-0.4914,-0.5719,-0.6517,-0.7224,-0.7482,-0.8159,-0.882,-0.9328,-0.9574,-0.9482,-1.0242,-1.0868,-1.0668,-1.0716,-1.0433,-0.9846,-0.9246,-0.9167,-0.9949,-1.0032,-1.026,-1.1384,-1.161,-1.1497,-1.1754,-1.1817,-1.2224,-1.2737,-1.3318,-1.3835,-1.4268,-1.4762,-1.5403,-1.6486,-1.781,-1.9178,-2.0232,-2.1176,-2.2232,-2.2837,-2.3256,-2.3555,-2.4053,-2.4152,-2.4152,0.5947,0.6334,0.6597,0.6999,0.7531,0.7857,0.8117,0.8322,0.8953,0.9332,0.9624,0.948,0.9536,0.9696,0.9858,0.9974,0.9974,0.9776,0.9511,0.9044,0.8518,0.8127,0.802,0.7961,0.8223,0.8679,0.8627,0.9081,0.9835,0.9958,1.046,1.1354,1.1143,1.1293,1.1766,1.2026,1.2165,1.204,1.2109,1.2105,1.2222,1.2107,1.2182,1.2544,1.2641,1.2641,1.2402,1.2037,1.156,1.096,1.0162,0.9625,0.9322,0.8637,0.8178,0.8187,0.7508,0.6541,0.5342,0.457,0.3725,0.2571,0.1878,0.1042,-0.0261,-0.1241,-0.2065,-0.2693,-0.3585,-0.4121,-0.4121,-0.4567,-0.5369,-0.6163,-0.6517,-0.6986,-0.7841,-0.8213,-0.8434,-0.8746,-0.928,-0.9759,-0.9904,-0.9819,-0.9597,-0.92,-0.8822,-0.8738,-0.9418,-0.9348,-0.9405,-0.9871,-1.0094,-1.0499,-1.0953,-1.1094,-1.1362,-1.2138,-1.2823,-1.3318,-1.3534,-1.4196,-1.5005,-1.5419,-1.699,-1.8596,-2.0116,-2.0953,-2.1827,-2.2636,-2.3356,-2.3755,-2.4152,-2.4152,-2.4152,0.6613,0.7129,0.7251,0.7512,0.7857,0.8182,0.8473,0.8745,0.9187,0.9616,0.9971,1.0219,1.0325,1.0384,1.0475,1.0459,1.0321,1.0053,0.9742,0.949,0.8794,0.8534,0.872,0.8596,0.8933,0.9508,0.9685,1.0191,1.1125,1.156,1.207,1.2558,1.2367,1.24,1.2657,1.2738,1.2706,1.2567,1.2419,1.2811,1.3355,1.33,1.3172,1.3264,1.3344,1.3287,1.3149,1.2827,1.2298,1.1598,1.0917,1.0209,0.97,0.8971,0.8416,0.8034,0.735,0.6525,0.5798,0.5178,0.432,0.3059,0.2336,0.1314,0.0088,-0.08,-0.1613,-0.2516,-0.2886,-0.3165,-0.3588,-0.3875,-0.4516,-0.5499,-0.5768,-0.6317,-0.7175,-0.7588,-0.805,-0.8139,-0.8422,-0.8665,-0.896,-0.9018,-0.8863,-0.8636,-0.8365,-0.8394,-0.8898,-0.8901,-0.8864,-0.8906,-0.926,-0.961,-1.0156,-1.0269,-1.056,-1.1327,-1.2083,-1.2575,-1.2921,-1.3831,-1.4424,-1.4731,-1.6273,-1.7493,-1.8658,-1.977,-2.1302,-2.2232,-2.2837,-2.3338,-2.3538,-2.3854,-2.4152,0.7531,0.7727,0.8236,0.8355,0.8236,0.8753,0.9083,0.9432,0.9696,0.9949,1.0145,1.0386,1.0536,1.0541,1.0455,1.0402,1.0435,1.0251,1.0019,0.9726,0.9533,0.9444,0.9388,0.9545,0.9949,1.0587,1.0779,1.1405,1.236,1.3014,1.339,1.3448,1.3201,1.3128,1.3259,1.3519,1.3693,1.3705,1.4088,1.4451,1.4625,1.5029,1.4882,1.4172,1.4087,1.3964,1.3693,1.2883,1.2345,1.2118,1.1527,1.0847,1.0003,0.9706,0.9108,0.8221,0.7992,0.7506,0.6778,0.6057,0.5099,0.3642,0.2826,0.188,0.0447,0.0179,-0.0448,-0.1705,-0.1916,-0.2381,-0.3342,-0.393,-0.4702,-0.543,-0.607,-0.6759,-0.7429,-0.7956,-0.8344,-0.7801,-0.7767,-0.7904,-0.7931,-0.8104,-0.7952,-0.759,-0.7446,-0.7731,-0.825,-0.8547,-0.8947,-0.9251,-0.9372,-0.9204,-0.8879,-0.9345,-0.9923,-1.0692,-1.1434,-1.1747,-1.2381,-1.3014,-1.3456,-1.4129,-1.545,-1.6433,-1.7168,-1.8451,-2.0302,-2.1285,-2.1692,-2.2097,-2.2619,-2.3538,-2.3954,0.7717,0.8107,0.9075,0.9332,0.9128,0.9716,1.0135,1.0334,1.0568,1.084,1.114,1.1269,1.1378,1.1294,1.1171,1.0962,1.0762,1.0816,1.0849,1.0975,1.0748,1.0918,1.143,1.144,1.1686,1.1979,1.212,1.2375,1.2854,1.3301,1.368,1.397,1.397,1.397,1.4129,1.4346,1.4561,1.4673,1.4849,1.5096,1.5632,1.5809,1.5773,1.5548,1.506,1.4471,1.3832,1.3693,1.355,1.3329,1.2812,1.2192,1.1414,1.0199,0.9327,0.8773,0.8371,0.785,0.7105,0.68,0.5824,0.3982,0.3387,0.2419,0.0807,0.0359,-0.0,-0.0811,-0.1097,-0.1472,-0.2116,-0.335,-0.4614,-0.526,-0.5676,-0.6115,-0.6409,-0.6759,-0.6802,-0.6697,-0.684,-0.6958,-0.7051,-0.6964,-0.7045,-0.7015,-0.7137,-0.7556,-0.7963,-0.8499,-0.9,-0.9265,-0.9429,-0.947,-0.9092,-0.9204,-0.9669,-1.0466,-1.1082,-1.1608,-1.2243,-1.2846,-1.3366,-1.3931,-1.4955,-1.5873,-1.6795,-1.8019,-1.9627,-2.0246,-2.0656,-2.1081,-2.1607,-2.2619,-2.312,0.8613,0.9064,0.9907,1.0098,0.9894,1.0351,1.0651,1.085,1.1061,1.1289,1.1519,1.1546,1.1614,1.1655,1.1641,1.156,1.1409,1.1352,1.1558,1.1908,1.17,1.1877,1.2453,1.26,1.2742,1.3027,1.3243,1.3565,1.3862,1.415,1.4474,1.4919,1.4903,1.4991,1.5204,1.5346,1.5559,1.5632,1.5653,1.5843,1.6209,1.646,1.6597,1.6524,1.5945,1.5182,1.4387,1.4479,1.4426,1.4165,1.3803,1.3213,1.2306,1.0603,0.946,0.9294,0.8734,0.8123,0.7606,0.7257,0.6251,0.4291,0.3757,0.2774,0.0986,0.0718,0.0359,-0.018,-0.0368,-0.0467,-0.1218,-0.2576,-0.3868,-0.471,-0.5412,-0.5842,-0.5925,-0.5794,-0.593,-0.6244,-0.6415,-0.6415,-0.6437,-0.6437,-0.6631,-0.6842,-0.7135,-0.7534,-0.8038,-0.8535,-0.8931,-0.9137,-0.9418,-0.9469,-0.9372,-0.9462,-0.9598,-1.0263,-1.0978,-1.1487,-1.2254,-1.284,-1.3324,-1.3887,-1.4601,-1.5505,-1.6516,-1.7738,-1.8485,-1.9109,-1.9524,-1.9849,-2.0672,-2.1591,-2.2097,1.0415,1.0388,1.073,1.0667,1.0514,1.0654,1.0766,1.1021,1.1021,1.1222,1.1465,1.1356,1.1452,1.1397,1.186,1.2101,1.2351,1.2067,1.2054,1.2305,1.2248,1.2374,1.2728,1.2926,1.317,1.3448,1.4243,1.4887,1.5384,1.563,1.5929,1.6123,1.6053,1.6123,1.6524,1.6403,1.6542,1.6594,1.6678,1.6642,1.6312,1.7192,1.7491,1.7209,1.6723,1.6088,1.5405,1.5189,1.4866,1.455,1.4365,1.3678,1.2481,1.0995,0.9969,0.9607,0.8982,0.8552,0.8097,0.7489,0.6517,0.4914,0.4024,0.3042,0.1792,0.1346,0.1077,0.0541,0.0278,-0.0,-0.0858,-0.1761,-0.2681,-0.3537,-0.4975,-0.5843,-0.5828,-0.5767,-0.5841,-0.6252,-0.6377,-0.6431,-0.6437,-0.6437,-0.6637,-0.7036,-0.7335,-0.7733,-0.823,-0.8733,-0.9137,-0.9236,-0.9426,-0.96,-0.9608,-0.9608,-0.9803,-1.0149,-1.0807,-1.151,-1.2362,-1.3019,-1.3487,-1.3997,-1.4382,-1.5186,-1.5825,-1.6829,-1.7147,-1.7674,-1.808,-1.8708,-1.9435,-2.0261,-2.1285,1.0604,1.0577,1.1108,1.1233,1.1108,1.1421,1.1736,1.1984,1.1873,1.201,1.2232,1.2198,1.2292,1.2538,1.2672,1.3131,1.3713,1.347,1.3377,1.3484,1.3379,1.3484,1.3874,1.419,1.4466,1.4816,1.5471,1.5965,1.6245,1.6542,1.6751,1.6733,1.6664,1.6524,1.6455,1.6664,1.6872,1.7166,1.7373,1.7472,1.7639,1.8037,1.8163,1.7979,1.7227,1.6634,1.6305,1.5436,1.4914,1.4794,1.4856,1.4393,1.3269,1.2105,1.108,1.0366,0.9689,0.8999,0.8472,0.7944,0.7136,0.5885,0.4732,0.3667,0.2509,0.1792,0.1346,0.1079,0.1103,0.0938,0.0572,-0.0,-0.1189,-0.2792,-0.4048,-0.5005,-0.5494,-0.5848,-0.6171,-0.6361,-0.6415,-0.6437,-0.6437,-0.6537,-0.6742,-0.6942,-0.7341,-0.7739,-0.8137,-0.8634,-0.9031,-0.9137,-0.9426,-0.9624,-0.9632,-0.9673,-0.9863,-1.025,-1.0842,-1.1559,-1.2417,-1.3162,-1.3646,-1.4073,-1.4363,-1.4815,-1.5458,-1.5885,-1.6217,-1.6643,-1.7265,-1.7779,-1.8199,-1.902,-2.0055,1.1358,1.1344,1.1809,1.1996,1.2042,1.2413,1.2725,1.301,1.2956,1.3178,1.3471,1.3464,1.3689,1.4039,1.4089,1.4493,1.5087,1.4985,1.5001,1.4997,1.4435,1.4561,1.5133,1.5559,1.5912,1.6193,1.6455,1.6664,1.6821,1.7028,1.7148,1.706,1.7217,1.7304,1.7254,1.7662,1.8016,1.8173,1.8537,1.8805,1.8952,1.892,1.8811,1.8606,1.7738,1.7207,1.7076,1.5999,1.5227,1.5034,1.4892,1.4489,1.373,1.2699,1.1843,1.1154,1.0202,0.934,0.8736,0.8201,0.7408,0.6245,0.527,0.4469,0.3489,0.2509,0.1972,0.1977,0.1659,0.1505,0.1336,0.0783,-0.0398,-0.1711,-0.2994,-0.4164,-0.525,-0.5743,-0.6059,-0.6216,-0.6437,-0.6437,-0.6437,-0.6642,-0.6842,-0.6942,-0.754,-0.8038,-0.8329,-0.8726,-0.9031,-0.9335,-0.9434,-0.9632,-0.9632,-0.9805,-1.0004,-1.0492,-1.1012,-1.1813,-1.2651,-1.3254,-1.3762,-1.4126,-1.4396,-1.4708,-1.5244,-1.5577,-1.5897,-1.6217,-1.6643,-1.7067,-1.7582,-1.8094,-1.9034,1.249,1.2674,1.2674,1.292,1.3268,1.3329,1.3562,1.402,1.4003,1.4355,1.4808,1.48,1.5187,1.5625,1.5569,1.5805,1.6296,1.6187,1.6369,1.633,1.5754,1.5488,1.6035,1.6594,1.6941,1.7235,1.7304,1.7304,1.7373,1.7517,1.7392,1.7598,1.8056,1.833,1.8694,1.928,1.9442,1.9573,1.998,2.0012,1.992,1.9565,1.9373,1.9204,1.8247,1.7715,1.7764,1.6707,1.567,1.5115,1.4643,1.4237,1.3646,1.2881,1.2357,1.1929,1.0549,0.9593,0.8982,0.8376,0.7408,0.6251,0.5719,0.5364,0.438,0.3489,0.2956,0.2782,0.2224,0.1708,0.153,0.0785,-0.01,-0.0707,-0.2316,-0.3924,-0.5646,-0.5436,-0.5732,-0.6232,-0.6437,-0.6437,-0.6437,-0.6642,-0.6942,-0.7241,-0.7832,-0.8329,-0.8627,-0.8931,-0.9426,-0.9533,-0.9533,-0.9632,-0.9632,-0.9754,-1.0062,-1.0937,-1.1371,-1.1973,-1.276,-1.3357,-1.3793,-1.4169,-1.4407,-1.4611,-1.4922,-1.5363,-1.5684,-1.6004,-1.6324,-1.6537,-1.7054,-1.7582,-1.8108,1.3588,1.3649,1.3752,1.3812,1.383,1.3914,1.4273,1.4646,1.4664,1.5067,1.5504,1.5578,1.5845,1.6196,1.6233,1.6455,1.68,1.6807,1.6949,1.7148,1.689,1.6664,1.6802,1.701,1.7304,1.7647,1.7959,1.8056,1.8212,1.8665,1.8854,1.8943,1.9364,1.9636,1.9697,2.0041,2.0315,2.0485,1.9947,2.005,2.0194,1.9485,1.9253,1.9501,1.8594,1.8193,1.8276,1.6844,1.5606,1.488,1.4559,1.4139,1.3717,1.3464,1.2942,1.2054,1.1477,1.0443,0.9314,0.8623,0.7929,0.7054,0.6251,0.5542,0.5181,0.438,0.3846,0.3506,0.3029,0.2707,0.2347,0.1258,0.0099,-0.121,-0.2221,-0.2927,-0.3226,-0.4332,-0.5541,-0.6253,-0.6442,-0.6437,-0.6537,-0.6836,-0.7135,-0.7335,-0.7832,-0.8435,-0.8726,-0.9031,-0.9434,-0.9434,-0.9426,-0.9525,-0.9665,-0.9795,-1.034,-1.1353,-1.1831,-1.2134,-1.2802,-1.347,-1.3846,-1.4191,-1.4407,-1.4611,-1.4934,-1.5267,-1.5577,-1.5791,-1.5992,-1.6311,-1.6643,-1.716,-1.7595,1.424,1.4258,1.4585,1.4841,1.4983,1.5087,1.5463,1.5837,1.5957,1.6249,1.6703,1.678,1.7057,1.7426,1.7512,1.7648,1.7881,1.7833,1.7969,1.8056,1.8124,1.792,1.7765,1.7833,1.8203,1.8586,1.8811,1.9206,1.9576,1.9983,2.0226,2.0456,2.0849,2.109,2.1366,2.109,2.1153,2.1225,2.0689,2.0524,2.074,1.9938,1.968,1.9713,1.9046,1.8658,1.8344,1.7553,1.6519,1.5462,1.4643,1.4099,1.3754,1.3678,1.329,1.2338,1.1882,1.1048,0.996,0.8974,0.8257,0.7672,0.6825,0.634,0.5985,0.5359,0.4736,0.4304,0.3744,0.2965,0.1977,0.0776,-0.0398,-0.1411,-0.2019,-0.212,-0.1614,-0.3528,-0.5044,-0.5952,-0.6448,-0.6437,-0.6542,-0.7036,-0.7335,-0.754,-0.8237,-0.8535,-0.8726,-0.913,-0.9335,-0.9434,-0.9426,-0.9525,-0.9721,-0.9851,-1.033,-1.134,-1.2404,-1.2607,-1.3106,-1.365,-1.3867,-1.4191,-1.4396,-1.4504,-1.4934,-1.5256,-1.547,-1.5672,-1.5779,-1.6099,-1.6418,-1.6736,-1.7173,1.4881,1.4917,1.5496,1.5982,1.6364,1.6573,1.6786,1.7282,1.7282,1.765,1.8145,1.8226,1.8389,1.9131,1.8762,1.9044,1.9065,1.8931,1.8998,1.9065,1.9085,1.8906,1.8622,1.9142,1.9578,1.9986,2.0044,2.0504,2.0946,2.1188,2.1463,2.1765,2.2179,2.2684,2.2863,2.2546,2.2107,2.2099,2.1618,2.1466,2.1411,2.0751,2.0272,2.0297,1.9727,1.9202,1.8797,1.8382,1.7738,1.6288,1.4992,1.4212,1.3774,1.371,1.3374,1.2725,1.2028,1.1359,1.05,0.9415,0.8572,0.81,0.7526,0.7136,0.6782,0.6163,0.5542,0.5008,0.4286,0.2981,0.1052,-0.0198,-0.0903,-0.1513,-0.1617,-0.1615,-0.1917,-0.2924,-0.4541,-0.6057,-0.6348,-0.6442,-0.6842,-0.7135,-0.7534,-0.7739,-0.8336,-0.8435,-0.8825,-0.9229,-0.9426,-0.9525,-0.9525,-0.9624,-0.9762,-0.9916,-1.0518,-1.1344,-1.2646,-1.3264,-1.3588,-1.3975,-1.4083,-1.4299,-1.4504,-1.4719,-1.4934,-1.5148,-1.547,-1.5672,-1.5885,-1.6004,-1.6217,-1.6524,-1.6855,1.675,1.675,1.6974,1.7076,1.7096,1.7222,1.7549,1.8002,1.8002,1.8376,1.8837,1.892,1.8961,1.9131,1.9198,1.9131,1.933,1.933,1.9351,1.9462,1.955,1.9649,1.9745,2.035,2.0885,2.1285,2.1596,2.1887,2.2204,2.2399,2.2603,2.2908,2.3299,2.3689,2.3761,2.3519,2.3486,2.3492,2.2586,2.2327,2.2499,2.1458,2.0832,2.0999,2.035,1.9927,1.944,1.8744,1.8221,1.7496,1.6191,1.4851,1.4185,1.3828,1.3434,1.287,1.2395,1.1665,1.0864,1.0178,0.9441,0.862,0.8154,0.7672,0.6877,0.67,0.6169,0.5652,0.5108,0.3465,0.0775,-0.0393,-0.0996,-0.141,-0.1617,-0.1617,-0.1718,-0.2523,-0.4038,-0.5555,-0.6052,-0.6137,-0.6942,-0.6836,-0.7235,-0.7939,-0.8237,-0.8336,-0.8832,-0.9327,-0.9426,-0.9426,-0.9624,-0.9533,-0.9522,-0.9925,-1.0932,-1.1654,-1.2744,-1.364,-1.3975,-1.4191,-1.4191,-1.4407,-1.4611,-1.4826,-1.5041,-1.5363,-1.5684,-1.5779,-1.5885,-1.5992,-1.6217,-1.6418,-1.663,1.826,1.8343,1.868,1.885,1.8786,1.8913,1.9062,1.9276,1.9038,1.9295,1.9683,1.9594,1.9594,1.9791,1.9791,1.9857,1.9922,1.9987,2.0118,2.0357,2.0576,2.093,2.1397,2.1891,2.2321,2.216,2.2154,2.261,2.3233,2.358,2.3835,2.419,2.4376,2.4565,2.4564,2.4154,2.3936,2.3795,2.3032,2.2613,2.2744,2.1977,2.1008,2.0891,2.0353,2.002,1.9706,1.9292,1.8638,1.7997,1.7107,1.5801,1.4738,1.442,1.3885,1.2969,1.2657,1.2071,1.1336,1.0668,1.0015,0.9361,0.8757,0.8097,0.7496,0.7054,0.6529,0.6019,0.5299,0.4032,0.0877,0.0099,-0.05,-0.1409,-0.1617,-0.1617,-0.1718,-0.2322,-0.343,-0.5148,-0.5741,-0.6237,-0.6537,-0.6736,-0.7135,-0.7832,-0.8237,-0.8428,-0.8931,-0.9335,-0.913,-0.9229,-0.9434,-0.9549,-0.9406,-1.0026,-1.123,-1.2065,-1.292,-1.364,-1.4083,-1.4191,-1.4299,-1.4504,-1.4719,-1.4934,-1.5148,-1.5577,-1.5791,-1.5885,-1.5885,-1.5992,-1.6111,-1.6336,-1.6537,1.961,1.9632,2.02,2.042,2.0442,2.0484,2.0462,2.0484,2.0183,2.0074,2.0442,2.0118,2.0118,2.0442,2.0506,2.0571,2.0635,2.0786,2.0914,2.1183,2.1456,2.1996,2.2564,2.3052,2.3258,2.2418,2.2871,2.3598,2.4258,2.4659,2.4779,2.5205,2.5205,2.5229,2.5253,2.4754,2.4322,2.4204,2.3526,2.3084,2.2905,2.2403,2.1569,2.0639,2.0256,2.0077,1.9878,1.9543,1.9091,1.8227,1.7968,1.6879,1.5701,1.5034,1.4639,1.2827,1.2713,1.2306,1.1793,1.1134,1.0669,1.0268,0.9225,0.844,0.7929,0.7088,0.649,0.6088,0.5445,0.4171,0.1562,0.0597,-0.0201,-0.1212,-0.1617,-0.1617,-0.1718,-0.2322,-0.333,-0.4634,-0.5436,-0.5932,-0.6637,-0.6936,-0.7335,-0.7733,-0.8031,-0.8435,-0.9038,-0.9244,-0.9153,-0.9031,-0.9327,-0.9778,-0.9758,-1.0136,-1.144,-1.2354,-1.3207,-1.364,-1.4083,-1.4191,-1.4299,-1.4504,-1.4719,-1.5041,-1.5256,-1.5577,-1.5791,-1.5885,-1.5885,-1.5992,-1.6123,-1.6242,-1.6599,2.0395,2.0395,2.0526,2.0571,2.0571,2.0571,2.0635,2.0571,2.0571,2.0442,2.042,2.0355,2.0377,2.0484,2.0442,2.0635,2.0955,2.1215,2.1463,2.1804,2.2082,2.2518,2.3144,2.3607,2.372,2.4282,2.4495,2.485,2.5063,2.5182,2.5324,2.5606,2.5441,2.5441,2.5535,2.5324,2.4826,2.4659,2.425,2.4055,2.3863,2.318,2.22,2.1004,2.0683,2.0505,2.0301,1.9752,1.9297,1.9082,1.869,1.7806,1.6537,1.5338,1.4377,1.3587,1.2794,1.2412,1.2123,1.1732,1.127,1.0696,0.9777,0.8464,0.7613,0.6712,0.6236,0.585,0.5214,0.4089,0.2449,0.1197,-0.0101,-0.1111,-0.1617,-0.1617,-0.1617,-0.2021,-0.2932,-0.4452,-0.5144,-0.5636,-0.6242,-0.6748,-0.7059,-0.7266,-0.7572,-0.8279,-0.9084,-0.9191,-0.9084,-0.9061,-0.913,-0.9734,-1.0355,-1.0724,-1.1554,-1.2383,-1.3207,-1.364,-1.3975,-1.4083,-1.4299,-1.4611,-1.4826,-1.5148,-1.5363,-1.5696,-1.5827,-1.597,-1.5934,-1.6016,-1.6365,-1.6596,-1.708,2.1675,2.1675,2.1651,2.1588,2.1526,2.1526,2.1486,2.136,2.1019,2.1083,2.1146,2.0955,2.0996,2.1273,2.1336,2.1463,2.1722,2.2107,2.2384,2.2604,2.31,2.3482,2.3956,2.4214,2.4614,2.504,2.5394,2.5606,2.5606,2.5606,2.5606,2.5535,2.5394,2.5394,2.5348,2.4992,2.4826,2.4826,2.4562,2.4418,2.4464,2.3579,2.2691,2.1932,2.1273,2.1005,2.0529,2.0163,1.9797,1.9674,1.9318,1.8611,1.7581,1.6412,1.5072,1.4103,1.3296,1.2767,1.2407,1.2049,1.1815,1.1295,1.0333,0.9066,0.7717,0.6783,0.6018,0.5441,0.5197,0.4234,0.2587,0.1606,0.0504,-0.0707,-0.1314,-0.1617,-0.1617,-0.1819,-0.2939,-0.4278,-0.4908,-0.5298,-0.5751,-0.6163,-0.6581,-0.6894,-0.7101,-0.7925,-0.9045,-0.909,-0.9011,-0.8621,-0.8621,-0.9256,-1.0072,-1.0766,-1.1599,-1.251,-1.3138,-1.3573,-1.3909,-1.4158,-1.444,-1.4826,-1.5041,-1.5132,-1.5589,-1.5803,-1.597,-1.6066,-1.6103,-1.6271,-1.6745,-1.7064,-1.7457,2.2604,2.2629,2.2629,2.2567,2.242,2.242,2.2297,2.2111,2.1588,2.1745,2.2217,2.1776,2.1846,2.2297,2.2471,2.2621,2.2722,2.3095,2.3313,2.3562,2.4116,2.4599,2.4864,2.5105,2.537,2.537,2.5676,2.584,2.5676,2.577,2.5606,2.5465,2.5324,2.5182,2.4992,2.4921,2.4706,2.4562,2.4418,2.4273,2.409,2.3785,2.35,2.3024,2.2271,2.1505,2.1183,2.04,2.0099,1.988,1.9571,1.9092,1.8499,1.7673,1.643,1.4951,1.4175,1.3448,1.3097,1.2471,1.2249,1.1839,1.0711,0.9317,0.793,0.6732,0.5777,0.5001,0.4835,0.4164,0.2509,0.1814,0.0807,-0.0404,-0.1314,-0.1617,-0.1822,-0.2131,-0.2753,-0.3795,-0.4553,-0.506,-0.5426,-0.5866,-0.6279,-0.6743,-0.6957,-0.7431,-0.8378,-0.8873,-0.8695,-0.8001,-0.7922,-0.8611,-0.9444,-1.0453,-1.1523,-1.2685,-1.3068,-1.3467,-1.3905,-1.4134,-1.456,-1.4822,-1.4844,-1.5009,-1.5526,-1.603,-1.6223,-1.6344,-1.6356,-1.6625,-1.7054,-1.7426,-1.7764,2.2321,2.242,2.242,2.242,2.242,2.242,2.242,2.2297,2.2135,2.2399,2.2823,2.2638,2.2787,2.318,2.3496,2.352,2.361,2.3682,2.3899,2.4213,2.455,2.4819,2.5131,2.5252,2.5465,2.5535,2.5746,2.5676,2.5535,2.5606,2.5606,2.5465,2.5324,2.5182,2.5277,2.4992,2.5111,2.504,2.4706,2.4384,2.4236,2.4234,2.4636,2.4657,2.3591,2.2403,2.2116,2.1174,2.035,1.9957,1.954,1.8921,1.8337,1.8164,1.7526,1.6344,1.5168,1.4151,1.404,1.3369,1.2586,1.1918,1.0612,0.9064,0.7719,0.6379,0.5312,0.4906,0.4814,0.4011,0.2416,0.1713,0.0504,-0.0504,-0.1415,-0.1819,-0.2024,-0.2455,-0.3084,-0.3632,-0.44,-0.4814,-0.5201,-0.5639,-0.6083,-0.6449,-0.6821,-0.7303,-0.7694,-0.8197,-0.8249,-0.7529,-0.7434,-0.8018,-0.881,-0.9823,-1.1,-1.2455,-1.2889,-1.3236,-1.3628,-1.3902,-1.4351,-1.4607,-1.4729,-1.5255,-1.6062,-1.6429,-1.6573,-1.6622,-1.6745,-1.6981,-1.7452,-1.7853,-1.8172,2.2898,2.2543,2.2543,2.2482,2.242,2.242,2.2359,2.2308,2.2447,2.2687,2.2951,2.3108,2.3346,2.3718,2.3761,2.3761,2.3833,2.4073,2.429,2.4578,2.4819,2.5059,2.5252,2.5394,2.5535,2.5535,2.5676,2.5676,2.5535,2.57,2.5816,2.5441,2.5324,2.5111,2.5277,2.4992,2.4921,2.4848,2.4722,2.4391,2.4243,2.4758,2.5622,2.62,2.4612,2.3719,2.3018,2.1919,2.108,2.0713,2.0289,1.9604,1.9117,1.8803,1.8346,1.7783,1.6521,1.5341,1.4434,1.3805,1.3031,1.211,1.0801,0.9485,0.7647,0.6018,0.4984,0.463,0.4537,0.3729,0.232,0.1614,0.0504,-0.0605,-0.1517,-0.214,-0.2555,-0.2885,-0.3327,-0.3782,-0.4239,-0.4654,-0.5071,-0.5352,-0.5606,-0.5813,-0.6317,-0.6945,-0.7231,-0.7414,-0.7339,-0.6926,-0.7149,-0.7489,-0.8272,-0.918,-1.0351,-1.1568,-1.2192,-1.2543,-1.3247,-1.3562,-1.3908,-1.4417,-1.4738,-1.5501,-1.6381,-1.6718,-1.6767,-1.6952,-1.7037,-1.7516,-1.7906,-1.8275,-1.8685,2.3604,2.3169,2.3019,2.2848,2.258,2.2702,2.2739,2.2688,2.2902,2.328,2.3774,2.4105,2.4237,2.4237,2.4285,2.4425,2.4285,2.4691,2.4836,2.5006,2.5338,2.5673,2.5791,2.5861,2.5861,2.5652,2.6061,2.5944,2.5898,2.6042,2.5995,2.5324,2.5324,2.5182,2.5016,2.5038,2.5083,2.495,2.5056,2.4793,2.447,2.5296,2.5959,2.6013,2.5378,2.4488,2.3714,2.2648,2.1943,2.1658,2.1033,2.0338,1.9915,1.9329,1.8807,1.834,1.7387,1.6274,1.51,1.4096,1.3339,1.219,1.069,0.8962,0.7304,0.5732,0.4734,0.4437,0.444,0.3732,0.2622,0.1614,0.0504,-0.0606,-0.1624,-0.2357,-0.2902,-0.325,-0.3584,-0.4126,-0.4479,-0.4717,-0.4931,-0.5042,-0.5227,-0.529,-0.5776,-0.6428,-0.6712,-0.6874,-0.6774,-0.6554,-0.6995,-0.7436,-0.8115,-0.8927,-1.0009,-1.0651,-1.1276,-1.1829,-1.2302,-1.2818,-1.3189,-1.379,-1.4613,-1.5583,-1.6518,-1.6665,-1.6948,-1.731,-1.756,-1.7968,-1.8288,-1.8739,-1.8997,2.4448,2.4372,2.3927,2.3509,2.3115,2.3518,2.3764,2.3841,2.3729,2.4607,2.5673,2.5988,2.5477,2.5341,2.5244,2.5338,2.5436,2.5697,2.5624,2.5832,2.6277,2.6346,2.6346,2.6346,2.644,2.6427,2.6445,2.631,2.6432,2.6553,2.6142,2.5468,2.5541,2.5349,2.5397,2.5488,2.5597,2.5477,2.5578,2.5396,2.516,2.5583,2.5895,2.5837,2.5253,2.4488,2.3887,2.3125,2.253,2.2315,2.1535,2.0907,2.0335,1.9521,1.8883,1.8425,1.8057,1.6836,1.5416,1.4386,1.3392,1.195,1.0092,0.8216,0.7229,0.5632,0.4834,0.4437,0.434,0.3739,0.2626,0.1412,0.0405,-0.0715,-0.1753,-0.26,-0.3163,-0.3535,-0.3978,-0.45,-0.4736,-0.4998,-0.5009,-0.5122,-0.5206,-0.5272,-0.5521,-0.6279,-0.6428,-0.6584,-0.6478,-0.6482,-0.6922,-0.7476,-0.814,-0.8843,-0.9099,-0.9763,-1.0432,-1.0874,-1.1339,-1.1853,-1.2412,-1.3286,-1.4124,-1.5258,-1.6374,-1.6704,-1.7006,-1.7628,-1.8064,-1.826,-1.8597,-1.8997,-1.9243,2.5798,2.552,2.5588,2.4996,2.3933,2.4176,2.451,2.4861,2.5154,2.5582,2.6316,2.6202,2.6094,2.5931,2.5886,2.5955,2.5886,2.5606,2.5676,2.5746,2.5955,2.6094,2.6164,2.6308,2.6173,2.647,2.6504,2.6578,2.6721,2.6935,2.6767,2.6308,2.6163,2.6089,2.6134,2.5934,2.5914,2.5993,2.6014,2.595,2.5641,2.5917,2.6102,2.5863,2.5359,2.4935,2.4594,2.3734,2.3232,2.2599,2.1784,2.1087,2.0365,1.9455,1.8751,1.8303,1.8039,1.6994,1.556,1.4592,1.3607,1.157,0.9501,0.7826,0.7428,0.5932,0.4834,0.4437,0.4243,0.365,0.2666,0.1437,0.0412,-0.0728,-0.1889,-0.2856,-0.3532,-0.3911,-0.4276,-0.4804,-0.5052,-0.5206,-0.532,-0.5316,-0.5284,-0.5251,-0.5625,-0.5996,-0.6139,-0.6381,-0.6386,-0.6492,-0.6932,-0.7154,-0.782,-0.7943,-0.8066,-0.8851,-0.9667,-1.0126,-1.0593,-1.1177,-1.1935,-1.2706,-1.3555,-1.4619,-1.5558,-1.6397,-1.7114,-1.7843,-1.8194,-1.8532,-1.8894,-1.9243,-1.9372,2.7059,2.6746,2.6864,2.6203,2.5039,2.5136,2.5449,2.5869,2.6194,2.6447,2.6414,2.6577,2.6577,2.6508,2.6483,2.6483,2.6483,2.6277,2.6208,2.6346,2.6483,2.6584,2.6684,2.6905,2.7202,2.7108,2.7091,2.7236,2.7227,2.7244,2.7339,2.7263,2.7061,2.6889,2.651,2.6417,2.6225,2.6322,2.6371,2.6484,2.6169,2.6184,2.588,2.5589,2.5168,2.4956,2.4615,2.3927,2.358,2.2862,2.2069,2.1087,2.0275,1.9471,1.8613,1.8209,1.7769,1.7028,1.584,1.4243,1.3202,1.1306,0.9681,0.8564,0.764,0.6237,0.5144,0.438,0.4075,0.369,0.2711,0.1568,0.0419,-0.0633,-0.2242,-0.3339,-0.4013,-0.4501,-0.4875,-0.523,-0.5365,-0.5369,-0.5365,-0.5357,-0.5353,-0.532,-0.5443,-0.5802,-0.5922,-0.6158,-0.6492,-0.6604,-0.6932,-0.7154,-0.7265,-0.7499,-0.7739,-0.8133,-0.883,-0.9347,-0.9842,-1.0531,-1.1382,-1.2354,-1.3195,-1.3913,-1.5095,-1.6397,-1.7232,-1.796,-1.8428,-1.8894,-1.901,-1.9372,-1.9372,2.814,2.8091,2.7538,2.6809,2.6162,2.6566,2.6827,2.6929,2.6906,2.6961,2.7002,2.7456,2.7364,2.7095,2.7027,2.7095,2.7095,2.7297,2.7323,2.7188,2.752,2.8292,2.8557,2.8497,2.8298,2.8938,2.8692,2.8275,2.7989,2.7993,2.8076,2.7885,2.7505,2.727,2.67,2.6667,2.676,2.6849,2.6625,2.661,2.6595,2.6157,2.5484,2.4851,2.4808,2.47,2.4272,2.4013,2.3667,2.3406,2.2138,2.1284,2.0689,1.9261,1.8379,1.8177,1.8001,1.7357,1.6494,1.3913,1.2463,1.134,0.992,0.9004,0.7985,0.6665,0.5302,0.445,0.4043,0.3871,0.2854,0.1598,0.0426,-0.0967,-0.2504,-0.3628,-0.4208,-0.4923,-0.5201,-0.5334,-0.541,-0.5386,-0.539,-0.5394,-0.5514,-0.5394,-0.5386,-0.5605,-0.5828,-0.6158,-0.6492,-0.6826,-0.7043,-0.7154,-0.716,-0.7171,-0.7416,-0.7691,-0.8262,-0.88,-0.9412,-1.0158,-1.0974,-1.1856,-1.2603,-1.3315,-1.4857,-1.6514,-1.7467,-1.8428,-1.8894,-1.9243,-1.9359,-1.9386,-1.9399,2.8402,2.8248,2.831,2.7976,2.7477,2.7631,2.7857,2.8093,2.7759,2.7538,2.7537,2.7789,2.7656,2.7456,2.7549,2.7549,2.7456,2.7162,2.7162,2.7307,2.793,2.8192,2.8576,2.8996,2.9177,2.9404,2.9349,2.9024,2.8524,2.8426,2.7971,2.7672,2.7429,2.729,2.7035,2.6887,2.658,2.6588,2.6279,2.6074,2.5994,2.5592,2.4999,2.4276,2.4337,2.4292,2.3988,2.3814,2.3747,2.3593,2.2358,2.1608,2.0933,1.9426,1.875,1.8446,1.8145,1.7274,1.6023,1.4061,1.2946,1.1597,1.0408,0.9301,0.811,0.6981,0.5666,0.4526,0.4008,0.3731,0.3021,0.1191,-0.0218,-0.1437,-0.2796,-0.372,-0.4435,-0.5062,-0.5454,-0.5553,-0.5524,-0.5471,-0.5455,-0.5715,-0.5728,-0.5821,-0.5808,-0.5976,-0.6182,-0.6386,-0.6715,-0.6937,-0.7154,-0.7154,-0.7165,-0.7315,-0.7477,-0.7879,-0.825,-0.8797,-0.9394,-0.994,-1.0605,-1.139,-1.2001,-1.2724,-1.4619,-1.6397,-1.7935,-1.8997,-1.9127,-1.9283,-1.9439,-1.9452,-1.9466,2.8937,2.8833,2.9247,2.9197,2.8825,2.8484,2.8502,2.861,2.8249,2.8118,2.8118,2.8183,2.8052,2.804,2.8133,2.8027,2.7868,2.8061,2.7754,2.7806,2.8386,2.8778,2.895,2.9113,2.9387,2.9551,2.9429,2.9096,2.8243,2.8211,2.7834,2.7185,2.6775,2.6812,2.6789,2.6565,2.6257,2.6113,2.5801,2.5464,2.5232,2.4871,2.4509,2.4079,2.3947,2.3921,2.3847,2.3819,2.3791,2.3496,2.2877,2.2026,2.1112,2.0017,1.9236,1.8897,1.8383,1.7387,1.584,1.4862,1.3488,1.1636,1.0712,0.9684,0.8381,0.7287,0.5854,0.4706,0.3972,0.3488,0.2764,0.0887,-0.0447,-0.1813,-0.2956,-0.3894,-0.4676,-0.5299,-0.5434,-0.5545,-0.5553,-0.552,-0.5643,-0.5925,-0.6076,-0.6156,-0.624,-0.6403,-0.6454,-0.6664,-0.6868,-0.7081,-0.7192,-0.7315,-0.7343,-0.75,-0.7669,-0.7955,-0.8469,-0.8891,-0.9407,-1.0067,-1.0492,-1.0914,-1.1752,-1.2955,-1.4619,-1.6279,-1.7584,-1.8402,-1.8648,-1.8933,-1.9376,-1.9546,-1.9586,2.9866,2.9777,3.0323,3.0446,3.0079,2.9077,2.8709,2.8682,2.8655,2.8682,2.8838,2.8801,2.8725,2.8714,2.9013,2.8919,2.8612,2.9346,2.9183,2.9114,2.9432,2.96,2.9797,3.0059,2.9854,2.9324,2.9086,2.8856,2.7672,2.7267,2.7021,2.6715,2.6279,2.6196,2.6113,2.5946,2.5779,2.5527,2.5211,2.4871,2.455,2.4358,2.4079,2.3754,2.3747,2.3859,2.3861,2.3929,2.3984,2.3775,2.3206,2.2774,2.1854,2.0305,1.9957,1.946,1.8846,1.7539,1.5976,1.5045,1.3665,1.1864,1.1254,1.0134,0.8779,0.7399,0.6051,0.4582,0.3625,0.3248,0.2502,0.1026,-0.0457,-0.1836,-0.31,-0.4002,-0.4979,-0.5326,-0.5451,-0.5463,-0.5602,-0.5614,-0.5925,-0.6219,-0.6546,-0.666,-0.6857,-0.6915,-0.6965,-0.6893,-0.7095,-0.7145,-0.7258,-0.7376,-0.7414,-0.7721,-0.8135,-0.8445,-0.8791,-0.9187,-0.9693,-1.0201,-1.074,-1.1269,-1.1872,-1.3066,-1.4619,-1.5806,-1.6868,-1.7584,-1.8219,-1.8933,-1.9404,-1.9693,-1.9773,2.9535,2.9416,3.0256,3.0364,2.9966,2.9671,2.9713,2.9929,2.9375,2.9375,2.9916,2.9348,2.9214,2.9468,2.9697,2.9507,2.9491,2.9528,2.9678,2.9837,3.0086,3.0307,3.0382,3.0377,3.0213,2.9859,2.9394,2.8767,2.7487,2.6693,2.6135,2.5884,2.5717,2.5527,2.5274,2.5105,2.502,2.4935,2.47,2.4358,2.412,2.3967,2.3794,2.366,2.3742,2.389,2.3977,2.3958,2.4059,2.3951,2.3523,2.296,2.2037,2.1042,2.042,1.9258,1.8603,1.7779,1.5755,1.5114,1.3932,1.1773,1.1067,0.9742,0.8471,0.7133,0.6055,0.454,0.3463,0.295,0.2067,0.0692,-0.0462,-0.1502,-0.289,-0.4268,-0.5032,-0.5268,-0.5394,-0.5647,-0.5664,-0.5951,-0.626,-0.6703,-0.703,-0.716,-0.7381,-0.7433,-0.7482,-0.7285,-0.7201,-0.7366,-0.7475,-0.7601,-0.7916,-0.8113,-0.8524,-0.8953,-0.9168,-0.9486,-0.9995,-1.0507,-1.102,-1.1631,-1.2475,-1.3315,-1.4391,-1.5451,-1.6161,-1.7433,-1.8202,-1.8813,-1.9417,-1.9774,-2.0187,2.9848,2.9981,3.0686,3.0788,3.0503,3.0432,3.0646,3.0794,2.9996,2.9861,3.02,2.9712,2.9629,2.9784,2.9997,2.9954,2.9531,3.0085,3.0217,3.0058,3.0527,3.0446,3.0533,3.0488,3.0164,2.9858,2.9341,2.8633,2.7325,2.6279,2.5633,2.5464,2.5211,2.4956,2.4786,2.4615,2.4358,2.4272,2.41,2.3927,2.3814,2.3827,2.3751,2.3742,2.3988,2.4043,2.4094,2.4105,2.4145,2.4222,2.3898,2.3226,2.224,2.1163,1.9659,1.849,1.8053,1.6922,1.5328,1.4589,1.3078,1.1555,1.0468,0.9244,0.8023,0.689,0.546,0.3916,0.339,0.2627,0.1499,0.0465,-0.0348,-0.1161,-0.2793,-0.4432,-0.49,-0.5137,-0.5506,-0.5764,-0.6038,-0.6332,-0.6765,-0.7215,-0.7505,-0.7601,-0.758,-0.768,-0.7731,-0.7536,-0.7439,-0.747,-0.7713,-0.7968,-0.829,-0.8604,-0.8878,-0.9168,-0.9366,-0.9788,-1.0301,-1.0785,-1.139,-1.2234,-1.3195,-1.3794,-1.4272,-1.4639,-1.5483,-1.677,-1.8019,-1.8684,-1.9464,-2.0133,-2.059,3.0659,3.0931,3.1429,3.1415,3.1347,3.1267,3.1341,3.1489,3.0566,3.018,3.0164,3.0057,3.0041,3.0193,3.044,3.0289,3.0125,3.0519,3.0577,3.0142,3.0607,3.0693,3.0441,3.0291,2.9858,2.9263,2.8736,2.8259,2.7103,2.603,2.5295,2.5126,2.4956,2.47,2.4464,2.4329,2.4109,2.3954,2.3994,2.3859,2.3771,2.3841,2.4028,2.3906,2.3963,2.4143,2.4374,2.4488,2.4447,2.4496,2.4295,2.3547,2.2013,2.0483,1.8657,1.768,1.7292,1.605,1.4793,1.3825,1.2417,1.1126,1.0036,0.8706,0.7482,0.67,0.5254,0.3706,0.2945,0.253,0.1628,0.0235,-0.0823,-0.1647,-0.2949,-0.4232,-0.5024,-0.5389,-0.5773,-0.6155,-0.6442,-0.6736,-0.704,-0.7484,-0.7627,-0.775,-0.7867,-0.7861,-0.7834,-0.7758,-0.7812,-0.7713,-0.7977,-0.8367,-0.876,-0.8948,-0.9219,-0.9392,-0.968,-0.9937,-1.0422,-1.1148,-1.1872,-1.2595,-1.3195,-1.3444,-1.3803,-1.4331,-1.5131,-1.6571,-1.772,-1.8435,-1.9369,-2.0425,-2.097,3.0726,3.0815,3.1182,3.1447,3.1522,3.1347,3.1272,3.1347,3.0935,3.0897,3.1089,3.0599,3.05,3.0818,3.0877,3.0777,3.0734,3.0712,3.0843,3.069,3.0797,3.0672,3.0368,3.0088,2.9549,2.9081,2.8554,2.7777,2.6693,2.5695,2.5041,2.4956,2.4657,2.444,2.4288,2.4142,2.4078,2.392,2.4087,2.4067,2.3879,2.3913,2.3982,2.3932,2.4013,2.3974,2.4063,2.3956,2.387,2.3935,2.3737,2.2702,2.1081,1.9403,1.817,1.7239,1.6474,1.5316,1.404,1.2852,1.1546,1.0468,0.9375,0.8152,0.7149,0.6366,0.5266,0.3602,0.2502,0.2195,0.1641,0.0118,-0.1189,-0.2145,-0.3109,-0.4142,-0.5155,-0.5659,-0.6164,-0.6556,-0.6841,-0.7135,-0.7322,-0.7596,-0.7739,-0.7872,-0.7872,-0.7867,-0.7994,-0.8071,-0.8308,-0.8239,-0.8515,-0.8908,-0.9156,-0.9265,-0.9526,-0.966,-0.9815,-1.0186,-1.055,-1.1511,-1.2363,-1.2724,-1.3204,-1.3509,-1.3816,-1.4004,-1.4933,-1.6542,-1.7567,-1.842,-1.9722,-2.0899,-2.1436,3.056,3.0824,3.0992,3.1075,3.1048,3.0973,3.0898,3.0898,3.0748,3.0823,3.1048,3.076,3.0786,3.1048,3.1123,3.0973,3.0823,3.0849,3.0722,3.0672,3.0698,3.0596,3.0292,2.9883,2.9419,2.8949,2.773,2.6857,2.6091,2.5274,2.47,2.4592,2.4329,2.425,2.4203,2.4277,2.4335,2.4264,2.44,2.4346,2.4152,2.4105,2.4051,2.3975,2.3914,2.3846,2.3761,2.3647,2.3583,2.302,2.2501,2.1065,1.9509,1.8074,1.7239,1.6461,1.566,1.4578,1.3285,1.1982,1.0899,0.9824,0.8712,0.7598,0.6386,0.5609,0.4535,0.3079,0.2511,0.22,0.1532,0.0238,-0.0597,-0.1555,-0.3123,-0.4432,-0.5399,-0.6159,-0.6663,-0.7281,-0.7433,-0.7317,-0.7606,-0.7734,-0.7872,-0.7872,-0.7872,-0.7994,-0.8122,-0.8366,-0.861,-0.8738,-0.8976,-0.9098,-0.9195,-0.9431,-0.968,-0.9815,-0.9943,-1.0436,-1.1042,-1.2001,-1.2724,-1.3054,-1.3368,-1.3798,-1.3986,-1.4185,-1.5309,-1.6954,-1.7735,-1.8399,-1.9939,-2.1352,-2.1866,3.0555,3.0898,3.0698,3.0546,3.0444,3.0368,3.0368,3.0444,3.0368,3.0368,3.0444,3.0596,3.0622,3.0698,3.0849,3.0596,3.052,3.0596,3.052,3.0444,3.0368,3.0292,3.0216,2.996,2.9341,2.845,2.7244,2.6505,2.5819,2.5019,2.4563,2.4323,2.4391,2.4426,2.4346,2.4512,2.4697,2.4536,2.46,2.4641,2.4584,2.4392,2.42,2.3943,2.3717,2.3619,2.3538,2.3338,2.3155,2.2215,2.1065,1.9627,1.8394,1.7213,1.6486,1.5779,1.4804,1.3835,1.2644,1.1437,1.0374,0.9293,0.8171,0.707,0.5971,0.4772,0.3791,0.3005,0.2545,0.198,0.1304,0.0239,-0.06,-0.1563,-0.3379,-0.4848,-0.5738,-0.6508,-0.7118,-0.7739,-0.775,-0.7622,-0.7744,-0.7872,-0.7872,-0.7872,-0.7994,-0.8122,-0.8366,-0.861,-0.8854,-0.9098,-0.922,-0.9335,-0.9457,-0.9579,-0.9822,-0.9822,-0.9943,-1.08,-1.155,-1.2327,-1.3013,-1.326,-1.3701,-1.3985,-1.4318,-1.4654,-1.593,-1.7326,-1.8218,-1.9096,-2.042,-2.1713,-2.2117,3.0869,3.052,3.0292,3.0292,3.0368,3.0216,3.0216,3.0368,3.0216,3.0216,3.0318,3.0241,3.0318,3.0444,3.052,3.0444,3.0368,3.0444,3.0292,3.0139,3.0139,3.0088,2.9831,2.9496,2.9028,2.8075,2.7021,2.634,2.553,2.501,2.4649,2.4513,2.4646,2.4683,2.4742,2.4854,2.4866,2.4698,2.4602,2.4654,2.4282,2.4184,2.4122,2.3863,2.3502,2.3238,2.2937,2.2131,2.1827,2.0995,1.9746,1.8499,1.7463,1.663,1.5992,1.5137,1.4159,1.3068,1.1982,1.0789,0.9721,0.9266,0.8152,0.7069,0.5851,0.4634,0.3627,0.2717,0.2248,0.2012,0.1197,-0.0481,-0.1567,-0.2788,-0.4383,-0.5369,-0.625,-0.6719,-0.7185,-0.7591,-0.7872,-0.7872,-0.7872,-0.7872,-0.7994,-0.7994,-0.8244,-0.8366,-0.8488,-0.8854,-0.9098,-0.9335,-0.9579,-0.97,-0.97,-0.97,-0.9822,-0.9822,-1.0086,-1.0867,-1.1654,-1.2585,-1.3172,-1.3572,-1.3876,-1.4154,-1.4625,-1.5013,-1.6192,-1.7461,-1.8637,-1.9789,-2.1096,-2.1837,-2.2243]},{"header":{"parameterUnit":"m.s-1","parameterCategory":1,"la1":31.0,"la2":29.5877,"lo1":-88.7671,"lo2":-86.6584,"dy":0.0162,"dx":0.0185,"nx":115,"ny":88,"refTime":"2024-08-06T00:00:00:Z","depth":0,"parameterNumber":3,"parameterNumberName":"V-component_of_WINDS"},"data":[0.0,0.0,0.0,0.0,0.0,0.0,0.0,0.0,0.0,0.0,0.0,0.0,0.0,0.0,0.0,0.0,0.0,0.0,0.0,0.0,0.0,0.0,0.0,0.0,0.0,0.0,0.0,0.0,0.0,0.0,0.0,0.0,0.0,0.0,0.0,0.0,0.0,0.0,0.0,0.0,0.0,0.0,0.0,0.0,0.0,0.0,0.0,0.0,0.0,0.0,0.0,0.0,0.0,0.0,0.0,0.0,0.0,0.0,0.0,0.0,0.0,0.0,0.0,0.0,0.0,0.0,0.0,0.0,0.0,0.0,0.0,0.0,0.0,0.0,0.0,0.0,0.0,0.0,0.0,0.0,0.0,0.0,0.0,0.0,0.0,0.0,0.0,0.0,0.0,0.0,0.0,0.0,0.0,0.0,0.0,0.0,0.0,0.0,0.0,0.0,0.0,0.0,0.0,0.0,0.0,0.0,0.0,0.0,0.0,0.0,0.0,0.0,0.0,0.0,0.0,0.0,0.0,0.0,0.0,0.0,0.0,0.0,0.0,0.0,0.0,0.0,0.0,0.0,0.0,0.0,0.0,0.0,0.0,0.0,0.0,0.0,0.0,0.0,0.0,0.0,0.0,0.0,0.0,0.0,0.0,0.0,0.0,0.0,0.0,0.0,0.0,0.0,0.0,0.0,0.0,0.0,0.0,0.0,0.0,0.0,0.0,0.0,0.0,0.0,0.0,0.0,0.0,0.0,0.0,0.0,0.0,0.0,0.0,0.0,0.0,0.0,0.0,0.0,0.0,0.0,0.0,0.0,0.0,0.0,0.0,0.0,0.0,0.0,0.0,0.0,0.0,0.0,0.0,0.0,0.0,0.0,0.0,0.0,0.0,0.0,0.0,0.0,0.0,0.0,0.0,0.0,0.0,0.0,0.0,0.0,0.0,0.0,0.0,0.0,0.0,0.0,0.0,0.0,0.0,0.0,0.0,0.0,0.0,0.0,0.0,0.0,0.0,0.0,0.0,0.0,0.0,0.0,0.0,0.0,0.0,0.0,0.0,0.0,0.0,0.0,0.0,0.0,0.0,0.0,0.0,0.0,0.0,0.0,0.0,0.0,0.0,0.0,0.0,0.0,0.0,0.0,0.0,0.0,0.0,0.0,0.0,0.0,0.0,0.0,0.0,0.0,0.0,0.0,0.0,0.0,0.0,0.0,0.0,0.0,0.0,0.0,0.0,0.0,0.0,0.0,0.0,0.0,0.0,0.0,0.0,0.0,0.0,0.0,0.0,0.0,0.0,0.0,0.0,0.0,0.0,0.0,0.0,0.0,0.0,0.0,0.0,0.0,0.0,0.0,0.0,0.0,0.0,0.0,0.0,0.0,0.0,0.0,0.0,0.0,0.0,0.0,0.0,0.0,0.0,0.0,0.0,0.0,0.0,0.0,0.0,0.0,0.0,0.0,0.0,0.0,0.0,0.0,0.0,0.0,0.0,0.0,0.0,0.0,0.0,0.0,0.0,0.0,0.0,0.0,0.0,0.0,0.0,0.0,0.0,0.0,0.0,0.0,0.0,0.0,0.0,0.0,0.0,0.0,0.0,0.0,0.0,0.0,0.0,0.0,0.0,0.0,0.0,0.0,0.0,0.0,0.0,0.0,0.0,0.0,0.0,0.0,0.0,0.0,0.0,0.0,0.0,0.0,0.0,0.0,0.0,0.0,0.0,0.0,0.0,0.0,0.0,0.0,0.0,0.0,0.0,0.0,0.0,0.0,0.0,0.0,0.0,0.0,0.0,0.0,0.0,0.0,0.0,0.0,0.0,0.0,0.0,0.0,0.0,0.0,0.0,0.0,0.0,0.0,0.0,0.0,0.0,0.0,0.0,0.0,0.0,0.0,0.0,0.0,0.0,0.0,0.0,0.0,0.0,0.0,0.0,0.0,0.0,0.0,0.0,0.0,0.0,0.0,0.0,0.0,0.0,0.0,0.0,0.0,0.0,0.0,0.0,0.0,0.0,0.0,0.0,0.0,0.0,0.0,0.0,0.0,0.0,0.0,0.0,0.0,0.0,0.0,0.0,0.0,0.0,0.0,0.0,0.0,0.0,0.0,0.0,0.0,0.0,0.0,0.0,0.0,0.0,0.0,0.0,0.0,0.0,0.0,0.0,0.0,0.0,0.0,0.0,0.0,0.0,0.0,0.0,0.0,0.0,0.0,0.0,0.0,0.0,0.0,0.0,0.0,0.0,0.0,0.0,0.0,0.0,0.0,0.0,0.0,0.0,0.0,0.0,0.0,0.0,0.0,0.0,0.0,0.0,0.0,0.0,0.0,0.0,0.0,0.0,0.0,0.0,0.0,0.0,0.0,0.0,0.0,0.0,0.0,0.0,0.0,0.0,0.0,0.0,0.0,0.0,0.0,0.0,0.0,0.0,0.0,0.0,0.0,0.0,0.0,0.0,0.0,0.0,0.0,0.0,0.0,0.0,0.0,0.0,0.0,0.0,0.0,0.0,0.0,0.0,0.0,0.0,0.0,0.0,0.0,0.0,0.0,0.0,0.0,0.0,0.0,0.0,0.0,0.0,0.0,0.0,0.0,0.0,0.0,0.0,0.0,0.0,0.0,0.0,0.0,0.0,0.0,0.0,0.0,0.0,0.0,0.0,0.0,0.0,0.0,0.0,0.0,0.0,0.0,0.0,0.0,0.0,0.0,0.0,0.0,0.0,0.0,0.0,0.0,0.0,0.0,0.0,0.0,0.0,0.0,0.0,0.0,0.0,0.0,0.0,0.0,0.0,0.0,0.0,0.0,0.0,0.0,0.0,0.0,0.0,0.0,0.0,0.0,0.0,0.0,0.0,0.0,0.0,0.0,0.0,0.0,0.0,0.0,0.0,0.0,0.0,0.0,0.0,0.0,0.0,0.0,0.0,0.0,0.0,0.0,0.0,0.0,0.0,0.0,0.0,0.0,0.0,0.0,0.0,0.0,0.0,0.0,0.0,0.0,0.0,0.0,0.0,0.0,0.0,0.0,0.0,0.0,0.0,0.0,0.0,0.0,0.0,0.0,0.0,0.0,0.0,0.0,0.0,0.0,0.0,0.0,0.0,0.0,0.0,0.0,0.0,0.0,0.0,0.0,0.0,0.0,0.0,0.0,0.0,0.0,0.0,0.0,0.0,0.0,0.0,0.0,0.0,0.0,0.0,0.0,0.0,0.0,0.0,0.0,0.0,0.0,0.0,0.0,0.0,0.0,0.0,0.0,0.0,0.0,0.0,0.0,0.0,0.0,0.0,0.0,0.0,0.0,0.0,0.0,0.0,0.0,0.0,0.0,0.0,0.0,0.0,0.0,0.0,0.0,0.0,0.0,0.0,0.0,0.0,0.0,0.0,0.0,0.0,0.0,0.0,0.0,0.0,0.0,0.0,0.0,0.0,0.0,0.0,0.0,0.0,0.0,0.0,0.0,0.0,0.0,0.0,0.0,0.0,0.0,0.0,0.0,0.0,0.0,0.0,0.0,0.0,0.0,0.0,0.0,0.0,0.0,0.0,0.0,0.0,0.0,0.0,0.0,0.0,0.0,0.0,0.0,0.0,0.0,0.0,0.0,0.0,0.0,0.0,0.0,0.0,0.0,0.0,0.0,0.0,0.0,0.0,0.0,0.0,0.0,0.0,0.0,0.0,0.0,0.0,0.0,0.0,0.0,0.0,0.0,0.0,0.0,0.0,0.0,0.0,0.0,0.0,0.0,0.0,0.0,0.0,0.0,0.0,0.0,0.0,0.0,0.0,0.0,0.0,0.0,0.0,0.0,0.0,0.0,0.0,0.0,0.0,0.0,0.0,0.0,0.0,0.0,0.0,0.0,0.0,0.0,0.0,0.0,0.0,0.0,0.0,0.0,0.0,0.0,0.0,0.0,0.0,0.0,0.0,0.0,0.0,0.0,0.0,0.0,0.0,0.0,0.0,0.0,0.0,0.0,0.0,0.0,0.0,0.0,0.0,0.0,0.0,0.0,0.0,0.0,0.0,0.0,0.0,0.0,0.0,0.0,0.0,0.0,0.0,0.0,0.0,0.0,0.0,0.0,0.0,0.0,0.0,0.0,0.0,0.0,0.0,0.0,0.0,0.0,0.0,0.0,0.0,0.0,0.0,0.0,0.0,0.0,0.0,0.0,0.0,0.0,0.0,0.0,0.0,0.0,0.0,0.0,0.0,0.0,0.0,0.0,0.0,0.0,0.0,0.0,0.0,0.0,0.0,0.0,0.0,0.0,0.0,0.0,0.0,0.0,-1.2651,0.0,0.0,0.0,0.0,0.0,0.0,0.0,0.0,0.0,0.0,0.0,0.0,0.0,0.0,0.0,0.0,0.0,0.0,0.0,0.0,0.0,0.0,0.0,0.0,0.0,0.0,0.0,0.0,0.0,0.0,0.0,0.0,0.0,0.0,0.0,0.0,0.0,0.0,0.0,0.0,0.0,0.0,0.0,0.0,0.0,0.0,0.0,0.0,0.0,0.0,0.0,0.0,0.0,0.0,0.0,0.0,0.0,0.0,0.0,0.0,0.0,0.0,0.0,0.0,0.0,0.0,0.0,0.0,0.0,0.0,0.0,0.0,0.0,0.0,0.0,0.0,0.0,0.0,0.0,0.0,0.0,0.0,0.0,0.0,0.0,0.0,0.0,0.0,0.0,0.0,0.0,0.0,0.0,0.0,0.0,0.0,0.0,0.0,0.0,0.0,0.0,0.0,0.0,0.0,0.0,0.0,0.0,0.0,0.0,0.0,-1.4773,-1.5061,-1.5693,-1.527,-1.3819,0.0,0.0,0.0,0.0,0.0,0.0,0.0,0.0,0.0,0.0,0.0,0.0,0.0,0.0,0.0,0.0,0.0,0.0,0.0,0.0,0.0,0.0,0.0,0.0,0.0,0.0,0.0,0.0,0.0,0.0,0.0,0.0,0.0,0.0,0.0,0.0,0.0,0.0,0.0,0.0,0.0,0.0,0.0,0.0,0.0,0.0,0.0,0.0,0.0,0.0,0.0,0.0,0.0,0.0,0.0,0.0,0.0,0.0,0.0,0.0,0.0,0.0,0.0,0.0,0.0,0.0,0.0,0.0,0.0,0.0,0.0,0.0,0.0,0.0,0.0,0.0,0.0,0.0,0.0,0.0,0.0,0.0,0.0,0.0,0.0,0.0,0.0,0.0,0.0,0.0,0.0,0.0,0.0,0.0,0.0,0.0,0.0,0.0,0.0,0.0,0.0,0.0,0.0,0.0,0.0,0.0,0.0,0.0,0.0,0.0,0.0,0.0,-1.6136,-1.5801,-1.5226,0.0,0.0,0.0,0.0,0.0,0.0,0.0,0.0,0.0,0.0,0.0,0.0,0.0,0.0,0.0,0.0,0.0,0.0,0.0,0.0,0.0,0.0,0.0,0.0,0.0,0.0,0.0,0.0,0.0,0.0,0.0,0.0,0.0,0.0,0.0,0.0,0.0,0.0,0.0,0.0,0.0,0.0,0.0,0.0,0.0,0.0,0.0,0.0,0.0,0.0,0.0,0.0,0.0,0.0,0.0,0.0,0.0,0.0,0.0,0.0,0.0,0.0,0.0,0.0,0.0,0.0,0.0,0.0,0.0,0.0,0.0,0.0,0.0,0.0,0.0,0.0,0.0,0.0,0.0,0.0,0.0,0.0,0.0,0.0,0.0,0.0,0.0,0.0,0.0,0.0,0.0,0.0,0.0,0.0,0.0,0.0,0.0,0.0,0.0,0.0,0.0,0.0,0.0,0.0,0.0,0.0,0.0,0.0,0.0,0.0,-1.504,-1.5758,-1.6636,0.0,-1.5834,0.0,0.0,0.0,0.0,0.0,0.0,0.0,0.0,0.0,0.0,0.0,0.0,0.0,0.0,0.0,0.0,0.0,0.0,0.0,0.0,0.0,0.0,0.0,0.0,0.0,0.0,0.0,0.0,0.0,0.0,0.0,0.0,0.0,0.0,0.0,0.0,0.0,0.0,0.0,0.0,0.0,0.0,0.0,0.0,0.0,0.0,0.0,0.0,0.0,0.0,0.0,0.0,0.0,0.0,0.0,0.0,0.0,0.0,0.0,0.0,0.0,0.0,0.0,0.0,0.0,0.0,0.0,0.0,0.0,0.0,0.0,0.0,0.0,0.0,0.0,0.0,0.0,0.0,0.0,0.0,0.0,0.0,0.0,0.0,0.0,0.0,0.0,0.0,0.0,0.0,0.0,0.0,0.0,0.0,0.0,0.0,0.0,0.0,0.0,0.0,0.0,0.0,0.0,0.0,0.0,0.0,0.0,0.0,0.0,0.0,-1.5581,-1.6218,-1.6374,-1.6133,0.0,0.0,0.0,0.0,0.0,0.0,0.0,0.0,0.0,0.0,0.0,0.0,0.0,0.0,0.0,0.0,0.0,0.0,0.0,0.0,0.0,0.0,0.0,0.0,0.0,0.0,0.0,0.0,0.0,0.0,0.0,0.0,0.0,0.0,0.0,0.0,0.0,0.0,0.0,0.0,0.0,0.0,0.0,0.0,0.0,0.0,0.0,0.0,0.0,0.0,0.0,0.0,0.0,0.0,0.0,0.0,0.0,0.0,0.0,0.0,0.0,0.0,0.0,0.0,0.0,0.0,0.0,0.0,0.0,0.0,0.0,0.0,0.0,0.0,0.0,0.0,0.0,0.0,0.0,0.0,0.0,0.0,0.0,0.0,0.0,0.0,0.0,0.0,0.0,0.0,0.0,0.0,0.0,0.0,0.0,0.0,0.0,0.0,0.0,0.0,0.0,0.0,0.0,0.0,0.0,0.0,0.0,0.0,0.0,0.0,-1.5691,0.0,-1.6806,-1.6475,-1.5945,-1.5321,0.0,0.0,0.0,0.0,0.0,0.0,0.0,0.0,0.0,0.0,0.0,0.0,0.0,0.0,0.0,0.0,0.0,0.0,0.0,0.0,0.0,0.0,0.0,0.0,0.0,0.0,0.0,0.0,0.0,0.0,0.0,0.0,0.0,0.0,0.0,0.0,0.0,0.0,0.0,0.0,0.0,0.0,0.0,0.0,0.0,0.0,0.0,0.0,0.0,0.0,0.0,0.0,0.0,0.0,0.0,0.0,0.0,0.0,0.0,0.0,0.0,0.0,0.0,0.0,0.0,0.0,0.0,0.0,0.0,0.0,0.0,0.0,0.0,0.0,0.0,0.0,0.0,0.0,0.0,0.0,0.0,0.0,0.0,0.0,0.0,0.0,0.0,0.0,0.0,0.0,0.0,0.0,0.0,0.0,0.0,0.0,0.0,0.0,0.0,0.0,0.0,0.0,0.0,0.0,0.0,0.0,0.0,0.0,0.0,-1.619,-1.6411,-1.7531,-1.7213,-1.67,0.0,0.0,0.0,0.0,0.0,0.0,0.0,0.0,0.0,0.0,0.0,0.0,0.0,0.0,0.0,0.0,0.0,0.0,0.0,0.0,0.0,0.0,0.0,0.0,0.0,0.0,0.0,0.0,0.0,0.0,0.0,0.0,0.0,0.0,0.0,0.0,0.0,0.0,0.0,0.0,0.0,0.0,0.0,0.0,0.0,0.0,0.0,0.0,0.0,0.0,0.0,0.0,0.0,0.0,0.0,0.0,0.0,0.0,0.0,0.0,0.0,0.0,0.0,0.0,0.0,0.0,0.0,0.0,0.0,0.0,0.0,0.0,0.0,0.0,0.0,0.0,0.0,0.0,0.0,0.0,0.0,0.0,0.0,0.0,0.0,0.0,0.0,0.0,0.0,0.0,0.0,0.0,0.0,0.0,0.0,0.0,0.0,0.0,0.0,0.0,0.0,0.0,0.0,0.0,0.0,0.0,0.0,0.0,0.0,-1.5278,-1.6047,-1.7202,-1.8691,-1.7549,-1.687,0.0,0.0,0.0,0.0,0.0,0.0,0.0,0.0,0.0,0.0,0.0,0.0,0.0,0.0,0.0,0.0,0.0,0.0,0.0,0.0,0.0,0.0,0.0,0.0,0.0,0.0,0.0,0.0,0.0,0.0,0.0,0.0,0.0,0.0,0.0,0.0,0.0,0.0,0.0,0.0,0.0,0.0,0.0,0.0,0.0,0.0,0.0,0.0,0.0,0.0,0.0,0.0,0.0,0.0,0.0,0.0,0.0,0.0,0.0,0.0,0.0,0.0,0.0,0.0,0.0,0.0,0.0,0.0,0.0,0.0,0.0,0.0,0.0,0.0,0.0,0.0,0.0,0.0,0.0,0.0,0.0,0.0,0.0,0.0,0.0,0.0,0.0,0.0,0.0,0.0,0.0,0.0,0.0,0.0,0.0,0.0,0.0,0.0,0.0,0.0,0.0,0.0,0.0,0.0,0.0,0.0,0.0,0.0,0.0,-1.5904,0.0,-1.8596,0.0,-1.8235,-1.7376,0.0,0.0,0.0,0.0,0.0,0.0,0.0,0.0,0.0,0.0,0.0,0.0,0.0,0.0,0.0,0.0,0.0,0.0,0.0,0.0,0.0,0.0,0.0,0.0,0.0,0.0,0.0,0.0,0.0,0.0,0.0,0.0,0.0,0.0,0.0,0.0,0.0,0.0,0.0,0.0,0.0,0.0,0.0,0.0,0.0,0.0,0.0,0.0,0.0,0.0,0.0,0.0,0.0,0.0,0.0,0.0,0.0,0.0,0.0,0.0,0.0,0.0,0.0,0.0,0.0,0.0,0.0,0.0,0.0,0.0,0.0,0.0,0.0,0.0,0.0,0.0,0.0,0.0,0.0,0.0,0.0,0.0,0.0,0.0,0.0,0.0,0.0,0.0,0.0,0.0,0.0,0.0,0.0,0.0,0.0,0.0,0.0,0.0,0.0,0.0,0.0,0.0,0.0,0.0,0.0,0.0,0.0,0.0,-1.5953,-1.8939,-2.0474,-2.0528,-1.9186,-1.93,-1.8314,0.0,0.0,0.0,0.0,0.0,0.0,0.0,0.0,0.0,0.0,0.0,0.0,0.0,0.0,0.0,0.0,0.0,0.0,0.0,0.0,0.0,0.0,0.0,0.0,0.0,0.0,0.0,0.0,0.0,0.0,0.0,0.0,0.0,0.0,0.0,0.0,0.0,0.0,0.0,0.0,0.0,0.0,0.0,0.0,0.0,0.0,0.0,0.0,0.0,0.0,0.0,0.0,0.0,0.0,0.0,0.0,0.0,0.0,0.0,0.0,0.0,0.0,0.0,0.0,0.0,0.0,0.0,0.0,0.0,0.0,0.0,0.0,0.0,0.0,0.0,0.0,0.0,0.0,0.0,0.0,0.0,0.0,0.0,0.0,0.0,0.0,0.0,0.0,0.0,0.0,0.0,0.0,0.0,0.0,0.0,0.0,0.0,0.0,0.0,0.0,0.0,0.0,0.0,0.0,0.0,0.0,0.0,0.0,0.0,-1.7959,-1.9409,-2.0558,-2.1193,-1.9793,-1.8891,0.0,0.0,0.0,0.0,0.0,0.0,0.0,0.0,0.0,0.0,0.0,0.0,0.0,0.0,0.0,0.0,0.0,0.0,0.0,0.0,0.0,0.0,0.0,0.0,0.0,0.0,0.0,0.0,0.0,0.0,0.0,0.0,0.0,0.0,0.0,0.0,0.0,0.0,0.0,0.0,0.0,0.0,0.0,0.0,0.0,0.0,0.0,0.0,0.0,0.0,0.0,0.0,0.0,0.0,0.0,0.0,0.0,0.0,0.0,0.0,0.0,0.0,0.0,0.0,0.0,0.0,0.0,0.0,0.0,0.0,0.0,0.0,0.0,0.0,0.0,0.0,0.0,0.0,0.0,0.0,0.0,0.0,0.0,0.0,0.0,0.0,0.0,0.0,0.0,0.0,0.0,0.0,0.0,0.0,0.0,0.0,0.0,0.0,0.0,0.0,0.0,0.0,0.0,0.0,0.0,0.0,0.0,0.0,0.0,-1.9092,-2.0623,-2.1684,-2.222,-2.079,-1.9843,-1.9466,0.0,0.0,0.0,0.0,0.0,0.0,0.0,0.0,0.0,0.0,0.0,0.0,0.0,0.0,0.0,0.0,0.0,0.0,0.0,0.0,0.0,0.0,0.0,0.0,0.0,0.0,0.0,0.0,0.0,0.0,0.0,0.0,0.0,0.0,0.0,0.0,0.0,0.0,0.0,0.0,0.0,0.0,0.0,0.0,0.0,0.0,0.0,0.0,0.0,0.0,0.0,0.0,0.0,0.0,0.0,0.0,0.0,0.0,0.0,0.0,0.0,0.0,0.0,0.0,0.0,0.0,0.0,0.0,0.0,0.0,0.0,0.0,0.0,0.0,0.0,0.0,0.0,0.0,0.0,0.0,0.0,0.0,0.0,0.0,0.0,0.0,0.0,0.0,0.0,0.0,0.0,0.0,0.0,0.0,0.0,0.0,0.0,0.0,0.0,0.0,0.0,0.0,0.0,0.0,0.0,0.0,0.0,0.0,-2.1758,-2.3603,-2.3738,-2.2311,-2.2086,-2.1091,0.0,0.0,0.0,0.0,0.0,0.0,0.0,0.0,0.0,0.0,0.0,0.0,0.0,0.0,0.0,0.0,0.0,0.0,0.0,0.0,0.0,0.0,0.0,0.0,0.0,0.0,0.0,0.0,0.0,0.0,0.0,0.0,0.0,0.0,0.0,0.0,0.0,0.0,0.0,0.0,0.0,0.0,0.0,0.0,0.0,0.0,0.0,0.0,0.0,0.0,0.0,0.0,0.0,0.0,0.0,0.0,0.0,0.0,0.0,0.0,0.0,0.0,0.0,0.0,0.0,0.0,0.0,0.0,0.0,0.0,0.0,0.0,0.0,0.0,0.0,0.0,0.0,0.0,0.0,0.0,0.0,0.0,0.0,0.0,0.0,0.0,0.0,0.0,0.0,0.0,0.0,0.0,0.0,0.0,0.0,0.0,0.0,0.0,0.0,0.0,0.0,0.0,0.0,0.0,0.0,0.0,0.0,0.0,0.0,-2.2776,-2.4024,-2.4376,-2.3785,-2.241,-2.1326,0.0,0.0,0.0,0.0,0.0,0.0,0.0,0.0,0.0,0.0,0.0,0.0,0.0,0.0,0.0,0.0,0.0,0.0,0.0,0.0,0.0,0.0,0.0,0.0,0.0,0.0,0.0,0.0,0.0,0.0,0.0,0.0,0.0,0.0,0.0,0.0,0.0,0.0,0.0,0.0,0.0,0.0,0.0,0.0,0.0,0.0,0.0,0.0,0.0,0.0,0.0,0.0,0.0,0.0,0.0,0.0,0.0,0.0,0.0,0.0,0.0,0.0,0.0,0.0,0.0,0.0,0.0,0.0,0.0,0.0,0.0,0.0,0.0,0.0,0.0,0.0,0.0,0.0,0.0,0.0,0.0,0.0,0.0,0.0,0.0,0.0,0.0,0.0,0.0,0.0,0.0,0.0,0.0,0.0,0.0,0.0,0.0,0.0,0.0,0.0,0.0,0.0,0.0,0.0,0.0,0.0,0.0,0.0,-2.2127,-2.3636,-2.4444,-2.4701,-2.4472,-2.3197,-2.2147,0.0,0.0,0.0,0.0,0.0,0.0,0.0,0.0,0.0,0.0,0.0,0.0,0.0,0.0,0.0,0.0,0.0,0.0,0.0,0.0,0.0,0.0,0.0,0.0,0.0,0.0,0.0,0.0,0.0,0.0,0.0,0.0,0.0,0.0,0.0,0.0,0.0,0.0,0.0,0.0,0.0,0.0,0.0,0.0,0.0,0.0,0.0,0.0,0.0,0.0,0.0,0.0,0.0,0.0,0.0,0.0,0.0,0.0,0.0,0.0,0.0,0.0,0.0,0.0,0.0,0.0,0.0,0.0,0.0,0.0,0.0,0.0,0.0,0.0,0.0,0.0,0.0,0.0,0.0,0.0,0.0,0.0,0.0,0.0,0.0,0.0,0.0,0.0,0.0,0.0,0.0,0.0,0.0,0.0,0.0,0.0,0.0,0.0,0.0,0.0,0.0,0.0,0.0,0.0,0.0,0.0,0.0,0.0,-2.3171,-2.441,-2.4855,-2.4966,-2.4605,-2.4173,-2.3171,0.0,0.0,0.0,0.0,0.0,0.0,0.0,0.0,0.0,0.0,0.0,0.0,0.0,0.0,0.0,0.0,0.0,0.0,0.0,0.0,0.0,0.0,0.0,0.0,0.0,0.0,0.0,0.0,0.0,0.0,0.0,0.0,0.0,0.0,0.0,0.0,0.0,0.0,0.0,0.0,0.0,0.0,0.0,0.0,0.0,0.0,0.0,0.0,0.0,0.0,0.0,0.0,0.0,0.0,0.0,0.0,0.0,0.0,0.0,0.0,0.0,0.0,0.0,0.0,0.0,0.0,0.0,0.0,0.0,0.0,0.0,0.0,0.0,0.0,0.0,0.0,0.0,0.0,0.0,0.0,0.0,0.0,0.0,0.0,0.0,0.0,0.0,0.0,0.0,0.0,0.0,0.0,0.0,0.0,0.0,0.0,0.0,0.0,0.0,0.0,0.0,0.0,0.0,0.0,0.0,0.0,0.0,0.0,-2.4214,-2.5221,-2.5668,-2.5705,-2.5291,-2.4202,-2.3078,0.0,0.0,0.0,0.0,0.0,0.0,0.0,0.0,0.0,0.0,0.0,0.0,0.0,0.0,0.0,0.0,0.0,0.0,0.0,0.0,0.0,0.0,0.0,0.0,0.0,0.0,0.0,0.0,0.0,0.0,0.0,0.0,0.0,0.0,0.0,0.0,0.0,0.0,0.0,0.0,0.0,0.0,0.0,0.0,0.0,0.0,0.0,0.0,-2.936,0.0,0.0,0.0,0.0,0.0,0.0,0.0,0.0,0.0,0.0,0.0,0.0,0.0,0.0,0.0,0.0,0.0,0.0,0.0,0.0,0.0,0.0,0.0,0.0,0.0,0.0,0.0,0.0,0.0,0.0,0.0,0.0,0.0,0.0,0.0,0.0,0.0,0.0,0.0,0.0,0.0,0.0,0.0,0.0,0.0,0.0,0.0,0.0,0.0,0.0,0.0,0.0,0.0,0.0,0.0,0.0,0.0,0.0,0.0,-2.5019,-2.5746,-2.5961,-2.5961,-2.5746,-2.5093,-2.3929,0.0,0.0,0.0,0.0,0.0,0.0,0.0,0.0,0.0,0.0,0.0,0.0,0.0,0.0,0.0,0.0,0.0,0.0,0.0,0.0,0.0,0.0,0.0,0.0,0.0,0.0,0.0,0.0,0.0,0.0,0.0,0.0,0.0,0.0,0.0,0.0,0.0,0.0,0.0,0.0,0.0,0.0,0.0,0.0,0.0,0.0,0.0,0.0,0.0,0.0,0.0,0.0,0.0,0.0,0.0,0.0,0.0,0.0,0.0,0.0,0.0,0.0,0.0,0.0,0.0,0.0,0.0,0.0,0.0,0.0,0.0,0.0,0.0,0.0,0.0,0.0,0.0,0.0,0.0,0.0,0.0,0.0,0.0,0.0,0.0,0.0,0.0,0.0,0.0,0.0,0.0,0.0,0.0,0.0,0.0,0.0,0.0,0.0,0.0,0.0,0.0,0.0,0.0,0.0,0.0,0.0,0.0,-2.442,-2.5542,-2.6212,-2.628,-2.628,-2.6212,-2.6315,-2.5198,-2.2834,0.0,0.0,0.0,0.0,0.0,0.0,0.0,0.0,0.0,0.0,0.0,0.0,0.0,0.0,0.0,0.0,0.0,0.0,0.0,0.0,0.0,0.0,0.0,0.0,0.0,0.0,0.0,0.0,0.0,0.0,0.0,0.0,0.0,0.0,0.0,0.0,0.0,0.0,-2.7021,-2.9035,0.0,0.0,0.0,0.0,0.0,0.0,0.0,0.0,-3.1131,0.0,0.0,0.0,0.0,0.0,0.0,0.0,0.0,0.0,0.0,0.0,0.0,0.0,0.0,0.0,0.0,0.0,0.0,0.0,0.0,0.0,0.0,0.0,0.0,0.0,0.0,0.0,0.0,0.0,0.0,0.0,0.0,0.0,0.0,0.0,0.0,0.0,0.0,0.0,0.0,0.0,0.0,0.0,0.0,0.0,0.0,0.0,0.0,0.0,0.0,0.0,0.0,0.0,0.0,0.0,0.0,-2.3819,-2.484,-2.5848,-2.6821,-2.733,-2.7361,-2.6888,-2.7178,-2.6173,-2.3818,0.0,0.0,0.0,0.0,0.0,0.0,0.0,0.0,0.0,0.0,0.0,0.0,0.0,0.0,0.0,0.0,0.0,0.0,0.0,0.0,0.0,0.0,0.0,0.0,0.0,0.0,0.0,0.0,0.0,0.0,0.0,0.0,0.0,0.0,0.0,0.0,0.0,0.0,0.0,-2.9804,-3.0944,0.0,0.0,0.0,0.0,0.0,0.0,0.0,0.0,-3.2156,0.0,0.0,0.0,0.0,0.0,0.0,0.0,0.0,0.0,0.0,0.0,0.0,0.0,0.0,0.0,0.0,0.0,0.0,0.0,0.0,0.0,0.0,0.0,0.0,0.0,0.0,0.0,0.0,0.0,0.0,0.0,0.0,0.0,0.0,0.0,0.0,0.0,0.0,0.0,0.0,0.0,0.0,0.0,0.0,0.0,0.0,0.0,0.0,0.0,0.0,0.0,0.0,0.0,0.0,0.0,-2.3942,-2.5546,-2.6736,-2.7452,-2.7725,-2.7725,-2.7482,-2.7251,-2.6248,0.0,0.0,0.0,0.0,0.0,0.0,0.0,0.0,0.0,0.0,0.0,0.0,0.0,0.0,0.0,0.0,0.0,0.0,0.0,0.0,0.0,0.0,0.0,0.0,0.0,0.0,0.0,0.0,0.0,0.0,0.0,0.0,0.0,0.0,0.0,0.0,0.0,0.0,0.0,0.0,-3.0493,-3.1568,-3.2612,0.0,0.0,0.0,0.0,0.0,0.0,-3.3127,-3.3471,0.0,0.0,0.0,0.0,0.0,0.0,0.0,0.0,0.0,0.0,0.0,0.0,0.0,0.0,0.0,0.0,0.0,0.0,0.0,0.0,0.0,0.0,0.0,0.0,0.0,0.0,0.0,0.0,0.0,0.0,0.0,0.0,0.0,0.0,0.0,0.0,0.0,0.0,0.0,0.0,0.0,0.0,0.0,0.0,0.0,0.0,0.0,0.0,0.0,0.0,0.0,0.0,0.0,0.0,0.0,-2.3618,-2.5757,-2.7093,-2.7493,-2.7698,-2.7769,-2.7733,-2.713,-2.6204,0.0,0.0,0.0,0.0,0.0,0.0,0.0,0.0,0.0,0.0,0.0,0.0,0.0,0.0,0.0,0.0,0.0,0.0,0.0,0.0,0.0,0.0,0.0,0.0,0.0,0.0,0.0,0.0,0.0,0.0,0.0,0.0,0.0,0.0,0.0,0.0,0.0,0.0,0.0,0.0,0.0,-3.2649,-3.3049,-3.2825,0.0,0.0,0.0,0.0,-3.366,-3.4236,0.0,0.0,0.0,0.0,0.0,0.0,0.0,0.0,0.0,0.0,0.0,0.0,0.0,0.0,0.0,0.0,0.0,0.0,0.0,0.0,0.0,0.0,0.0,0.0,0.0,0.0,0.0,0.0,0.0,0.0,0.0,0.0,0.0,0.0,0.0,0.0,0.0,0.0,0.0,0.0,0.0,0.0,0.0,0.0,0.0,0.0,0.0,0.0,0.0,0.0,0.0,0.0,0.0,0.0,0.0,0.0,-2.2793,-2.4739,-2.5922,-2.6247,-2.714,-2.7501,-2.7312,-2.723,-2.6595,0.0,0.0,0.0,0.0,0.0,0.0,0.0,0.0,0.0,0.0,0.0,0.0,0.0,0.0,0.0,0.0,0.0,0.0,0.0,0.0,0.0,0.0,0.0,0.0,0.0,0.0,0.0,0.0,0.0,0.0,0.0,0.0,0.0,0.0,0.0,0.0,0.0,0.0,0.0,0.0,0.0,-3.4832,-3.2765,-3.3938,-3.4532,0.0,0.0,-3.3903,-3.4057,-3.4735,0.0,0.0,0.0,0.0,0.0,0.0,0.0,0.0,0.0,0.0,0.0,0.0,0.0,0.0,0.0,0.0,0.0,0.0,0.0,0.0,0.0,0.0,0.0,0.0,0.0,0.0,0.0,0.0,0.0,0.0,0.0,0.0,0.0,0.0,0.0,0.0,0.0,0.0,0.0,0.0,0.0,0.0,0.0,0.0,0.0,0.0,0.0,0.0,0.0,0.0,0.0,0.0,0.0,0.0,0.0,-2.3414,-2.4023,-2.5667,-2.6641,-2.6886,-2.6908,-2.71,-2.7429,-2.6548,-2.5949,0.0,0.0,0.0,0.0,0.0,0.0,0.0,0.0,0.0,0.0,0.0,0.0,0.0,0.0,0.0,0.0,0.0,0.0,0.0,0.0,0.0,0.0,0.0,0.0,0.0,0.0,0.0,0.0,0.0,0.0,0.0,0.0,0.0,0.0,0.0,0.0,0.0,0.0,0.0,0.0,0.0,0.0,-3.3056,-3.4306,0.0,0.0,0.0,-3.3983,-3.4948,0.0,0.0,0.0,0.0,0.0,0.0,0.0,0.0,0.0,0.0,0.0,0.0,0.0,0.0,0.0,0.0,0.0,0.0,0.0,0.0,0.0,0.0,0.0,0.0,0.0,0.0,0.0,0.0,0.0,0.0,0.0,0.0,0.0,0.0,0.0,0.0,0.0,0.0,0.0,0.0,0.0,0.0,0.0,0.0,0.0,0.0,0.0,0.0,0.0,0.0,0.0,0.0,0.0,0.0,0.0,0.0,0.0,-2.4441,-2.6122,-2.6935,-2.6716,-2.6322,-2.6439,-2.6954,-2.6038,0.0,0.0,0.0,0.0,0.0,0.0,0.0,0.0,0.0,0.0,0.0,0.0,0.0,0.0,0.0,0.0,0.0,0.0,0.0,0.0,0.0,0.0,0.0,0.0,0.0,0.0,0.0,-2.3307,0.0,0.0,0.0,0.0,0.0,0.0,0.0,0.0,0.0,0.0,0.0,0.0,0.0,0.0,-3.5021,-3.3643,-3.487,-3.5917,0.0,0.0,-3.4267,-3.5363,-3.5723,-3.5808,0.0,0.0,0.0,0.0,0.0,0.0,0.0,0.0,0.0,0.0,0.0,0.0,0.0,0.0,0.0,0.0,0.0,0.0,0.0,0.0,0.0,0.0,0.0,0.0,0.0,0.0,0.0,0.0,0.0,0.0,0.0,0.0,0.0,0.0,0.0,0.0,0.0,0.0,0.0,0.0,0.0,0.0,0.0,0.0,0.0,0.0,0.0,0.0,0.0,0.0,0.0,0.0,0.0,0.0,0.0,-2.2885,-2.5242,-2.5826,-2.4361,-2.5047,-2.547,-2.5481,-2.613,-2.5899,0.0,0.0,0.0,0.0,0.0,0.0,0.0,0.0,0.0,0.0,0.0,0.0,0.0,0.0,0.0,0.0,0.0,0.0,0.0,0.0,0.0,0.0,0.0,0.0,0.0,0.0,0.0,0.0,0.0,0.0,0.0,0.0,0.0,0.0,0.0,0.0,0.0,0.0,0.0,0.0,0.0,-3.6198,-3.4633,-3.5919,-3.6768,0.0,0.0,-3.5457,-3.4729,-3.5324,-3.5525,-3.4713,0.0,0.0,0.0,0.0,0.0,0.0,0.0,0.0,0.0,0.0,0.0,0.0,0.0,0.0,0.0,0.0,0.0,0.0,0.0,0.0,0.0,0.0,0.0,0.0,0.0,0.0,0.0,0.0,0.0,0.0,0.0,0.0,0.0,0.0,0.0,0.0,0.0,0.0,0.0,0.0,0.0,0.0,0.0,0.0,0.0,0.0,0.0,0.0,0.0,0.0,0.0,0.0,0.0,-2.4629,-2.4111,-2.5746,-2.6144,-2.5151,-2.4968,-2.5116,-2.5483,-2.5355,-2.512,0.0,0.0,0.0,0.0,0.0,0.0,0.0,0.0,0.0,0.0,0.0,0.0,0.0,0.0,0.0,0.0,0.0,0.0,0.0,0.0,0.0,0.0,0.0,0.0,0.0,0.0,0.0,0.0,-2.4965,-2.5059,-2.5319,0.0,0.0,0.0,0.0,0.0,0.0,0.0,0.0,0.0,0.0,-3.7196,-3.5645,-3.644,0.0,0.0,-3.6708,-3.654,-3.6102,-3.6384,-3.6348,-3.5431,-3.5783,0.0,0.0,0.0,0.0,0.0,0.0,0.0,0.0,0.0,0.0,0.0,0.0,0.0,0.0,0.0,0.0,0.0,0.0,0.0,0.0,0.0,0.0,0.0,0.0,0.0,0.0,0.0,0.0,0.0,0.0,0.0,0.0,0.0,0.0,0.0,0.0,0.0,0.0,0.0,0.0,0.0,0.0,0.0,0.0,0.0,0.0,0.0,0.0,0.0,0.0,0.0,0.0,-2.4974,-2.462,-2.6033,-2.6339,-2.5429,-2.4866,-2.4808,-2.5298,-2.4949,-2.4762,0.0,0.0,0.0,0.0,0.0,0.0,0.0,0.0,0.0,0.0,0.0,0.0,0.0,0.0,0.0,0.0,0.0,0.0,0.0,0.0,0.0,0.0,0.0,0.0,0.0,0.0,0.0,0.0,-2.5347,-2.5452,-2.5726,0.0,0.0,0.0,0.0,0.0,0.0,0.0,0.0,0.0,0.0,-3.7493,-3.6169,-3.6477,-3.6894,-3.7113,-3.7186,-3.7124,-3.6984,-3.7242,-3.7133,-3.6172,0.0,0.0,0.0,0.0,0.0,0.0,0.0,0.0,0.0,0.0,0.0,0.0,0.0,0.0,0.0,0.0,0.0,0.0,0.0,0.0,0.0,0.0,0.0,0.0,0.0,0.0,0.0,-1.9064,0.0,0.0,-1.9026,0.0,0.0,0.0,0.0,0.0,0.0,0.0,0.0,0.0,0.0,0.0,0.0,0.0,0.0,0.0,0.0,0.0,0.0,0.0,0.0,0.0,0.0,-2.4861,-2.3795,-2.5968,-2.6276,-2.4617,-2.4601,-2.4617,-2.4666,-2.5244,-2.5076,-2.4112,0.0,0.0,0.0,0.0,0.0,0.0,0.0,0.0,0.0,0.0,0.0,0.0,0.0,0.0,0.0,0.0,0.0,0.0,0.0,0.0,0.0,0.0,0.0,0.0,0.0,0.0,-2.4956,-2.4943,-2.5153,0.0,0.0,0.0,0.0,0.0,0.0,0.0,0.0,0.0,0.0,-3.6129,-3.6942,-3.6102,-3.5927,-3.624,-3.6938,-3.7138,-3.7124,-3.6908,-3.7544,-3.7742,0.0,0.0,0.0,0.0,0.0,0.0,0.0,0.0,0.0,0.0,0.0,0.0,0.0,0.0,0.0,0.0,0.0,0.0,0.0,0.0,0.0,0.0,0.0,0.0,0.0,0.0,0.0,-2.1667,-2.1227,0.0,0.0,0.0,0.0,0.0,0.0,0.0,0.0,0.0,0.0,0.0,-2.4379,-2.5743,0.0,0.0,0.0,0.0,0.0,0.0,0.0,0.0,0.0,0.0,0.0,0.0,-2.5645,-2.5058,-2.6465,-2.644,-2.4894,-2.4908,-2.4842,-2.4746,-2.4941,-2.4821,-2.4266,0.0,0.0,0.0,0.0,0.0,0.0,0.0,0.0,0.0,0.0,0.0,0.0,0.0,0.0,0.0,0.0,0.0,0.0,0.0,0.0,0.0,0.0,0.0,0.0,0.0,-2.6758,0.0,0.0,0.0,0.0,0.0,0.0,0.0,0.0,0.0,0.0,0.0,-3.7773,-3.7261,-3.7613,-3.7837,-3.7514,-3.69,-3.6968,0.0,0.0,0.0,0.0,0.0,0.0,0.0,0.0,0.0,0.0,0.0,0.0,0.0,0.0,-4.201,-3.8613,-3.7262,-3.673,-3.6955,0.0,0.0,0.0,0.0,0.0,0.0,0.0,0.0,0.0,0.0,0.0,0.0,0.0,0.0,-2.4058,0.0,-2.3323,0.0,0.0,0.0,0.0,0.0,0.0,0.0,0.0,-2.5981,-2.658,-2.6233,-2.756,-2.8349,0.0,-2.8384,-2.7809,0.0,0.0,0.0,0.0,0.0,0.0,0.0,0.0,-2.6606,-2.6224,-2.6984,-2.6759,-2.5564,-2.5247,-2.5057,-2.4926,-2.5073,-2.5227,-2.5335,-2.5133,-2.4909,0.0,0.0,0.0,0.0,0.0,0.0,0.0,0.0,0.0,0.0,0.0,0.0,0.0,0.0,0.0,0.0,0.0,0.0,0.0,0.0,0.0,0.0,0.0,-2.6937,0.0,0.0,0.0,0.0,0.0,0.0,0.0,0.0,0.0,-3.6719,-3.8469,-3.9462,-3.8935,-3.8765,-3.8588,-3.8229,0.0,0.0,0.0,0.0,0.0,0.0,0.0,-3.9299,-3.8996,-3.9954,-4.1005,-4.1737,-4.305,-4.3862,-4.3466,0.0,0.0,-4.1108,-3.9951,-3.9467,-3.9938,-4.034,-4.052,-4.0347,-4.0874,-4.1058,0.0,0.0,0.0,0.0,0.0,0.0,0.0,0.0,-2.6196,-2.6236,0.0,-2.6099,0.0,0.0,0.0,0.0,0.0,-2.5234,0.0,0.0,-2.735,-2.7853,-2.7917,-2.8629,-2.94,-3.0141,-3.0783,-3.1102,-3.1064,-2.8375,0.0,0.0,0.0,0.0,0.0,0.0,-2.7585,-2.7333,-2.7561,-2.7227,-2.6403,-2.5588,-2.513,-2.512,-2.5635,-2.6251,-2.7004,-2.6916,-2.6451,-2.5502,-2.5409,0.0,0.0,0.0,0.0,0.0,0.0,0.0,0.0,0.0,0.0,0.0,0.0,0.0,0.0,0.0,0.0,0.0,0.0,0.0,0.0,-2.7603,0.0,0.0,0.0,0.0,0.0,0.0,0.0,0.0,0.0,0.0,-3.8459,-3.9185,-3.9641,-3.9596,0.0,0.0,0.0,0.0,-3.8193,-3.8912,-3.904,-3.9256,-3.9785,-3.9835,-3.9807,-3.9674,0.0,0.0,-4.3015,-4.3939,-4.4304,-4.3269,-4.3751,-4.4237,-4.4373,-4.36,-4.3111,-4.2987,-4.2634,-4.2432,-4.2341,-4.2516,-4.2668,-2.9502,0.0,0.0,0.0,0.0,-2.8961,-2.94,-3.0087,-2.9832,-2.9558,-2.9242,-2.8806,0.0,0.0,0.0,0.0,0.0,0.0,-2.7683,-2.8357,-2.8806,-2.9107,-2.9357,-3.0223,-3.0862,-3.1272,-3.1441,-3.1832,-3.2371,-3.1613,-2.9899,-2.7379,0.0,0.0,0.0,0.0,-2.8234,-2.8185,-2.8411,-2.7826,-2.6403,-2.6159,-2.5738,-2.513,-2.5698,-2.6178,-2.6458,-2.6908,-2.7052,-2.6707,-2.5984,0.0,0.0,0.0,0.0,0.0,0.0,0.0,0.0,0.0,0.0,0.0,0.0,0.0,0.0,0.0,0.0,0.0,0.0,0.0,-2.9089,-2.9356,-2.9907,0.0,0.0,0.0,0.0,0.0,0.0,0.0,0.0,0.0,-3.9177,-3.9879,-4.0149,0.0,0.0,-3.9099,-3.8823,-3.864,-3.8803,-3.9543,-3.9658,0.0,-3.9632,-4.0174,-4.0728,-4.1071,-4.2358,-4.3392,-4.3553,-4.4321,-4.4735,-4.4346,-4.4946,-4.5281,-4.4583,-4.3911,-4.3426,-4.3258,-4.3128,-4.2955,-4.2886,-4.2848,-4.2655,-3.2142,-3.0968,-3.0951,-3.113,-3.1418,-3.1011,-3.1265,-3.1944,-3.1204,-3.0973,-3.1081,-3.0576,-3.0134,-2.9665,-2.9132,0.0,0.0,0.0,-2.914,-2.974,-2.9526,-2.9503,-2.9682,-3.0254,-3.0812,-3.1236,-3.1221,-3.163,-3.2432,-3.2501,-3.1344,-2.9011,0.0,0.0,-2.8396,-2.8782,-2.9044,-2.9162,-2.9003,-2.8425,-2.7408,-2.672,-2.6285,-2.6144,-2.616,-2.6356,-2.6754,-2.7441,-2.7683,-2.7311,-2.7059,-2.6526,0.0,0.0,0.0,0.0,0.0,0.0,0.0,0.0,0.0,0.0,0.0,-2.6693,-2.669,0.0,0.0,0.0,-3.0171,-3.0707,-3.0803,-3.166,0.0,0.0,0.0,0.0,0.0,0.0,0.0,-3.9414,-3.9801,-3.9905,-3.9805,-4.0198,-4.0323,-3.9841,-3.9599,-3.9485,-3.9468,0.0,-3.9347,-3.9813,-3.9777,-3.976,-3.9927,-4.0427,-4.1033,-4.1994,-4.2841,-4.3463,-4.3697,-4.411,-4.4334,-4.4373,-4.4599,-4.4711,-4.4126,-4.3579,-4.325,-4.3251,-4.3142,-4.2994,-4.2918,-4.2688,-4.253,-3.3764,-3.3658,-3.2504,-3.251,-3.3082,-3.2061,-3.2093,-3.2686,-3.1029,-3.1111,-3.2347,-3.1717,-3.179,-3.2301,-3.1472,0.0,-3.1345,-3.0662,-3.0479,-3.0681,-2.98,-2.939,-2.9316,-2.9353,-2.9725,-3.0469,-3.0511,-3.0942,-3.1688,-3.1848,-3.1516,-3.0689,-3.1478,-3.1185,-2.9859,-2.9729,-2.9883,-3.0185,-2.9431,-2.896,-2.8872,-2.7358,-2.6859,-2.7532,-2.6822,-2.6792,-2.7559,-2.8335,-2.8434,-2.7785,-2.8379,-2.7985,-2.6488,0.0,0.0,0.0,0.0,0.0,0.0,0.0,0.0,0.0,0.0,0.0,0.0,0.0,0.0,0.0,-3.2409,0.0,-3.3619,-3.4326,0.0,0.0,0.0,-3.6228,-3.6294,-3.833,-3.9675,-3.9673,0.0,0.0,-4.0466,-4.0386,-4.033,-4.0471,-4.0253,-4.0076,-3.9996,-3.9873,-3.9785,-3.9762,-3.9575,-3.9701,-4.0312,-4.0578,-4.1212,-4.2581,-4.2817,-4.3024,-4.3487,-4.3679,-4.3608,-4.3646,-4.3468,-4.3397,-4.3324,-4.3176,-4.3029,-4.303,-4.2917,-4.2765,-4.2609,-4.2562,-4.2512,-3.4438,-3.4833,-3.3257,-3.2879,-3.3216,-3.2297,-3.1976,-3.2039,-3.2177,-3.2367,-3.2658,-3.3191,-3.3574,-3.3844,-3.3658,-3.3571,-3.3594,-3.2836,-3.2135,-3.1544,-3.0801,-3.015,-2.9626,-2.9645,-2.983,-3.0162,-3.0784,-3.1218,-3.1424,-3.21,-3.2003,-3.1244,-3.1466,-3.1016,-2.9855,-3.0,-3.0128,-3.0223,-2.9994,-2.9598,-2.8921,-2.7918,-2.7179,-2.672,-2.7594,-2.7989,-2.779,-2.9036,-2.9656,-2.9549,-2.9142,-2.8668,-2.8137,-2.6826,0.0,0.0,0.0,0.0,0.0,0.0,0.0,0.0,0.0,-3.0018,-2.9002,0.0,-3.1763,0.0,-3.4647,-3.554,-3.6211,-3.6445,0.0,0.0,-3.8653,-3.8955,-3.9668,-4.0131,-4.0398,-4.0206,-4.0854,-4.1259,-4.1093,-4.1051,-4.1047,-4.1051,-4.0477,-4.0017,-3.9996,-3.9889,-3.9739,-3.9647,-3.9551,-3.9527,-3.9773,-4.0645,-4.1809,-4.318,-4.3406,-4.3413,-4.3529,-4.4013,-4.4309,-4.4236,-4.4636,-4.4631,-4.3896,-4.3782,-4.3415,-4.2907,-4.2727,-4.2727,-4.253,-4.2792,-4.3088,-3.3916,-3.4131,-3.2826,-3.2302,-3.2411,-3.2241,-3.2147,-3.2089,-3.204,-3.2151,-3.2484,-3.3776,-3.4381,-3.4427,-3.4545,-3.4604,-3.4502,-3.374,-3.318,-3.2653,-3.1883,-3.1299,-3.09,-3.0987,-3.1075,-3.1146,-3.1683,-3.1943,-3.1927,-3.2378,-3.2256,-3.1455,-3.1469,-3.0967,-3.0038,-3.0142,-3.0171,-3.0142,-3.0171,-2.9942,-2.947,-2.8643,-2.7777,-2.6909,-2.7324,-2.7224,-2.653,-2.7999,-2.8736,-2.8464,-2.8731,-2.8679,-2.8259,-2.7328,-2.6726,0.0,0.0,0.0,0.0,0.0,0.0,0.0,0.0,0.0,0.0,0.0,-3.2982,-3.4466,-3.6089,-3.7265,-3.7725,-3.8502,-3.9309,-4.0198,-4.0181,-4.0304,-4.0731,-4.0667,-4.0583,-4.044,-4.1073,-4.1437,-4.1296,-4.125,-4.1244,-4.1222,-4.0463,-3.9911,-3.9911,-3.9845,-3.9693,-3.9575,-3.9477,-3.9537,-3.9713,-4.1089,-4.231,-4.293,-4.3376,-4.3566,-4.3499,-4.3723,-4.3944,-4.387,-4.4084,-4.4114,-4.3599,-4.3736,-4.3656,-4.3207,-4.3238,-4.3304,-4.2894,-4.3251,-4.3607,-3.2905,-3.2724,-3.1815,-3.1465,-3.1521,-3.2129,-3.2269,-3.1994,-3.1223,-3.1373,-3.2268,-3.3836,-3.4492,-3.4495,-3.4791,-3.4831,-3.4672,-3.4131,-3.3809,-3.3657,-3.2917,-3.2538,-3.2424,-3.2521,-3.2575,-3.2547,-3.2806,-3.2813,-3.2622,-3.2806,-3.2477,-3.1675,-3.1599,-3.114,-3.0362,-3.0338,-3.0271,-3.0136,-3.0142,-3.0118,-2.998,-2.9213,-2.8303,-2.7275,-2.6631,-2.5934,-2.5196,-2.6609,-2.7207,-2.675,-2.8063,-2.8593,-2.8007,-2.7774,-2.7718,0.0,-2.845,0.0,0.0,0.0,0.0,0.0,0.0,0.0,0.0,-3.4535,-3.4339,-3.5039,-3.738,-3.8815,-3.8822,-4.0174,-4.1039,-4.089,-4.083,-4.071,-4.0604,-4.0506,-4.046,-4.0526,-4.1132,-4.1549,-4.1504,-4.138,-4.1329,-4.1094,-4.0352,-3.98,-3.98,-3.9754,-3.9647,-3.9526,-3.9413,-3.9517,-4.0111,-4.1459,-4.2432,-4.2451,-4.3085,-4.3529,-4.3429,-4.3397,-4.3324,-4.3285,-4.3315,-4.3235,-4.3051,-4.3544,-4.3817,-4.3607,-4.4005,-4.4165,-4.3633,-4.3854,-4.412,-3.2493,-3.281,-3.1268,-3.1303,-3.2393,-3.1913,-3.1113,-3.0246,-3.064,-3.1692,-3.306,-3.3521,-3.4129,-3.4793,-3.4889,-3.4889,-3.487,-3.4737,-3.4339,-3.3695,-3.3577,-3.3139,-3.2514,-3.2559,-3.2607,-3.2629,-3.3347,-3.3325,-3.2691,-3.3394,-3.3318,-3.2462,-3.2462,-3.2027,-3.1127,0.0,0.0,0.0,-3.0015,-2.9611,-2.8996,-2.8666,-2.777,-2.6321,-2.6639,0.0,-2.6873,-2.77,-2.8508,-2.9147,-2.9504,0.0,0.0,0.0,0.0,0.0,0.0,0.0,0.0,0.0,0.0,0.0,-3.2765,-3.316,-3.4686,-3.7092,-3.8359,-3.7953,-3.9546,-4.0578,-4.0448,-4.0733,-4.0882,-4.0759,-4.0642,-4.0549,-4.0515,-4.0411,-4.0539,-4.117,-4.1932,-4.2404,-4.2259,-4.2231,-4.1859,-4.1146,-4.0306,-3.9769,-3.9722,-3.9708,-3.9623,-3.9452,-3.9309,-3.9417,-4.0023,-4.0991,-4.1852,-4.2243,-4.2981,-4.3461,-4.3503,-4.3798,-4.3939,-4.3935,-4.4281,-4.4515,-4.4396,-4.4328,-4.4306,-4.4333,-4.4632,-4.4683,-4.4071,-4.4402,-4.4834,-3.1513,0.0,-3.0788,-3.0816,0.0,-3.0967,-3.0424,-2.9868,-3.1162,-3.2181,-3.2996,-3.3431,-3.3677,-3.3731,-3.3695,-3.3677,-3.3677,-3.3639,-3.3658,-3.3657,-3.3294,-3.3139,-3.3189,-3.2829,-3.2669,-3.2676,-3.3563,-3.3769,-3.3394,-3.4197,-3.4159,-3.3356,-3.3356,-3.2691,-3.1424,-3.1302,-3.1058,-3.0693,-3.0197,-3.0132,-3.0406,-2.9959,-2.9115,-2.7841,-2.8126,0.0,0.0,0.0,0.0,0.0,0.0,0.0,0.0,0.0,0.0,-3.1162,-3.1295,-3.1537,-3.207,-3.2632,-3.3432,-3.4459,-3.4976,-3.5615,-3.6462,-3.8944,-4.0266,-3.9784,-4.056,-4.0994,-4.0809,-4.0781,-4.0749,-4.0604,-4.0492,-4.0438,-4.0394,-4.0327,-4.0597,-4.134,-4.2079,-4.2585,-4.2458,-4.2342,-4.1893,-4.1113,-4.0236,-3.9698,-3.965,-3.9613,-3.9526,-3.9324,-3.9229,-3.936,-3.9993,-4.0775,-4.1525,-4.2209,-4.2947,-4.3573,-4.3906,-4.4089,-4.4302,-4.4621,-4.4813,-4.4856,-4.485,-4.4848,-4.4955,-4.4926,-4.5176,-4.5369,-4.5019,-4.5215,-4.546,-3.0574,-3.0413,-3.0392,-3.0292,-3.0136,-3.0136,-3.0129,-3.0257,0.0,0.0,0.0,-3.3249,-3.3291,-3.2741,-3.2823,-3.2863,-3.2863,-3.277,-3.3109,-3.3675,-3.2993,-3.3025,-3.3636,-3.2989,-3.2699,-3.2745,-3.3508,-3.3929,-3.4022,-3.4694,-3.4732,-3.4235,-3.4181,-3.3347,-3.1714,-3.1248,-3.1162,-3.1255,-3.065,-3.0749,-3.1657,-3.1224,-3.0528,-2.9569,-2.9608,-2.9027,-2.7737,-2.8296,-2.8427,-2.7998,-2.8671,-2.9438,-3.0234,-3.0278,-3.0993,-3.2607,-3.3435,-3.3929,-3.4246,-3.5097,-3.5736,-3.6021,-3.6902,-3.7803,-3.8664,-4.0039,-4.0879,-4.0916,-4.0942,-4.089,-4.0715,-4.0667,-4.0629,-4.0492,-4.0427,-4.036,-4.0329,-4.031,-4.0635,-4.1492,-4.2189,-4.2481,-4.2412,-4.227,-4.1745,-4.0804,-4.0088,-3.965,-3.9614,-3.9702,-3.9776,-3.9778,-3.9658,-3.962,-4.0244,-4.0849,-4.153,-4.2206,-4.2981,-4.3683,-4.4163,-4.4271,-4.4481,-4.5052,-4.5054,-4.5101,-4.5158,-4.5517,-4.5645,-4.5446,-4.5663,-4.5905,-4.5803,-4.5889,-4.5854,-3.0548,-3.0462,-3.0375,-3.0254,-3.0171,-3.0171,-3.0591,-3.1226,-3.0685,-3.083,-3.1466,-3.2368,-3.3075,-3.3653,-3.4319,-3.4604,-3.4548,-3.4548,-3.4282,-3.3805,-3.365,-3.3337,-3.2882,-3.2745,-3.2722,-3.279,-3.289,-3.3295,-3.3929,-3.412,-3.4464,-3.4945,-3.492,-3.3939,-3.2259,-3.1374,-3.1203,-3.1794,-3.156,-3.0963,-2.9924,-3.0283,-3.0145,-2.9465,-2.9468,-2.9732,-3.0241,-3.0292,-3.0665,-3.125,-3.1461,-3.1692,-3.1864,-3.1921,-3.243,-3.341,-3.3756,-3.4274,-3.511,-3.5516,-3.6076,-3.6943,-3.7822,-3.8706,-3.9527,-3.9836,-4.0274,-4.0964,-4.0981,-4.0878,-4.0715,-4.0615,-4.0508,-4.0363,-4.0309,-4.0329,-4.031,-4.0291,-4.0845,-4.2235,-4.2536,-4.2563,-4.245,-4.2295,-4.1606,-4.0314,-3.9914,-3.9677,-3.9789,-4.005,-4.068,-4.1054,-4.07,-4.0614,-4.1149,-4.1249,-4.1704,-4.2271,-4.3051,-4.3571,-4.3794,-4.3979,-4.4403,-4.508,-4.5401,-4.5829,-4.63,-4.6389,-4.62,-4.6007,-4.5935,-4.5803,-4.5684,-4.5684,-4.5684,-3.0501,-3.0447,-3.039,-3.0305,-3.0223,-3.0223,-3.0386,-3.0617,-3.0205,-3.0478,-3.1184,-3.159,-3.1651,-3.1616,-3.1883,-3.2015,-3.1958,-3.2015,-3.2147,-3.2277,-3.1944,-3.1882,-3.201,-3.1575,-3.1331,-3.1355,-3.1714,-3.2298,-3.3045,-3.3501,-3.4129,-3.4812,-3.3998,-3.3091,-3.2298,-3.1278,-3.071,-3.0611,-3.1448,-3.1912,-3.2039,-3.2002,-3.1771,-3.131,-3.1443,-3.1432,-3.1294,-3.1411,-3.1661,-3.2084,-3.2182,-3.2429,-3.2902,-3.3072,-3.3505,-3.4338,-3.4483,-3.4833,-3.5419,-3.5689,-3.5998,-3.6489,-3.7273,-3.816,-3.9021,-3.9947,-4.0638,-4.0955,-4.0929,-4.084,-4.0667,-4.0615,-4.0539,-4.036,-4.0342,-4.0325,-4.031,-4.0273,-4.0882,-4.2265,-4.2481,-4.2579,-4.2875,-4.2435,-4.1682,-4.0528,-4.0339,-4.0513,-4.0867,-4.1632,-4.1856,-4.125,-4.1111,-4.1558,-4.2143,-4.2262,-4.2507,-4.3124,-4.3443,-4.3747,-4.4046,-4.4309,-4.4626,-4.5675,-4.5917,-4.607,-4.6682,-4.659,-4.635,-4.6154,-4.5955,-4.5787,-4.5581,-4.5476,-4.5476,-3.043,-3.0379,-3.0355,-3.0266,-3.0157,-3.0128,-3.0053,-2.9959,-3.0116,-3.0516,-3.1028,-3.1015,-3.0584,-3.002,-3.0057,-3.0111,-3.0091,-3.0131,-3.0471,-3.0903,-3.0495,-3.0617,-3.1064,-3.0438,-3.0204,-3.0335,-3.0728,-3.1479,-3.2506,-3.3034,-3.3732,-3.4408,-3.324,-3.2504,-3.2427,-3.1582,-3.082,-3.032,-3.1644,-3.2678,-3.3276,-3.3194,-3.3036,-3.2822,-3.3013,-3.2761,-3.1969,-3.2166,-3.2355,-3.2425,-3.2712,-3.3204,-3.3847,-3.4017,-3.4337,-3.4906,-3.5075,-3.5239,-3.5507,-3.59,-3.6158,-3.6228,-3.7191,-3.8079,-3.8789,-4.0216,-4.1056,-4.0953,-4.0896,-4.0809,-4.0667,-4.0642,-4.0612,-4.0422,-4.0389,-4.0436,-4.054,-4.052,-4.1071,-4.2471,-4.2716,-4.2862,-4.3127,-4.2636,-4.1695,-4.0839,-4.0942,-4.1404,-4.1893,-4.2858,-4.2786,-4.1691,-4.1536,-4.219,-4.2922,-4.2819,-4.31,-4.3886,-4.3886,-4.405,-4.4465,-4.4342,-4.4637,-4.5731,-4.5874,-4.5881,-4.6372,-4.6484,-4.6315,-4.6105,-4.5905,-4.5736,-4.5476,-4.5423,-4.5423,-3.0314,-3.029,-3.0215,-3.0142,-3.0022,-2.991,-2.9842,-2.9883,-3.0471,-3.0769,-3.0827,-3.096,-3.0922,-3.0904,-3.1504,-3.1706,-3.1682,-3.1757,-3.1464,-3.1035,-3.0941,-3.0633,-3.0288,-3.0035,-3.0305,-3.0835,-3.0402,-3.124,-3.3184,-3.277,-3.3164,-3.4277,-3.3639,-3.3103,-3.2887,-3.2551,-3.2353,-3.2327,-3.3066,-3.2517,-3.0772,-3.2023,-3.2672,-3.2543,-3.257,-3.2585,-3.2463,-3.2808,-3.297,-3.3097,-3.4028,-3.4679,-3.4774,-3.4851,-3.4906,-3.4982,-3.5148,-3.5285,-3.5631,-3.6435,-3.6961,-3.7191,-3.8557,-3.9484,-3.9647,-4.0528,-4.112,-4.1039,-4.0935,-4.0809,-4.0759,-4.0694,-4.0574,-4.0454,-4.0367,-4.0555,-4.1055,-4.1223,-4.1888,-4.367,-4.3498,-4.3587,-4.3596,-4.2981,-4.1844,-4.0621,-4.1282,-4.178,-4.1841,-4.3025,-4.3574,-4.2486,-4.2222,-4.2536,-4.3114,-4.261,-4.2983,-4.4055,-4.425,-4.4214,-4.424,-4.4119,-4.4107,-4.5296,-4.5212,-4.5456,-4.598,-4.6198,-4.635,-4.6055,-4.5889,-4.5736,-4.5476,-4.5423,-4.5423,-3.0241,-3.0122,-3.0066,-3.0015,-2.9926,-2.9842,-2.9773,-2.9757,-3.047,-3.0764,-3.0756,-3.125,-3.1437,-3.147,-3.1747,-3.1874,-3.1874,-3.1976,-3.1853,-3.1541,-3.1242,-3.1145,-3.1293,-3.0784,-3.0958,-3.1563,-3.0847,-3.1409,-3.2938,-3.335,-3.3687,-3.3932,-3.3302,-3.2798,-3.2548,-3.1952,-3.1691,-3.178,-3.1545,-3.1128,-3.083,-3.2381,-3.302,-3.2466,-3.2931,-3.2931,-3.252,-3.3073,-3.3573,-3.3733,-3.4308,-3.4706,-3.4788,-3.4965,-3.5075,-3.5113,-3.5703,-3.6171,-3.6288,-3.722,-3.7825,-3.796,-3.9095,-3.9791,-3.9843,-4.0606,-4.112,-4.1084,-4.0976,-4.0926,-4.0926,-4.0878,-4.0781,-4.0629,-4.0574,-4.0654,-4.0816,-4.0823,-4.1455,-4.2986,-4.3194,-4.3569,-4.4217,-4.3836,-4.2845,-4.1932,-4.2412,-4.2948,-4.2924,-4.3978,-4.4246,-4.3624,-4.3292,-4.3316,-4.3526,-4.3288,-4.3542,-4.4143,-4.4355,-4.425,-4.4266,-4.4017,-4.4202,-4.5423,-4.5443,-4.5739,-4.6542,-4.6514,-4.6542,-4.6154,-4.5838,-4.5632,-4.5423,-4.5423,-4.5423,-3.0142,-2.9984,-2.9915,-2.9851,-2.9842,-2.9755,-2.9795,-3.0001,-3.0767,-3.1208,-3.1384,-3.2166,-3.2501,-3.2441,-3.2001,-3.1718,-3.1764,-3.1644,-3.1619,-3.1532,-3.0922,-3.1035,-3.1713,-3.1261,-3.1411,-3.2098,-3.1432,-3.16,-3.2773,-3.3573,-3.385,-3.3588,-3.3076,-3.273,-3.2547,-3.1928,-3.1646,-3.1701,-3.113,-3.0928,-3.1462,-3.2712,-3.3016,-3.222,-3.2821,-3.2886,-3.2141,-3.2984,-3.356,-3.3684,-3.4362,-3.4742,-3.4685,-3.5324,-3.5741,-3.5869,-3.6534,-3.7007,-3.7128,-3.8048,-3.8666,-3.8864,-3.9619,-4.0135,-4.0273,-4.0734,-4.1062,-4.1134,-4.1266,-4.1363,-4.1015,-4.1185,-4.1238,-4.1079,-4.1042,-4.104,-4.1216,-4.0943,-4.1412,-4.2867,-4.333,-4.3561,-4.4537,-4.4326,-4.3561,-4.2929,-4.354,-4.421,-4.4231,-4.4748,-4.5074,-4.4269,-4.4037,-4.3802,-4.3558,-4.3612,-4.3984,-4.4196,-4.432,-4.4589,-4.4693,-4.4543,-4.4724,-4.602,-4.5954,-4.6172,-4.6767,-4.6859,-4.6742,-4.635,-4.6055,-4.5803,-4.5701,-4.5581,-4.5423,-2.9926,-2.9876,-2.9699,-2.9626,-2.9699,-2.9551,-2.9942,-3.0611,-3.147,-3.2291,-3.2926,-3.3709,-3.4195,-3.3948,-3.2418,-3.1778,-3.1644,-3.1088,-3.0835,-3.0847,-3.0006,-2.9953,-3.0706,-3.074,-3.1555,-3.2827,-3.1982,-3.1765,-3.2411,-3.3037,-3.335,-3.3284,-3.3299,-3.3328,-3.3234,-3.3045,-3.3057,-3.2883,-3.2594,-3.2648,-3.2656,-3.2601,-3.2282,-3.1831,-3.1826,-3.1923,-3.187,-3.2291,-3.2584,-3.2627,-3.4451,-3.5203,-3.4883,-3.6222,-3.7222,-3.7468,-3.7597,-3.7737,-3.7954,-3.8788,-3.9398,-3.9638,-4.0409,-4.1012,-4.0935,-4.1015,-4.1091,-4.1097,-4.1792,-4.1925,-4.131,-4.1769,-4.2082,-4.1955,-4.1867,-4.2078,-4.2678,-4.1908,-4.243,-4.3684,-4.4047,-4.4261,-4.4414,-4.4264,-4.3974,-4.3602,-4.3904,-4.441,-4.4515,-4.5016,-4.4978,-4.4478,-4.4093,-4.3769,-4.3159,-4.35,-4.3852,-4.4113,-4.4613,-4.5016,-4.5413,-4.5763,-4.6165,-4.6576,-4.6854,-4.7057,-4.7168,-4.7143,-4.6972,-4.6707,-4.6519,-4.6328,-4.6119,-4.5701,-4.5528,-2.9839,-2.9735,-2.9454,-2.9373,-2.9397,-2.9249,-2.9643,-3.0442,-3.0692,-3.126,-3.19,-3.2269,-3.2354,-3.2342,-3.1765,-3.1837,-3.24,-3.2093,-3.1959,-3.1874,-3.1663,-3.1935,-3.2502,-3.2084,-3.2327,-3.3136,-3.2418,-3.2028,-3.2218,-3.2922,-3.3232,-3.3111,-3.3111,-3.3111,-3.3086,-3.2993,-3.2898,-3.2763,-3.2211,-3.2009,-3.2229,-3.1707,-3.1463,-3.1879,-3.2113,-3.2125,-3.181,-3.3057,-3.3749,-3.3837,-3.5202,-3.5917,-3.5926,-3.6776,-3.7409,-3.7624,-3.8155,-3.8584,-3.8808,-3.9576,-4.0166,-4.0429,-4.0758,-4.1022,-4.1086,-4.1092,-4.1094,-4.1281,-4.19,-4.2162,-4.2134,-4.2564,-4.2995,-4.2842,-4.2395,-4.2176,-4.2251,-4.2078,-4.2348,-4.3511,-4.4438,-4.521,-4.5156,-4.5248,-4.5117,-4.4924,-4.5063,-4.5153,-4.5163,-4.5303,-4.5246,-4.5033,-4.484,-4.4551,-4.3713,-4.3769,-4.4069,-4.4448,-4.4862,-4.5294,-4.5693,-4.5933,-4.6232,-4.741,-4.7793,-4.7784,-4.7758,-4.756,-4.7385,-4.7124,-4.6945,-4.6799,-4.6602,-4.6119,-4.587,-2.9551,-2.9416,-2.9185,-2.9119,-2.9148,-2.903,-2.9462,-3.0221,-3.0186,-3.0601,-3.1224,-3.1297,-3.1272,-3.1174,-3.0929,-3.1334,-3.2219,-3.2281,-3.2415,-3.2496,-3.2364,-3.2632,-3.3086,-3.2611,-3.2766,-3.3284,-3.2777,-3.2349,-3.2265,-3.2737,-3.2894,-3.2737,-3.2702,-3.2705,-3.2606,-3.2539,-3.2438,-3.2229,-3.1741,-3.1603,-3.1812,-3.1286,-3.1214,-3.1913,-3.2511,-3.2745,-3.2505,-3.3701,-3.4614,-3.5059,-3.5957,-3.6801,-3.732,-3.7596,-3.794,-3.8343,-3.8995,-3.9485,-3.9588,-4.013,-4.0615,-4.083,-4.0882,-4.0961,-4.1082,-4.1126,-4.1092,-4.1328,-4.2186,-4.281,-4.2951,-4.3674,-4.4206,-4.3889,-4.3296,-4.2925,-4.2834,-4.2576,-4.2873,-4.3736,-4.4935,-4.5645,-4.58,-4.58,-4.5733,-4.5781,-4.5696,-4.5632,-4.5586,-4.5495,-4.5419,-4.5418,-4.5281,-4.5031,-4.4572,-4.4513,-4.4204,-4.4456,-4.529,-4.5647,-4.6135,-4.6299,-4.6853,-4.8033,-4.8514,-4.8438,-4.8309,-4.8082,-4.7842,-4.7596,-4.7428,-4.7335,-4.6981,-4.6566,-4.6328,-2.9007,-2.8934,-2.8892,-2.8915,-2.8888,-2.8879,-2.9379,-3.0075,-3.0075,-3.0418,-3.1078,-3.1201,-3.1041,-3.1102,-3.0301,-3.0331,-3.1157,-3.1435,-3.1816,-3.2265,-3.17,-3.1819,-3.252,-3.2399,-3.2596,-3.3284,-3.2952,-3.2666,-3.2435,-3.2404,-3.2301,-3.2161,-3.2197,-3.2161,-3.1913,-3.202,-3.1948,-3.1877,-3.17,-3.1631,-3.1671,-3.1336,-3.1393,-3.186,-3.2645,-3.3354,-3.3804,-3.4115,-3.481,-3.5788,-3.6703,-3.7838,-3.8701,-3.8662,-3.8899,-3.9634,-4.01,-4.0234,-4.0248,-4.0406,-4.0574,-4.0759,-4.0857,-4.0942,-4.1055,-4.1111,-4.1119,-4.1324,-4.246,-4.3516,-4.3702,-4.4809,-4.5468,-4.4939,-4.4528,-4.4383,-4.4266,-4.3802,-4.3634,-4.4485,-4.5374,-4.5761,-4.58,-4.58,-4.5771,-4.5712,-4.5665,-4.5599,-4.5512,-4.5458,-4.5418,-4.5398,-4.5319,-4.5163,-4.5201,-4.5201,-4.4679,-4.4402,-4.5451,-4.6165,-4.6955,-4.7344,-4.7822,-4.8814,-4.8946,-4.8907,-4.8704,-4.8532,-4.8421,-4.8231,-4.8038,-4.7797,-4.7506,-4.716,-4.6707,-2.8938,-2.8865,-2.8749,-2.87,-2.8749,-2.8626,-2.9047,-2.9663,-2.9202,-2.9357,-2.9899,-2.9449,-2.9494,-2.9899,-2.9673,-3.0198,-3.1351,-3.1541,-3.1708,-3.1959,-3.23,-3.2552,-3.2685,-3.2634,-3.2684,-3.2699,-3.2437,-3.2197,-3.2056,-3.1948,-3.1839,-3.1804,-3.1841,-3.1913,-3.1949,-3.1841,-3.1731,-3.1617,-3.1504,-3.1359,-3.1176,-3.1083,-3.1145,-3.1297,-3.1895,-3.2823,-3.4376,-3.55,-3.623,-3.6616,-3.7475,-3.824,-3.881,-3.8984,-3.9288,-3.9724,-3.9975,-4.0176,-4.0291,-4.0398,-4.0469,-4.0591,-4.0742,-4.089,-4.1017,-4.1055,-4.1111,-4.1197,-4.2134,-4.2997,-4.3707,-4.4648,-4.5414,-4.5657,-4.5131,-4.4799,-4.4742,-4.4421,-4.4614,-4.5258,-4.5645,-4.58,-4.58,-4.5786,-4.5795,-4.5765,-4.5703,-4.5637,-4.5568,-4.5477,-4.54,-4.5418,-4.5319,-4.5277,-4.5316,-4.5507,-4.5426,-4.53,-4.6045,-4.6797,-4.7586,-4.8277,-4.8792,-4.9077,-4.9277,-4.9225,-4.9027,-4.889,-4.8822,-4.8679,-4.842,-4.8192,-4.8035,-4.7674,-4.7248,-2.8651,-2.8615,-2.851,-2.8432,-2.837,-2.821,-2.8413,-2.8713,-2.8266,-2.8422,-2.8888,-2.8547,-2.8699,-2.9268,-2.9374,-3.0047,-3.1105,-3.124,-3.1449,-3.1797,-3.2612,-3.2898,-3.2639,-3.2438,-3.2266,-3.2126,-3.1949,-3.1841,-3.1802,-3.1691,-3.1582,-3.1585,-3.1545,-3.1542,-3.1614,-3.1701,-3.1681,-3.1636,-3.1786,-3.1765,-3.1541,-3.1332,-3.1307,-3.1429,-3.1837,-3.2879,-3.4436,-3.5935,-3.6988,-3.7446,-3.8049,-3.8496,-3.8773,-3.9082,-3.935,-3.9551,-3.9807,-4.0058,-4.0234,-4.0307,-4.046,-4.0577,-4.0715,-4.0811,-4.0906,-4.1017,-4.1046,-4.1163,-4.2233,-4.3099,-4.3729,-4.4837,-4.5623,-4.6101,-4.5683,-4.5317,-4.5204,-4.5144,-4.526,-4.5673,-4.58,-4.58,-4.58,-4.581,-4.5781,-4.5765,-4.5671,-4.5586,-4.5494,-4.5419,-4.54,-4.5378,-4.5357,-4.5316,-4.5316,-4.5638,-4.6075,-4.6367,-4.6768,-4.7378,-4.805,-4.8616,-4.9205,-4.9265,-4.939,-4.9257,-4.9094,-4.903,-4.8927,-4.8822,-4.8679,-4.8532,-4.8306,-4.8075,-4.771,-2.8219,-2.8136,-2.8136,-2.8025,-2.7818,-2.7789,-2.7806,-2.7666,-2.7631,-2.8021,-2.8447,-2.8583,-2.8866,-2.9386,-2.9592,-3.0041,-3.0488,-3.0767,-3.1113,-3.1706,-3.23,-3.2472,-3.2162,-3.1877,-3.1694,-3.1579,-3.1542,-3.1542,-3.1504,-3.1602,-3.1538,-3.1423,-3.1433,-3.1274,-3.1422,-3.1616,-3.1883,-3.1941,-3.2287,-3.2497,-3.2507,-3.2083,-3.1926,-3.2119,-3.2582,-3.3317,-3.4306,-3.5827,-3.7142,-3.8129,-3.8396,-3.859,-3.8803,-3.9064,-3.9192,-3.9324,-3.9717,-3.9958,-4.01,-4.0271,-4.046,-4.0615,-4.0694,-4.0742,-4.082,-4.0906,-4.0987,-4.1078,-4.2442,-4.3482,-4.3801,-4.4993,-4.5976,-4.6284,-4.6114,-4.6005,-4.5983,-4.5929,-4.5854,-4.5789,-4.58,-4.58,-4.58,-4.581,-4.5765,-4.5719,-4.5582,-4.5494,-4.5438,-4.5419,-4.5319,-4.5337,-4.5337,-4.5316,-4.5316,-4.5889,-4.6342,-4.6906,-4.7365,-4.8022,-4.8466,-4.8993,-4.9318,-4.9415,-4.9427,-4.9327,-4.9193,-4.9098,-4.8996,-4.8892,-4.8787,-4.8715,-4.8495,-4.8306,-4.8111,-2.7707,-2.7677,-2.7582,-2.7552,-2.7587,-2.7457,-2.7712,-2.8135,-2.8169,-2.8487,-2.9007,-2.9145,-2.9489,-3.0143,-3.0212,-3.0625,-3.1104,-3.1278,-3.1379,-3.1582,-3.1765,-3.1841,-3.1768,-3.1657,-3.1542,-3.1351,-3.1263,-3.1117,-3.1072,-3.153,-3.1691,-3.1683,-3.2068,-3.236,-3.246,-3.2386,-3.2354,-3.2154,-3.2077,-3.2243,-3.2475,-3.2269,-3.2362,-3.2942,-3.3373,-3.4037,-3.4921,-3.6538,-3.7677,-3.8263,-3.8428,-3.8585,-3.8737,-3.8826,-3.8961,-3.9122,-3.9377,-3.9664,-3.9944,-4.0139,-4.0321,-4.0523,-4.0615,-4.0718,-4.0726,-4.082,-4.0874,-4.1101,-4.2,-4.2727,-4.2983,-4.4357,-4.5508,-4.6195,-4.6236,-4.6196,-4.6137,-4.6047,-4.5956,-4.5944,-4.5838,-4.58,-4.5786,-4.5742,-4.5696,-4.5665,-4.5582,-4.5514,-4.5419,-4.54,-4.5357,-4.5357,-4.5319,-4.5298,-4.5468,-4.608,-4.6641,-4.7289,-4.7896,-4.8666,-4.906,-4.9408,-4.9506,-4.949,-4.9427,-4.9327,-4.923,-4.9168,-4.903,-4.8962,-4.8855,-4.875,-4.8679,-4.8458,-4.8343,-2.7948,-2.7983,-2.8167,-2.8209,-2.8178,-2.8078,-2.8185,-2.8425,-2.8492,-2.8866,-2.9372,-2.9508,-2.9844,-3.0489,-3.0484,-3.0722,-3.1128,-3.1201,-3.1123,-3.1117,-3.1078,-3.1196,-3.124,-3.1201,-3.1213,-3.1395,-3.1307,-3.1341,-3.148,-3.1824,-3.1902,-3.1802,-3.2105,-3.2321,-3.228,-3.2787,-3.2886,-3.284,-3.2949,-3.3328,-3.3516,-3.3182,-3.3244,-3.3633,-3.3836,-3.4185,-3.5238,-3.6594,-3.7542,-3.8032,-3.8396,-3.8475,-3.8309,-3.8626,-3.8596,-3.8255,-3.8562,-3.885,-3.8861,-3.9261,-3.9697,-3.9934,-4.0246,-4.0602,-4.0655,-4.0703,-4.078,-4.0946,-4.1746,-4.2396,-4.3119,-4.4485,-4.5623,-4.6189,-4.6245,-4.624,-4.6222,-4.6115,-4.6053,-4.5984,-4.5877,-4.58,-4.5824,-4.5712,-4.5665,-4.5671,-4.555,-4.5495,-4.5419,-4.538,-4.5378,-4.5357,-4.5319,-4.5298,-4.5736,-4.6347,-4.7083,-4.7694,-4.8397,-4.9191,-4.9344,-4.9642,-4.9582,-4.949,-4.939,-4.9358,-4.923,-4.9131,-4.9064,-4.8959,-4.8925,-4.882,-4.8714,-4.8605,-4.8494,-2.8585,-2.8655,-2.9144,-2.9282,-2.907,-2.8996,-2.8783,-2.8762,-2.8762,-2.9087,-2.9609,-2.9742,-3.0009,-3.0468,-3.0468,-3.0477,-3.051,-3.0593,-3.0551,-3.051,-3.0543,-3.07,-3.1146,-3.0784,-3.0879,-3.1221,-3.1462,-3.1724,-3.1949,-3.2164,-3.2122,-3.1966,-3.1823,-3.1801,-3.2201,-3.2804,-3.3242,-3.3388,-3.3933,-3.4352,-3.4432,-3.4196,-3.4074,-3.4286,-3.4167,-3.4465,-3.5352,-3.6272,-3.6981,-3.7685,-3.8303,-3.8266,-3.7845,-3.8449,-3.8029,-3.7221,-3.7575,-3.7742,-3.7544,-3.8474,-3.9071,-3.9371,-4.012,-4.0469,-4.053,-4.0629,-4.0718,-4.0787,-4.1655,-4.263,-4.3815,-4.5273,-4.5968,-4.6225,-4.63,-4.6261,-4.621,-4.6157,-4.6105,-4.6009,-4.5891,-4.5838,-4.5781,-4.5696,-4.5632,-4.5637,-4.5532,-4.5514,-4.54,-4.536,-4.5319,-4.5298,-4.5298,-4.5277,-4.5927,-4.6653,-4.7442,-4.8175,-4.8899,-4.9504,-4.9416,-4.9551,-4.9521,-4.9459,-4.9358,-4.9295,-4.923,-4.9164,-4.9064,-4.8959,-4.889,-4.8892,-4.8822,-4.8678,-4.8606,-2.8578,-2.8578,-2.8673,-2.8703,-2.8736,-2.8661,-2.892,-2.9376,-2.9376,-2.9696,-3.0145,-3.0278,-3.0344,-3.0468,-3.0426,-3.0468,-3.0342,-3.0342,-3.0375,-3.0258,-3.0248,-3.0695,-3.1143,-3.0892,-3.0674,-3.0826,-3.1276,-3.155,-3.171,-3.2288,-3.2431,-3.2265,-3.2514,-3.2907,-3.2855,-3.3125,-3.3387,-3.324,-3.3485,-3.3893,-3.4154,-3.4173,-3.433,-3.4777,-3.507,-3.5402,-3.5805,-3.6394,-3.6746,-3.7097,-3.7685,-3.819,-3.8193,-3.7991,-3.7676,-3.7377,-3.7044,-3.728,-3.7887,-3.832,-3.895,-3.97,-4.0077,-4.0411,-4.0554,-4.0583,-4.0668,-4.0861,-4.1602,-4.2829,-4.4407,-4.4998,-4.5653,-4.615,-4.63,-4.63,-4.6296,-4.622,-4.6152,-4.6072,-4.597,-4.5841,-4.5765,-4.5742,-4.568,-4.5603,-4.555,-4.5532,-4.5438,-4.5339,-4.5319,-4.5319,-4.5277,-4.5337,-4.5778,-4.6691,-4.7829,-4.8542,-4.9277,-4.9604,-4.9551,-4.949,-4.949,-4.9427,-4.9327,-4.9262,-4.9197,-4.9098,-4.8996,-4.8925,-4.889,-4.8855,-4.8822,-4.8714,-4.8642,-2.8662,-2.8655,-2.8903,-2.9026,-2.9067,-2.8985,-2.9214,-2.9541,-2.9741,-2.9854,-3.0021,-3.0172,-3.0172,-3.0044,-3.0044,-3.0,-2.9957,-2.9913,-2.9826,-2.9758,-2.9939,-3.0312,-3.0701,-3.1118,-3.1292,-3.1502,-3.1935,-3.2141,-3.2273,-3.2455,-3.2656,-3.2394,-3.2792,-3.2748,-3.2895,-3.3245,-3.3403,-3.336,-3.3512,-3.3843,-3.4038,-3.4167,-3.4451,-3.5115,-3.561,-3.5932,-3.6105,-3.6284,-3.658,-3.69,-3.7321,-3.768,-3.7899,-3.7812,-3.7638,-3.7137,-3.7285,-3.7151,-3.7667,-3.8146,-3.8726,-3.9371,-3.991,-4.0248,-4.0444,-4.0523,-4.0651,-4.0887,-4.1656,-4.2857,-4.4679,-4.5429,-4.5817,-4.6111,-4.63,-4.63,-4.6296,-4.6231,-4.6162,-4.608,-4.5932,-4.5827,-4.5786,-4.5757,-4.5696,-4.5582,-4.555,-4.5475,-4.5419,-4.5378,-4.538,-4.536,-4.5357,-4.5413,-4.5722,-4.6669,-4.8161,-4.8844,-4.9514,-4.9604,-4.9521,-4.949,-4.9459,-4.9358,-4.9295,-4.923,-4.9164,-4.903,-4.8962,-4.889,-4.889,-4.8855,-4.8857,-4.8824,-4.8715,-2.8801,-2.8834,-2.9392,-2.9572,-2.9605,-2.9528,-2.9496,-2.9528,-2.9782,-2.9761,-2.9605,-2.9826,-2.9826,-2.9605,-2.956,-2.9515,-2.947,-2.9412,-2.9321,-2.9561,-2.9942,-3.0275,-3.0633,-3.1439,-3.2159,-3.308,-3.2816,-3.278,-3.2782,-3.2873,-3.2586,-3.2407,-3.2407,-3.2437,-3.2468,-3.285,-3.3171,-3.3161,-3.3598,-3.3903,-3.4118,-3.417,-3.4518,-3.5037,-3.562,-3.6034,-3.6233,-3.6371,-3.6478,-3.6961,-3.7044,-3.7038,-3.7214,-3.7446,-3.7644,-3.6731,-3.7184,-3.732,-3.7403,-3.789,-3.847,-3.8659,-3.9564,-4.0138,-4.0321,-4.0716,-4.0974,-4.1351,-4.2071,-4.3315,-4.4738,-4.5582,-4.6093,-4.6273,-4.63,-4.63,-4.6296,-4.6231,-4.6169,-4.6017,-4.5929,-4.5829,-4.5771,-4.5727,-4.5665,-4.5599,-4.5547,-4.5514,-4.5438,-4.5436,-4.5495,-4.54,-4.5339,-4.6003,-4.6407,-4.6686,-4.8112,-4.9094,-4.9721,-4.9604,-4.9521,-4.949,-4.9459,-4.9358,-4.9295,-4.9197,-4.9131,-4.903,-4.8962,-4.889,-4.889,-4.8855,-4.8895,-4.8896,-4.89,-2.9399,-2.9399,-2.9451,-2.9515,-2.9515,-2.9515,-2.947,-2.9515,-2.9515,-2.9605,-2.9572,-2.9617,-2.9649,-2.9528,-2.9605,-2.947,-2.9243,-2.92,-2.9406,-2.9738,-3.0116,-3.0571,-3.1565,-3.1903,-3.2499,-3.2667,-3.2654,-3.2532,-3.2516,-3.2523,-3.2413,-3.2191,-3.2272,-3.2272,-3.2247,-3.2413,-3.2796,-3.2873,-3.3224,-3.3414,-3.3455,-3.3885,-3.4349,-3.4956,-3.5645,-3.6242,-3.6625,-3.6569,-3.6679,-3.745,-3.7079,-3.7122,-3.7363,-3.7492,-3.7453,-3.7331,-3.7156,-3.7367,-3.7873,-3.8077,-3.8664,-3.9232,-3.9954,-4.0252,-4.0581,-4.1215,-4.1724,-4.2293,-4.3241,-4.45,-4.4855,-4.5726,-4.6133,-4.6276,-4.63,-4.63,-4.63,-4.6284,-4.6274,-4.6231,-4.6042,-4.5905,-4.5866,-4.5834,-4.5866,-4.5873,-4.5863,-4.5781,-4.5668,-4.5686,-4.5668,-4.5553,-4.538,-4.6292,-4.7198,-4.7395,-4.8125,-4.9208,-4.9721,-4.9604,-4.9551,-4.9521,-4.9459,-4.9327,-4.9262,-4.9164,-4.9098,-4.9033,-4.9073,-4.915,-4.9039,-4.893,-4.9267,-4.9602,-4.9603,-2.8763,-2.8763,-2.8732,-2.8779,-2.8826,-2.8826,-2.8905,-2.8998,-2.9198,-2.9152,-2.9106,-2.9243,-2.9166,-2.9013,-2.8967,-2.8873,-2.8826,-2.9073,-2.9304,-2.9726,-3.0379,-3.1021,-3.1935,-3.2133,-3.2369,-3.2485,-3.2358,-3.2191,-3.2191,-3.2191,-3.2191,-3.2247,-3.2358,-3.2358,-3.2444,-3.2718,-3.2796,-3.2796,-3.3043,-3.315,-3.3212,-3.3989,-3.4775,-3.5442,-3.6295,-3.7126,-3.7614,-3.7723,-3.7828,-3.82,-3.8119,-3.7947,-3.7919,-3.7972,-3.802,-3.7973,-3.7808,-3.8155,-3.9053,-3.941,-3.9888,-4.0728,-4.1063,-4.1322,-4.1635,-4.2232,-4.2821,-4.3528,-4.3912,-4.4996,-4.5552,-4.5987,-4.6169,-4.6284,-4.6309,-4.63,-4.63,-4.6292,-4.6391,-4.6562,-4.6696,-4.6496,-4.6009,-4.6035,-4.6095,-4.6128,-4.6136,-4.6121,-4.5994,-4.6224,-4.6359,-4.6512,-4.6512,-4.7067,-4.7898,-4.8067,-4.8315,-4.9257,-4.9901,-4.9784,-4.9732,-4.9784,-4.954,-4.9262,-4.9197,-4.9496,-4.9068,-4.8999,-4.915,-4.9447,-4.9559,-4.9709,-5.0046,-5.0269,-5.034,-2.8039,-2.8069,-2.8069,-2.8118,-2.8186,-2.8186,-2.8284,-2.8429,-2.8779,-2.8857,-2.8693,-2.9029,-2.9123,-2.8927,-2.8891,-2.8824,-2.8694,-2.9296,-2.9572,-3.0022,-3.0729,-3.1344,-3.1682,-3.1989,-3.2327,-3.2327,-3.2135,-3.2053,-3.2135,-3.2109,-3.2191,-3.2302,-3.2413,-3.2523,-3.2718,-3.2773,-3.2935,-3.3043,-3.315,-3.3256,-3.3773,-3.4607,-3.5505,-3.6141,-3.7248,-3.801,-3.8413,-3.857,-3.8816,-3.9016,-3.9041,-3.8929,-3.8566,-3.878,-3.8942,-3.8948,-3.8946,-3.9616,-4.0308,-4.0792,-4.1023,-4.163,-4.2177,-4.2466,-4.2787,-4.311,-4.3879,-4.476,-4.5054,-4.5317,-4.5947,-4.6175,-4.6243,-4.6287,-4.6309,-4.63,-4.637,-4.6475,-4.6677,-4.6917,-4.7281,-4.7151,-4.6717,-4.6113,-4.6137,-4.6506,-4.6553,-4.6915,-4.6914,-4.73,-4.7492,-4.7812,-4.7983,-4.8221,-4.8583,-4.8655,-4.8935,-4.9494,-5.0081,-5.0258,-5.0139,-5.0115,-4.9952,-5.0038,-5.0113,-5.0268,-4.962,-4.9336,-4.993,-5.0302,-5.0339,-5.0416,-5.0602,-5.097,-5.1226,-2.8314,-2.8186,-2.8186,-2.8186,-2.8186,-2.8186,-2.8186,-2.8284,-2.846,-2.8799,-2.9212,-2.9503,-2.9831,-3.0072,-3.0074,-3.0104,-3.0084,-3.0176,-3.0452,-3.0852,-3.1282,-3.1767,-3.2167,-3.2321,-3.2302,-3.2247,-3.2079,-3.2135,-3.2247,-3.2191,-3.2191,-3.2302,-3.2413,-3.2523,-3.2499,-3.2718,-3.2578,-3.2633,-3.2935,-3.3561,-3.4292,-3.4771,-3.5348,-3.6045,-3.703,-3.8033,-3.8696,-3.8997,-3.9302,-4.0027,-3.9623,-3.9447,-3.9549,-3.9629,-3.983,-3.995,-4.0035,-4.024,-4.1065,-4.1452,-4.1819,-4.2258,-4.2564,-4.2641,-4.3222,-4.3993,-4.4882,-4.5714,-4.5802,-4.584,-4.6108,-4.6179,-4.6208,-4.6247,-4.6306,-4.6292,-4.6362,-4.685,-4.7047,-4.7478,-4.7884,-4.7805,-4.7489,-4.6771,-4.6203,-4.6626,-4.7047,-4.7449,-4.7902,-4.8333,-4.8641,-4.8916,-4.901,-4.9234,-4.9337,-4.9384,-4.9616,-4.9955,-5.0289,-5.0723,-5.0862,-5.099,-5.1312,-5.1362,-5.1367,-5.1091,-5.0557,-5.0562,-5.1008,-5.1156,-5.1157,-5.1121,-5.1044,-5.1484,-5.2035,-2.8404,-2.8088,-2.8088,-2.8137,-2.8186,-2.8186,-2.8235,-2.8424,-2.8861,-2.9169,-2.9508,-2.9979,-3.0289,-3.0495,-3.0412,-3.0412,-3.0505,-3.0812,-3.1089,-3.1459,-3.1767,-3.2074,-3.2321,-3.2358,-3.2247,-3.2247,-3.2135,-3.2135,-3.2247,-3.2165,-3.2023,-3.2272,-3.2413,-3.2578,-3.2499,-3.2718,-3.2773,-3.2975,-3.341,-3.4038,-3.4622,-3.5358,-3.6087,-3.6731,-3.7719,-3.8517,-3.9076,-3.9747,-4.0066,-4.0652,-4.0472,-4.0418,-4.0305,-4.0324,-4.0491,-4.0656,-4.089,-4.1306,-4.192,-4.2173,-4.2623,-4.3299,-4.3725,-4.4149,-4.4504,-4.495,-4.5509,-4.5978,-4.6066,-4.6099,-4.6192,-4.6222,-4.6208,-4.6246,-4.6342,-4.667,-4.6805,-4.7177,-4.7579,-4.8054,-4.8448,-4.8331,-4.825,-4.7905,-4.7365,-4.734,-4.7984,-4.8647,-4.9119,-4.9605,-4.9853,-5.007,-5.0078,-5.0107,-5.0103,-5.0143,-5.0313,-5.0609,-5.0783,-5.1261,-5.1689,-5.1971,-5.2364,-5.2429,-5.2258,-5.1915,-5.1562,-5.1454,-5.1602,-5.1788,-5.2048,-5.1971,-5.2003,-5.233,-5.2766,-2.8381,-2.7981,-2.7801,-2.784,-2.8008,-2.791,-2.808,-2.8522,-2.9051,-2.9399,-2.9754,-3.044,-3.0883,-3.0883,-3.0944,-3.0983,-3.0944,-3.1321,-3.1505,-3.1719,-3.1855,-3.1987,-3.1992,-3.1936,-3.1936,-3.2104,-3.2327,-3.2471,-3.2558,-3.2593,-3.268,-3.2413,-3.2413,-3.2523,-3.2749,-3.3076,-3.3287,-3.3873,-3.4329,-3.4759,-3.5273,-3.6126,-3.6901,-3.7673,-3.8525,-3.9189,-3.9662,-4.0235,-4.0625,-4.0733,-4.1059,-4.1016,-4.0832,-4.0983,-4.1268,-4.1435,-4.1717,-4.2121,-4.264,-4.3064,-4.3631,-4.4331,-4.4957,-4.5055,-4.5472,-4.5854,-4.6007,-4.6076,-4.6115,-4.6138,-4.6176,-4.6222,-4.6208,-4.6324,-4.6495,-4.6933,-4.745,-4.7976,-4.8226,-4.8379,-4.874,-4.8992,-4.8971,-4.8999,-4.8705,-4.8305,-4.88,-4.9664,-5.0139,-5.0511,-5.0603,-5.0632,-5.0573,-5.051,-5.0524,-5.0625,-5.09,-5.1209,-5.1395,-5.1751,-5.2243,-5.2883,-5.3395,-5.3324,-5.3144,-5.3031,-5.2789,-5.2455,-5.2159,-5.2493,-5.2863,-5.2932,-5.3111,-5.3285,-5.3277,-2.8125,-2.8036,-2.7284,-2.7284,-2.767,-2.7174,-2.758,-2.8539,-2.8785,-2.9325,-3.006,-3.0971,-3.1744,-3.2002,-3.1879,-3.1855,-3.1977,-3.2018,-3.1926,-3.1758,-3.1595,-3.1537,-3.1537,-3.1537,-3.1509,-3.1775,-3.2367,-3.2928,-3.323,-3.3683,-3.331,-3.2598,-3.2838,-3.2592,-3.2801,-3.3519,-3.4123,-3.4746,-3.5205,-3.5768,-3.6268,-3.6878,-3.7327,-3.8125,-3.8701,-3.9189,-3.9558,-4.0054,-4.0436,-4.0466,-4.0931,-4.1255,-4.1235,-4.1626,-4.192,-4.2123,-4.2282,-4.2741,-4.3232,-4.3627,-4.4146,-4.4599,-4.5055,-4.5435,-4.5642,-4.5866,-4.5997,-4.6076,-4.6124,-4.6216,-4.6254,-4.6228,-4.6443,-4.683,-4.7233,-4.7624,-4.8256,-4.9013,-4.9175,-4.8973,-4.9186,-4.9632,-4.9748,-4.9776,-4.9532,-4.9132,-4.9419,-5.0234,-5.053,-5.0865,-5.0918,-5.0956,-5.0859,-5.0781,-5.0678,-5.0798,-5.0952,-5.1425,-5.1852,-5.2279,-5.278,-5.3467,-5.4303,-5.4296,-5.4125,-5.41,-5.3977,-5.3385,-5.3126,-5.3458,-5.36,-5.341,-5.3252,-5.3277,-5.323,-2.8652,-2.8219,-2.768,-2.7639,-2.7899,-2.7689,-2.8071,-2.8853,-2.9322,-3.0086,-3.0949,-3.1504,-3.1796,-3.1879,-3.1966,-3.191,-3.1966,-3.2191,-3.2135,-3.2079,-3.191,-3.1796,-3.1739,-3.1772,-3.2034,-3.2397,-3.3023,-3.3563,-3.4048,-3.4475,-3.426,-3.3825,-3.379,-3.3847,-3.4058,-3.426,-3.4861,-3.5288,-3.5805,-3.6381,-3.679,-3.7359,-3.7801,-3.8343,-3.8678,-3.8952,-3.9169,-3.9696,-4.0037,-4.0353,-4.0754,-4.1163,-4.1525,-4.1959,-4.2364,-4.2602,-4.2757,-4.3141,-4.3637,-4.3929,-4.4162,-4.4739,-4.5184,-4.5543,-4.561,-4.5829,-4.5997,-4.6076,-4.6173,-4.638,-4.6955,-4.7048,-4.7225,-4.769,-4.8088,-4.8431,-4.8974,-4.969,-5.013,-4.9886,-5.0176,-5.0592,-5.0619,-5.0581,-5.027,-4.9959,-5.0351,-5.0662,-5.092,-5.1048,-5.1087,-5.1034,-5.0937,-5.0906,-5.0808,-5.0868,-5.0928,-5.1511,-5.2158,-5.2708,-5.3253,-5.4331,-5.4969,-5.5037,-5.4874,-5.456,-5.4259,-5.4052,-5.387,-5.3716,-5.3598,-5.344,-5.3355,-5.323,-5.3225,-2.8765,-2.8308,-2.7818,-2.7854,-2.8177,-2.8039,-2.8388,-2.9112,-2.9607,-3.0424,-3.148,-3.1394,-3.1394,-3.1452,-3.1422,-3.1422,-3.1422,-3.1595,-3.1652,-3.1537,-3.1422,-3.1541,-3.1661,-3.1781,-3.199,-3.2884,-3.3604,-3.4088,-3.4693,-3.5027,-3.5151,-3.521,-3.5267,-3.5202,-3.4705,-3.5216,-3.5603,-3.6064,-3.6463,-3.6959,-3.7374,-3.7744,-3.8189,-3.8479,-3.8756,-3.8985,-3.9202,-3.9625,-3.9833,-4.0204,-4.0645,-4.1163,-4.1569,-4.1995,-4.2553,-4.2897,-4.3165,-4.3505,-4.4118,-4.4495,-4.457,-4.4927,-4.5545,-4.5649,-4.5654,-4.5827,-4.6042,-4.6552,-4.658,-4.6886,-4.7735,-4.7904,-4.7967,-4.8355,-4.8894,-4.9301,-4.9603,-5.0189,-5.0625,-5.0825,-5.1047,-5.1086,-5.1047,-5.0969,-5.093,-5.0619,-5.0724,-5.092,-5.0985,-5.1075,-5.1034,-5.102,-5.0937,-5.0906,-5.089,-5.0935,-5.1018,-5.1352,-5.2069,-5.301,-5.3755,-5.4818,-5.5326,-5.5157,-5.4962,-5.4784,-5.443,-5.4052,-5.3833,-5.3676,-5.3518,-5.3355,-5.3314,-5.3225,-5.3225,-2.8263,-2.8091,-2.7538,-2.7762,-2.8426,-2.7995,-2.8393,-2.926,-2.9492,-3.0075,-3.0925,-3.0628,-3.0658,-3.0896,-3.0955,-3.0896,-3.0896,-3.0718,-3.0747,-3.0866,-3.0833,-3.0606,-3.0893,-3.1372,-3.2126,-3.2708,-3.3594,-3.4453,-3.5187,-3.583,-3.626,-3.6506,-3.65,-3.6188,-3.4953,-3.5712,-3.6663,-3.7467,-3.7674,-3.7828,-3.7982,-3.8237,-3.8502,-3.8821,-3.8941,-3.9148,-3.9415,-3.9573,-3.9781,-3.9935,-4.0563,-4.1105,-4.1495,-4.2263,-4.3037,-4.3884,-4.3999,-4.4634,-4.5626,-4.5866,-4.5714,-4.5483,-4.6173,-4.632,-4.5873,-4.5965,-4.6535,-4.7291,-4.7406,-4.7851,-4.8392,-4.8802,-4.8865,-4.9248,-4.9859,-5.0299,-5.0646,-5.1131,-5.1653,-5.1836,-5.1474,-5.1241,-5.128,-5.1319,-5.1385,-5.1319,-5.1241,-5.1178,-5.1153,-5.1075,-5.1034,-5.099,-5.0921,-5.0906,-5.0945,-5.1022,-5.1145,-5.146,-5.2162,-5.3302,-5.407,-5.4809,-5.5169,-5.5186,-5.514,-5.4933,-5.4495,-5.4016,-5.3757,-5.3518,-5.3355,-5.323,-5.3188,-5.3261,-5.3298,-2.9156,-2.9251,-2.8809,-2.897,-2.9337,-2.8489,-2.8596,-2.9346,-2.9768,-3.0185,-3.045,-3.0326,-3.0447,-3.0628,-3.0597,-3.0597,-3.0628,-3.0837,-3.0837,-3.0865,-3.0884,-3.1174,-3.1459,-3.1922,-3.2547,-3.3235,-3.4061,-3.4898,-3.5859,-3.6384,-3.6784,-3.7058,-3.7238,-3.705,-3.6704,-3.7006,-3.761,-3.7796,-3.8059,-3.8294,-3.8537,-3.8665,-3.8865,-3.9229,-3.9329,-3.9448,-3.9726,-3.983,-3.9915,-4.0052,-4.0754,-4.1289,-4.1985,-4.2875,-4.3642,-4.4534,-4.491,-4.5294,-4.6207,-4.6719,-4.7081,-4.6948,-4.6946,-4.7297,-4.7199,-4.7418,-4.7869,-4.8108,-4.8232,-4.8764,-4.94,-4.9634,-4.9882,-5.0644,-5.1213,-5.1585,-5.1999,-5.2569,-5.3001,-5.2834,-5.2562,-5.2057,-5.1901,-5.2188,-5.2304,-5.2098,-5.1981,-5.1451,-5.1269,-5.1087,-5.1005,-5.0975,-5.0906,-5.0906,-5.0983,-5.1238,-5.157,-5.1945,-5.2836,-5.4015,-5.4667,-5.4968,-5.5201,-5.5364,-5.5275,-5.5113,-5.456,-5.4052,-5.3602,-5.3277,-5.3272,-5.334,-5.3408,-5.3445,-5.3482,-2.9834,-2.9989,-3.0023,-3.0235,-3.0375,-2.924,-2.9004,-2.9498,-2.9898,-3.0021,-3.0021,-2.996,-3.0083,-3.0201,-3.0434,-3.0319,-3.0413,-3.1029,-3.1095,-3.1154,-3.1526,-3.1961,-3.2436,-3.2762,-3.351,-3.4144,-3.4609,-3.5296,-3.6477,-3.66,-3.6937,-3.7417,-3.7711,-3.7589,-3.7557,-3.7764,-3.8026,-3.8173,-3.8432,-3.8655,-3.8854,-3.904,-3.9222,-3.9487,-3.9659,-3.9811,-4.0083,-4.0236,-4.0389,-4.0696,-4.1271,-4.1864,-4.2812,-4.342,-4.4241,-4.5065,-4.6078,-4.6504,-4.7342,-4.7863,-4.8227,-4.8466,-4.8319,-4.8137,-4.8143,-4.8044,-4.8554,-4.8875,-4.9097,-4.9878,-5.0628,-5.0812,-5.117,-5.1921,-5.2064,-5.2394,-5.2134,-5.2624,-5.2807,-5.2756,-5.2834,-5.2523,-5.2589,-5.3029,-5.3327,-5.3003,-5.2718,-5.2147,-5.1629,-5.1484,-5.13,-5.1192,-5.1177,-5.1238,-5.1432,-5.1725,-5.2095,-5.2447,-5.3474,-5.4593,-5.4744,-5.4984,-5.5263,-5.5499,-5.5288,-5.5019,-5.456,-5.4088,-5.3719,-5.3444,-5.34,-5.3465,-5.3597,-5.3702,-5.3812,-3.0127,-3.0434,-3.0992,-3.1254,-3.1284,-3.0242,-2.9729,-2.9701,-2.9673,-2.9701,-2.9603,-2.9694,-2.9876,-2.9995,-3.0573,-3.0608,-3.0415,-3.1333,-3.1432,-3.1495,-3.184,-3.2587,-3.3093,-3.3383,-3.4192,-3.5259,-3.5758,-3.5793,-3.7058,-3.7358,-3.7535,-3.7801,-3.8059,-3.8116,-3.8173,-3.8286,-3.8399,-3.8567,-3.8821,-3.904,-3.9288,-3.9362,-3.9487,-3.9729,-3.9915,-4.0303,-4.071,-4.1032,-4.1542,-4.2022,-4.2739,-4.3059,-4.3358,-4.3545,-4.4563,-4.5845,-4.7239,-4.7864,-4.8449,-4.8828,-4.9273,-4.9416,-4.9238,-4.8723,-4.8548,-4.8778,-4.9278,-4.9868,-5.026,-5.1264,-5.2088,-5.2255,-5.242,-5.2585,-5.2565,-5.2308,-5.1714,-5.1758,-5.1863,-5.1979,-5.22,-5.2317,-5.3029,-5.3546,-5.4294,-5.4241,-5.3901,-5.3421,-5.2903,-5.2361,-5.2136,-5.1657,-5.1641,-5.1664,-5.1934,-5.2442,-5.2854,-5.332,-5.3976,-5.4901,-5.4972,-5.5039,-5.5255,-5.5389,-5.5262,-5.4952,-5.456,-5.4228,-5.3907,-5.3719,-5.3672,-5.3838,-5.4044,-5.4106,-5.4326,-3.0451,-3.0729,-3.1058,-3.1443,-3.1716,-3.1403,-3.1039,-3.0723,-3.0552,-3.0552,-3.0844,-3.0524,-3.0651,-3.1326,-3.1432,-3.1504,-3.1625,-3.1804,-3.1825,-3.1997,-3.2405,-3.2786,-3.3301,-3.3885,-3.4604,-3.5115,-3.5657,-3.6165,-3.7147,-3.777,-3.8205,-3.8375,-3.8488,-3.8567,-3.8733,-3.8843,-3.8898,-3.8952,-3.9148,-3.9362,-3.9554,-3.9692,-3.9796,-3.9967,-4.0508,-4.0965,-4.1321,-4.1918,-4.2309,-4.255,-4.2877,-4.3182,-4.3485,-4.4364,-4.5597,-4.7072,-4.7838,-4.8192,-4.885,-4.9052,-4.9401,-5.0,-4.9921,-5.0117,-4.9951,-4.9962,-5.0222,-5.0617,-5.1133,-5.1947,-5.2616,-5.2886,-5.2967,-5.2947,-5.2929,-5.2757,-5.2258,-5.2313,-5.2418,-5.2627,-5.2783,-5.3262,-5.3895,-5.459,-5.5258,-5.532,-5.5133,-5.4614,-5.4094,-5.353,-5.2911,-5.2414,-5.236,-5.242,-5.2966,-5.349,-5.3821,-5.4227,-5.4785,-5.5206,-5.5275,-5.5339,-5.5399,-5.5314,-5.513,-5.4933,-5.4661,-5.433,-5.4123,-5.4055,-5.4007,-5.4252,-5.4454,-5.4699,-5.5089,-3.118,-3.1593,-3.2055,-3.2443,-3.2711,-3.2777,-3.2577,-3.2168,-3.1471,-3.133,-3.1547,-3.131,-3.1496,-3.194,-3.2168,-3.2262,-3.2227,-3.2832,-3.2976,-3.2803,-3.3168,-3.3665,-3.406,-3.4309,-3.4853,-3.527,-3.5752,-3.6321,-3.7266,-3.8059,-3.8544,-3.8655,-3.8821,-3.8985,-3.9094,-3.9202,-3.9362,-3.9415,-3.952,-3.9625,-3.983,-4.005,-4.0321,-4.0508,-4.1133,-4.1644,-4.2155,-4.2822,-4.3113,-4.3473,-4.3786,-4.4146,-4.4607,-4.5645,-4.6313,-4.7547,-4.7965,-4.8458,-4.8986,-4.9252,-4.9674,-5.0051,-5.0329,-5.0489,-5.0657,-5.0627,-5.088,-5.1178,-5.1725,-5.2317,-5.283,-5.3279,-5.3241,-5.319,-5.3286,-5.3332,-5.333,-5.3347,-5.3506,-5.3715,-5.4039,-5.4516,-5.5094,-5.5746,-5.6062,-5.5852,-5.5697,-5.5526,-5.5006,-5.4481,-5.3785,-5.3149,-5.3194,-5.3314,-5.3858,-5.4323,-5.4516,-5.4785,-5.5227,-5.5511,-5.5577,-5.5485,-5.5364,-5.5183,-5.4962,-5.4814,-5.4692,-5.4635,-5.4443,-5.4428,-5.4645,-5.504,-5.5349,-5.5691,-5.619,-3.2027,-3.2738,-3.3557,-3.3837,-3.4059,-3.3973,-3.3905,-3.3768,-3.2492,-3.1943,-3.2065,-3.1952,-3.2074,-3.252,-3.293,-3.291,-3.3165,-3.3599,-3.381,-3.3623,-3.3993,-3.4389,-3.4559,-3.4846,-3.527,-3.5816,-3.6289,-3.6662,-3.7476,-3.823,-3.8766,-3.8876,-3.8985,-3.9148,-3.9342,-3.9701,-3.9926,-4.0065,-4.0132,-4.0303,-4.0355,-4.0676,-4.1201,-4.1407,-4.214,-4.289,-4.3522,-4.3951,-4.4331,-4.4883,-4.5214,-4.5476,-4.6152,-4.6552,-4.7062,-4.7604,-4.8162,-4.8672,-4.915,-4.9431,-4.9803,-5.0188,-5.0457,-5.0664,-5.0819,-5.0889,-5.1058,-5.139,-5.1869,-5.2674,-5.3295,-5.3749,-5.3861,-5.392,-5.4021,-5.3779,-5.3397,-5.3518,-5.3793,-5.4025,-5.4425,-5.4861,-5.5335,-5.5907,-5.6046,-5.6029,-5.5973,-5.5935,-5.5741,-5.52,-5.4718,-5.4022,-5.4181,-5.436,-5.4535,-5.494,-5.5093,-5.5381,-5.5609,-5.5643,-5.5554,-5.5413,-5.5262,-5.5102,-5.4962,-5.4941,-5.4852,-5.4919,-5.5028,-5.506,-5.5358,-5.5906,-5.6251,-5.65,-5.6841,-3.2663,-3.2901,-3.3733,-3.402,-3.3951,-3.4059,-3.4128,-3.4059,-3.3907,-3.3571,-3.3339,-3.3102,-3.314,-3.3485,-3.3696,-3.3734,-3.3984,-3.4109,-3.4254,-3.4234,-3.4505,-3.4668,-3.4935,-3.5073,-3.5529,-3.5913,-3.6383,-3.7029,-3.777,-3.8455,-3.8931,-3.8985,-3.9268,-3.9495,-3.9634,-4.018,-4.0673,-4.0811,-4.1302,-4.1268,-4.1152,-4.1628,-4.2174,-4.2516,-4.3098,-4.3699,-4.4318,-4.4819,-4.5131,-4.5494,-4.5598,-4.6035,-4.6799,-4.6843,-4.7335,-4.8015,-4.853,-4.8949,-4.937,-4.9693,-5.0012,-5.0329,-5.0584,-5.0756,-5.0867,-5.0932,-5.1175,-5.1515,-5.2088,-5.2923,-5.3725,-5.414,-5.4479,-5.4606,-5.4755,-5.4139,-5.3541,-5.3844,-5.4103,-5.4372,-5.473,-5.5126,-5.5614,-5.5813,-5.5952,-5.6012,-5.6012,-5.5973,-5.5995,-5.5668,-5.5593,-5.513,-5.5325,-5.5461,-5.546,-5.5363,-5.5437,-5.5493,-5.5665,-5.5638,-5.557,-5.5339,-5.5195,-5.5113,-5.5,-5.5207,-5.5413,-5.5648,-5.5729,-5.5844,-5.6144,-5.6692,-5.6873,-5.7033,-5.7334,-3.335,-3.3638,-3.4119,-3.4361,-3.4332,-3.4399,-3.4467,-3.4467,-3.4601,-3.4534,-3.4332,-3.4013,-3.4042,-3.4332,-3.4264,-3.4399,-3.4534,-3.4563,-3.4572,-3.4668,-3.4698,-3.4735,-3.5001,-3.5299,-3.5688,-3.607,-3.6966,-3.7653,-3.8141,-3.8733,-3.9148,-3.9355,-3.9701,-4.016,-4.028,-4.1009,-4.1519,-4.1606,-4.2475,-4.2596,-4.2257,-4.2822,-4.3166,-4.3476,-4.4044,-4.4613,-4.4924,-4.5425,-4.5545,-4.592,-4.6133,-4.6763,-4.7391,-4.7706,-4.8015,-4.8493,-4.8922,-4.9214,-4.9579,-4.991,-5.0197,-5.0538,-5.0702,-5.0841,-5.1087,-5.1217,-5.1833,-5.2214,-5.2283,-5.304,-5.4002,-5.457,-5.4684,-5.4822,-5.4989,-5.4782,-5.4813,-5.5126,-5.5264,-5.5304,-5.552,-5.5575,-5.5891,-5.5913,-5.6012,-5.6012,-5.6012,-5.5995,-5.6016,-5.598,-5.5943,-5.5962,-5.5885,-5.5865,-5.5691,-5.5612,-5.5609,-5.5665,-5.5682,-5.5631,-5.5514,-5.5275,-5.5113,-5.5437,-5.5683,-5.586,-5.6095,-5.6367,-5.6639,-5.6781,-5.7115,-5.7478,-5.75,-5.7491,-5.7715,-3.3935,-3.4467,-3.4698,-3.4831,-3.4868,-3.4935,-3.4935,-3.4868,-3.4935,-3.4935,-3.4868,-3.4735,-3.4765,-3.4698,-3.4563,-3.4735,-3.4802,-3.4735,-3.4802,-3.4868,-3.4935,-3.5001,-3.5067,-3.5234,-3.5752,-3.6415,-3.7326,-3.7854,-3.8278,-3.9084,-3.9694,-3.9887,-4.0394,-4.1057,-4.1331,-4.1822,-4.2348,-4.2712,-4.326,-4.3776,-4.3897,-4.4004,-4.411,-4.4561,-4.5079,-4.5615,-4.5701,-4.5803,-4.5939,-4.6315,-4.6763,-4.7385,-4.7919,-4.8273,-4.8567,-4.8925,-4.9188,-4.9469,-4.9787,-5.0038,-5.0428,-5.0758,-5.0871,-5.1115,-5.1412,-5.193,-5.2559,-5.2922,-5.2986,-5.3362,-5.432,-5.4882,-5.4958,-5.5095,-5.5248,-5.5413,-5.576,-5.6029,-5.5955,-5.5952,-5.6029,-5.6007,-5.599,-5.6012,-5.6012,-5.6012,-5.5995,-5.6016,-5.598,-5.5943,-5.5905,-5.5865,-5.5845,-5.5787,-5.5766,-5.5745,-5.5703,-5.5703,-5.5682,-5.5562,-5.553,-5.5603,-5.5808,-5.6311,-5.6527,-5.6618,-5.6898,-5.7175,-5.7441,-5.7566,-5.7782,-5.7909,-5.7663,-5.769,-5.7996,-3.4283,-3.4802,-3.5001,-3.5001,-3.4935,-3.5067,-3.5067,-3.4935,-3.5067,-3.5067,-3.503,-3.5096,-3.503,-3.4868,-3.4802,-3.4868,-3.4935,-3.4868,-3.5001,-3.5133,-3.5133,-3.5228,-3.5394,-3.5623,-3.6006,-3.6754,-3.7535,-3.7969,-3.8939,-3.983,-4.0421,-4.0595,-4.1426,-4.1903,-4.2004,-4.2618,-4.3288,-4.3654,-4.4156,-4.4707,-4.4955,-4.5008,-4.5129,-4.5356,-4.5631,-4.5854,-4.6005,-4.6398,-4.6542,-4.688,-4.7378,-4.7879,-4.8307,-4.8642,-4.8855,-4.9127,-4.9377,-4.9637,-4.991,-5.0221,-5.0598,-5.1239,-5.1468,-5.1943,-5.2369,-5.2962,-5.3549,-5.4111,-5.4211,-5.422,-5.487,-5.5115,-5.5251,-5.5516,-5.5687,-5.5758,-5.5941,-5.5729,-5.5513,-5.5775,-5.6012,-5.6012,-5.6012,-5.6012,-5.5995,-5.5995,-5.5998,-5.598,-5.5961,-5.5905,-5.5865,-5.5787,-5.5745,-5.5724,-5.5724,-5.5724,-5.5703,-5.5703,-5.5775,-5.5907,-5.6027,-5.6186,-5.6492,-5.708,-5.7248,-5.7301,-5.7586,-5.8051,-5.7895,-5.8015,-5.8223,-5.8295,-5.796,-5.8019,-5.8324]}]]